     2.11           OBSERVATION DATA    G (GPS)             RINEX VERSION / TYPE
teqc 2010Oct21 OPUS Account 20111028 20:06:13UTC            PGM / RUN BY / DATE
D 1528                                                      MARKER NAME
3088                                                        MARKER NUMBER
CSMIDDLETON NGS                                             OBSERVER / AGENCY
4624K01584 TRIMBLE NETR5 4.41                               REC # / TYPE / VERS
60177755 TRM41249.00 NONE                                   ANT # / TYPE
  -697914.3100 -5593133.6049  2974985.3725                  APPROX POSITION XYZ
        2.0000        0.0000        0.0000                  ANTENNA: DELTA H/E/N
     1     1                                                WAVELENGTH FACT L1/2
     5    L1    L2    C1    P1    P2                        # / TYPES OF OBSERV
    15                                                      LEAP SECONDS
  2011     8    26    14    59   30.0000000     GPS         TIME OF FIRST OBS
                                                            END OF HEADER
 11  8 26 14 59 30.0000000  0 10G10G03G32G07G16G20G06G13G19G23
 126535200.38216  98598747.79853  24078810.469                    24078822.332
 109244562.65818  85125666.99056  20788549.266                    20788557.730
 128428640.18015 100074367.52953  24439173.266                    24439184.410
 121935524.01117  95014711.23616  23203559.031                    23203569.047
 114176843.37617  88968999.54255  21727131.156                    21727138.914
 123391403.08216  96149302.08954  23480633.320                    23480642.340
 115802274.22017  90235571.45055  22036440.398                    22036449.496
 108051180.82418  84195754.96056  20561456.375                    20561464.117
 115512472.42017  90009745.17055  21981292.969                    21981299.688
 104851332.98618  81702358.97457  19952545.734                    19952551.422
 11  8 26 15  0  0.0000000  0 10G10G03G32G07G16G20G06G13G19G23
 126506309.969 6  98576235.78643  24073312.883                    24073324.820
 109232667.756 8  85116398.23746  20786285.867                    20786294.145
 128520780.618 5 100146165.09143  24456707.703                    24456719.672
 121878603.576 6  94970357.700 6  23192727.664                    23192737.449
 114255984.429 8  89030667.85245  21742191.273                    21742198.656
 123478232.957 6  96216961.67344  23497156.188                    23497165.969
 115823232.564 7  90251902.62145  22040428.719                    22040437.465
 107999396.931 8  84155403.87546  20551601.891                    20551609.785
 115438971.192 7  89952471.52946  21967305.813                    21967312.648
 104850506.386 8  81701714.85747  19952388.352                    19952393.809
 11  8 26 15  0 30.0000000  0 10G10G03G32G07G16G20G06G13G19G23
 126477916.525 6  98554111.04843  24067909.438                    24067921.008
 109221387.463 8  85107608.40146  20784139.148                    20784147.801
 128612850.024 6 100217907.34643  24474228.844                    24474240.625
 121821683.885 6  94926004.763 7  23181895.805                    23181905.996
 114335340.262 7  89092503.53945  21757292.500                    21757299.523
 123565096.606 6  96284647.59144  23513686.406                    23513695.637
 115844738.812 7  90268660.73445  22044521.281                    22044530.098
 107948023.209 8  84115372.41346  20541826.078                    20541833.559
 115365818.176 7  89895469.20945  21953385.367                    21953392.113
 104850225.970 8  81701496.35347  19952335.172                    19952340.551
 11  8 26 15  1  0.0000000  0 10G10G03G32G07G16G20G06G13G19G23
 126450020.566 6  98532373.98043  24062600.930                    24062612.598
 109210722.732 8  85099298.21846  20782109.828                    20782118.543
 128704845.865 6 100289592.27043  24491735.328                    24491746.328
 121764765.124 6  94881652.518 6  23171064.820                    23171074.922
 114414908.052 8  89154504.39845  21772433.242                    21772440.672
 123651991.385 7  96352357.73444  23530220.992                    23530231.223
 115866792.499 7  90285845.43145  22048717.563                    22048726.891
 107897062.198 8  84075662.53946  20532128.477                    20532136.285
 115293016.730 7  89838740.84845  21939531.820                    21939538.848
 104850493.018 8  81701704.44947  19952385.594                    19952391.371
 11  8 26 15  1 30.0000000  0 10G10G03G32G07G16G20G06G13G19G23
 126422622.760 6  98511025.04543  24057387.102                    24057399.281
 109200674.308 8  85091468.28346  20780197.563                    20780206.148
 128796766.166 6 100361218.35543  24509227.250                    24509237.230
 121707847.285 7  94837300.989 7  23160233.453                    23160243.480
 114494685.955 7  89216668.96345  21787614.875                    21787622.734
 123738914.707 6  96420090.13144  23546762.664                    23546772.641
 115889393.671 7  90303456.72445  22053018.438                    22053027.652
 107846516.402 8  84036276.21146  20522510.203                    20522517.555
 115220570.466 7  89782289.25445  21925745.625                    21925751.906
 104851308.862 8  81702340.15947  19952540.617                    19952546.320
 11  8 26 15  2  0.0000000  0 10G10G03G32G07G16G20G06G13G19G23
 126395724.156 6  98490065.04843  24052268.820                    24052280.180
 109191243.390 8  85084119.50946  20778403.000                    20778411.813
 128888608.973 6 100432784.07043  24526702.945                    24526715.754
 121650930.750 7  94792950.517 6  23149403.000                    23149411.742
 114574671.275 7  89278995.14645  21802835.805                    21802842.973
 123825864.456 6  96487843.13644  23563308.555                    23563318.609
 115912541.869 7  90321494.26945  22057423.773                    22057432.348
 107796389.376 8  83997216.20846  20512970.867                    20512978.523
 115148482.687 7  89726116.99946  21912027.656                    21912034.387
 104852674.478 8  81703404.25747  19952800.586                    19952806.668
 11  8 26 15  2 30.0000000  0 10G10G03G32G07G16G20G06G13G19G23
 126369324.183 6  98469493.71143  24047245.484                    24047256.496
 109182431.590 8  85077253.17346  20776726.094                    20776734.441
 128980371.394 6 100504287.12943  24544165.039                    24544177.043
 121594015.024 7  94748600.626 7  23138572.164                    23138581.563
 114654862.131 7  89341481.50845  21818095.367                    21818102.746
 123912836.807 7  96555613.73544  23579859.133                    23579868.527
 115936237.509 7  90339958.40845  22061932.828                    22061941.426
 107746683.097 8  83958484.05146  20503512.320                    20503519.789
 115076756.625 7  89670226.59845  21898378.422                    21898385.609
 104854590.741 8  81704897.44247  19953165.461                    19953171.211
 11  8 26 15  3  0.0000000  0 10G10G03G32G07G16G20G06G13G19G23
 126343423.636 6  98449311.45143  24042316.180                    24042327.352
 109174238.668 8  85070869.07546  20775167.641                    20775176.469
 129072051.482 6 100575725.94543  24561611.555                    24561623.426
 121537100.512 7  94704251.679 6  23127741.578                    23127750.625
 114735255.250 7  89404125.46145  21833393.484                    21833401.117
 123999829.430 7  96623400.12744  23596413.164                    23596422.512
 115960479.289 7  90358848.09545  22066545.664                    22066554.781
 107697399.783 8  83920081.48346  20494134.031                    20494140.848
 115005395.169 7  89614620.29445  21884799.102                    21884805.836
 104857058.607 8  81706820.44147  19953635.320                    19953640.605
 11  8 26 15  3 30.0000000  0 10G10G03G32G07G16G20G06G13G19G23
 126318022.754 6  98429518.59043  24037482.359                    24037494.207
 109166666.273 8  85064968.50646  20773726.273                    20773734.406
 129163646.957 6 100647098.90943  24579041.602                    24579052.469
 121480187.101 7  94659903.628 7  23116911.398                    23116920.719
 114815848.507 7  89466925.37445  21848730.031                    21848737.184
 124086839.982 6  96691200.49844  23612970.766                    23612980.449
 115985267.297 7  90378163.41145  22071262.523                    22071271.395
 107648542.285 8  83882010.71646  20484836.703                    20484844.008
 114934401.543 8  89559300.63045  21871289.422                    21871295.926
 104860079.441 8  81709174.33047  19954209.992                    19954215.801
 11  8 26 15  4  0.0000000  0 10G10G03G32G07G16G20G06G13G19G23
 126293121.732 6  98410115.10143  24032743.945                    24032756.141
 109159714.793 8  85059551.66546  20772403.664                    20772412.117
 129255155.279 5 100718403.81543  24596455.063                    24596467.152
 121423274.685 7  94615556.227 7  23106081.234                    23106090.957
 114896639.332 7  89529879.14445  21864104.047                    21864111.516
 124173865.484 6  96759012.41743  23629531.102                    23629541.047
 116010600.903 7  90397903.77245  22076083.656                    22076092.789
 107600113.044 8  83844273.55446  20475620.523                    20475627.938
 114863778.996 7  89504269.99445  21857850.391                    21857857.145
 104863653.899 8  81711959.51347  19954890.266                    19954896.102
 11  8 26 15  4 30.0000000  0 10G10G03G32G07G16G20G06G13G19G23
 126268720.460 6  98391101.07843  24028100.961                    24028112.250
 109153385.232 8  85054619.53246  20771198.984                    20771207.391
 129346574.037 6 100789639.05843  24613852.359                    24613863.313
 121366363.197 7  94571209.670 6  23095250.758                    23095261.184
 114977625.274 7  89592985.04045  21879515.422                    21879522.629
 124260902.920 6  96826833.71243  23646093.961                    23646103.355
 116036479.625 7  90418069.00045  22081008.453                    22081017.410
 107552114.265 8  83806871.90446  20466486.945                    20466494.621
 114793530.485 7  89449530.90545  21844482.094                    21844489.137
 104867782.968 8  81715176.95747  19955676.023                    19955681.555
 11  8 26 15  5  0.0000000  0 10G10G03G32G07G16G20G06G13G19G23
 126244819.647 6  98372477.06943  24023553.492                    24023563.918
 109147678.197 8  85050172.49046  20770112.914                    20770121.387
 129437900.865 5 100860802.65642  24631230.625                    24631242.926
 121309452.350 6  94526863.587 7  23084421.086                    23084430.461
 115058803.938 8  89656241.11345  21894962.922                    21894970.348
 124347949.473 6  96894662.12343  23662658.609                    23662667.773
 116062902.677 7  90438658.38445  22086036.148                    22086045.223
 107504548.201 8  83769807.44346  20457435.180                    20457443.090
 114723659.070 7  89395085.67845  21831186.352                    21831193.035
 104872467.373 8  81718827.12447  19956567.383                    19956573.520
 11  8 26 15  5 30.0000000  0 10G10G03G32G07G16G20G06G13G19G23
 126221419.297 6  98354243.01843  24019099.828                    24019111.270
 109142593.808 8  85046210.63146  20769145.695                    20769153.910
 129529133.243 5 100931892.65942  24648591.430                    24648604.066
 121252542.308 7  94482518.151 7  23073592.039                    23073601.426
 115140172.333 8  89719645.02345  21910447.133                    21910454.738
 124435001.976 6  96962495.17943  23679223.977                    23679233.887
 116089869.591 7  90459671.54645  22091168.320                    22091177.258
 107457417.157 8  83733081.95646  20448466.836                    20448474.387
 114654167.687 8  89340936.57745  21817962.203                    21817968.973
 104877707.742 8  81722910.51347  19957564.578                    19957570.430
 11  8 26 15  6  0.0000000  0 10G10G03G32G07G16G20G06G13G19G23
 126198519.216 6  98336398.82043  24014742.078                    24014752.387
 109138132.882 8  85042734.58246  20768296.422                    20768304.879
 129620269.023 6 101002907.40442  24665934.609                    24665946.691
 121195633.087 7  94438173.353 6  23062762.242                    23062771.816
 115221727.983 8  89783194.85345  21925966.406                    21925973.879
 124522058.035 6  97030330.98243  23695790.398                    23695800.320
 116117379.568 7  90481107.88445  22096403.141                    22096412.199
 107410723.519 8  83696697.31146  20439581.109                    20439588.867
 114585059.374 8  89287085.96246  21804811.805                    21804818.813
 104883504.726 8  81727427.63147  19958667.930                    19958673.945
 11  8 26 15  6 30.0000000  0 10G10G03G32G07G16G20G06G13G19G23
 126176119.807 6  98318944.69943  24010479.734                    24010490.824
 109134296.033 8  85039744.82346  20767566.266                    20767574.457
 129711305.827 6 101073845.05642  24683258.367                    24683270.699
 121138724.568 7  94393829.110 6  23051932.852                    23051941.883
 115303468.547 7  89846888.76145  21941521.359                    21941528.383
 124609115.029 6  97098167.51843  23712356.586                    23712366.070
 116145432.446 7  90502967.25945  22101741.477                    22101750.559
 107364469.833 8  83660655.48246  20430779.406                    20430787.137
 114516337.262 8  89233536.29046  21791734.414                    21791740.898
 104889859.463 8  81732379.36347  19959877.305                    19959882.938
 11  8 26 15  7  0.0000000  0 10G10G03G32G07G16G20G06G13G19G23
 126154221.152 6  98301880.81243  24006312.984                    24006323.723
 109131084.405 8  85037242.25246  20766955.719                    20766963.563
 129802241.241 6 101144703.61043  24700563.281                    24700575.371
 121081816.937 7  94349485.559 6  23041103.664                    23041112.629
 115385391.703 8  89910724.96445  21957110.758                    21957118.168
 124696170.050 6  97166002.54743  23728922.172                    23728932.375
 116174027.325 7  90525248.98845  22107182.805                    22107191.734
 107318658.503 8  83624958.33746  20422061.695                    20422069.484
 114448004.464 8  89180289.97746  21778730.711                    21778737.324
 104896772.785 8  81737766.35347  19961192.602                    19961198.449
 11  8 26 15  7 30.0000000  0 10G10G03G32G07G16G20G06G13G19G23
 126132823.225 6  98285207.11243  24002240.727                    24002251.004
 109128498.086 8  85035226.94146  20766463.266                    20766471.434
 129893072.932 6 101215481.40043  24717847.805                    24717860.016
 121024909.659 7  94305142.256 6  23030274.617                    23030283.309
 115467495.100 8  89974701.60245  21972735.250                    21972742.203
 124783220.194 6  97233833.74343  23745488.172                    23745497.953
 116203163.389 7  90547952.41145  22112727.406                    22112735.957
 107273291.836 8  83589607.70146  20413428.758                    20413436.430
 114380063.878 8  89127349.29546  21765801.852                    21765808.926
 104904244.999 8  81743588.84347  19962614.711                    19962620.352
 11  8 26 15  8  0.0000000  0 10G10G03G32G07G16G20G06G13G19G23
 126111926.499 6  98268923.97343  23998264.508                    23998275.504
 109126537.391 8  85033699.12146  20766089.859                    20766098.449
 129983798.452 6 101286176.46443  24735112.188                    24735124.250
 120968003.213 7  94260799.626 6  23019445.398                    23019454.258
 115549775.847 8  90038816.43845  21988392.164                    21988399.602
 124870262.888 6  97301659.16343  23762051.938                    23762061.750
 116232840.190 7  90571077.17045  22118374.992                    22118383.406
 107228372.162 8  83554605.35646  20404880.906                    20404888.574
 114312518.586 8  89074716.63345  21752948.609                    21752955.613
 104912277.160 8  81749847.66047  19964143.094                    19964148.980
 11  8 26 15  8 30.0000000  0 10G10G03G32G07G16G20G06G13G19G23
 126091530.673 6  98253031.14443  23994383.063                    23994393.848
 109125202.812 8  85032659.17746  20765836.008                    20765844.281
 130074415.644 6 101356787.09842  24752356.273                    24752369.070
 120911097.461 7  94216457.513 6  23008616.953                    23008625.129
 115632231.378 8  90103067.46945  22004082.930                    22004090.539
 124957295.079 6  97369476.37943  23778614.125                    23778623.523
 116263056.793 7  90594622.59445  22124124.281                    22124133.664
 107183901.657 8  83519953.02546  20396418.305                    20396425.883
 114245371.455 8  89022394.21346  21740170.680                    21740177.863
 104920869.561 8  81756543.01447  19965778.148                    19965784.316
 11  8 26 15  9  0.0000000  0 10G10G03G32G07G16G20G06G13G19G23
 126071636.089 6  98237528.88843  23990597.000                    23990608.113
 109124495.412 8  85032107.95046  20765701.445                    20765709.652
 130164922.422 6 101427311.72943  24769579.859                    24769591.242
 120854192.639 7  94172116.128 6  22997788.633                    22997797.391
 115714859.635 8  90167453.10045  22019806.422                    22019814.195
 125044314.511 6  97437283.64043  23795172.945                    23795182.516
 116293812.769 7  90618588.29445  22129977.367                    22129986.117
 107139882.906 8  83485652.69946  20388042.047                    20388049.758
 114178625.831 8  88970384.67546  21727469.617                    21727476.668
 104930023.382 8  81763675.84647  19967520.078                    19967525.684
 11  8 26 15  9 30.0000000  0  9G10G03G07G16G20G06G13G19G23
 126052242.673 6  98222417.14743  23986907.344                    23986917.934
 109124415.688 8  85032045.81946  20765686.344                    20765694.766
 120797288.803 7  94127775.492 6  22986960.000                    22986968.145
 115797658.398 8  90231971.58645  22035562.852                    22035570.211
 125131318.620 6  97505078.99243  23811729.633                    23811739.156
 116325107.593 7  90642973.85845  22135932.625                    22135941.516
 107096318.383 8  83451706.32546  20379751.758                    20379759.605
 114112284.710 8  88918690.31646  21714845.195                    21714852.176
 104939739.529 8  81771246.85047  19969369.086                    19969374.559
 11  8 26 15 10  0.0000000  0  9G10G03G07G16G20G06G13G19G23
 126033349.909 6  98207695.51543  23983311.523                    23983322.430
 109124963.506 8  85032472.67646  20765790.961                    20765799.164
 120740385.670 7  94083435.432 6  22976131.539                    22976140.145
 115880624.898 8  90296620.77445  22051350.836                    22051358.359
 125218304.330 6  97572859.96643  23828282.258                    23828292.023
 116356940.207 7  90667778.48945  22141989.961                    22141999.016
 107053210.181 8  83418115.52046  20371549.063                    20371556.832
 114046351.056 8  88867313.46646  21702298.422                    21702305.586
 104950018.159 8  81779256.16047  19971325.055                    19971330.719
 11  8 26 15 10 30.0000000  0  9G10G03G07G16G20G06G13G19G23
 126014957.663 6  98193363.90743  23979811.297                    23979822.168
 109126138.903 8  85033388.55846  20766014.109                    20766022.766
 120683483.281 7  94039095.958 6  22965303.461                    22965312.070
 115963756.379 8  90361398.52045  22067170.430                    22067177.746
 125305268.596 6  97640624.24643  23844830.992                    23844841.414
 116389309.442 7  90693001.27245  22148149.500                    22148158.512
 107010560.288 8  83384881.85046  20363432.789                    20363440.457
 113980827.244 7  88816255.96546  21689829.797                    21689836.223
 104960859.311 8  81787703.79647  19973388.203                    19973393.746
 11  8 26 15 11  0.0000000  0 10G10G03G08G07G16G20G06G13G19G23
 125997066.468 6  98179422.73343  23976407.328                    23976417.766
 109127942.705 8  85034794.10546  20766357.578                    20766365.875
 131298979.73815 102310997.58853  24985379.531                    24985391.125
 120626581.814 7  93994757.186 6  22954474.938                    22954483.750
 116047050.679 7  90426303.14345  22083020.313                    22083028.266
 125392208.870 6  97708369.83543  23861375.188                    23861385.484
 116422214.820 7  90718641.81745  22154411.250                    22154420.629
 106968371.266 8  83352007.28846  20355404.195                    20355411.637
 113915716.651 8  88765520.44746  21677439.492                    21677446.414
 104972264.203 8  81796590.70847  19975558.172                    19975564.266
 11  8 26 15 11 30.0000000  0 10G10G03G08G07G16G20G06G13G19G23
 125979675.590 6  98165871.39743  23973097.664                    23973108.711
 109130374.589 8  85036689.07146  20766820.039                    20766828.656
 131236711.386 5 102262476.88743  24973530.148                    24973543.031
 120569681.128 7  93950419.056 6  22943647.031                    22943656.148
 116130504.955 7  90491332.41645  22098901.047                    22098908.406
 125479122.189 6  97776094.39543  23877914.352                    23877924.371
 116455655.021 7  90744699.10745  22160774.539                    22160784.051
 106926644.836 8  83319493.19346  20347464.250                    20347471.777
 113851021.636 8  88715108.77346  21665128.719                    21665134.992
 104984232.790 8  81805916.86047  19977835.844                    19977841.453
 11  8 26 15 12  0.0000000  0 10G10G03G08G07G16G20G06G13G19G23
 125962785.057 6  98152709.95443  23969883.633                    23969893.910
 109133435.218 8  85039073.96446  20767402.625                    20767411.324
 131174388.961 6 102213914.02443  24961671.133                    24961683.297
 120512781.173 7  93906081.481 6  22932819.547                    22932827.988
 116214117.357 7  90556484.89845  22114812.305                    22114819.992
 125566005.626 6  97843795.70044  23894448.227                    23894457.578
 116489629.212 7  90771172.48445  22167239.844                    22167248.523
 106885383.491 8  83287341.50246  20339612.313                    20339619.949
 113786745.461 7  88665023.45846  21652897.258                    21652904.320
 104996765.769 8  81815682.80447  19980220.852                    19980226.414
 11  8 26 15 12 30.0000000  0 10G10G03G08G07G16G20G06G13G19G23
 125946394.966 6  98139938.46143  23966764.555                    23966775.199
 109137125.238 8  85041949.29346  20768104.836                    20768113.270
 131112012.112 6 102165308.74243  24949801.227                    24949813.258
 120455882.269 7  93861744.726 6  22921992.016                    22922000.660
 116297884.782 7  90621758.18845  22130752.688                    22130760.203
 125652857.509 6  97911472.40043  23910975.586                    23910985.098
 116524137.030 7  90798061.67545  22173806.633                    22173815.543
 106844589.704 8  83255554.13746  20331849.430                    20331857.098
 113722891.102 8  88615266.82546  21640746.211                    21640753.051
 105009864.082 8  81825889.26547  19982713.328                    19982719.125
 11  8 26 15 13  0.0000000  0 10G10G03G08G07G16G20G06G13G19G23
 125930505.311 6  98127556.89743  23963740.867                    23963751.738
 109141444.467 8  85045314.91546  20768926.609                    20768935.297
 131049580.210 6 102116660.54543  24937920.797                    24937933.109
 120398984.469 7  93817408.819 6  22911164.453                    22911173.215
 116381805.336 7  90687150.79245  22146722.570                    22146729.598
 125739674.617 6  97979121.98443  23927495.734                    23927506.031
 116559177.267 7  90825365.73945  22180474.320                    22180483.723
 106804265.709 8  83224132.85046  20324176.125                    20324183.887
 113659461.591 8  88565841.24446  21628675.828                    21628682.785
 105023527.780 8  81836536.29347  19985313.469                    19985319.016
 11  8 26 15 13 30.0000000  0 10G10G03G08G07G16G20G06G13G19G23
 125915115.630 7  98115564.93643  23960811.953                    23960823.020
 109146393.226 8  85049171.08646  20769868.406                    20769876.934
 130987092.732 6 102067969.04043  24926029.594                    24926041.598
 120342088.164 7  93773074.092 7  22900337.195                    22900346.703
 116465876.922 7  90752661.08145  22162720.516                    22162728.609
 125826454.507 6  98046742.59143  23944009.555                    23944019.566
 116594749.239 7  90853084.15045  22187243.531                    22187252.691
 106764413.891 8  83193079.49146  20316592.672                    20316600.102
 113596459.817 7  88516748.98246  21616687.273                    21616693.840
 105037757.693 8  81847624.51847  19988021.336                    19988027.492
 11  8 26 15 14  0.0000000  0 10G10G03G08G07G16G20G06G13G19G23
 125900225.564 7  98103962.28943  23957979.359                    23957989.332
 109151971.402 8  85053517.70646  20770929.938                    20770938.699
 130924548.986 6 102019233.71443  24914127.930                    24914140.598
 120285193.203 7  93728740.402 7  22889510.688                    22889520.266
 116550096.704 7  90818286.85345  22178747.211                    22178755.324
 125913194.040 6  98114331.75643  23960515.383                    23960525.508
 116630851.614 7  90881215.84045  22194113.922                    22194122.418
 106725035.859 8  83162395.30946  20309099.328                    20309107.012
 113533888.415 7  88467992.05046  21604780.180                    21604787.176
 105052553.658 8  81859153.82647  19990836.836                    19990842.727
 11  8 26 15 14 30.0000000  0 10G10G03G08G07G16G20G06G13G19G23
 125885835.183 6  98092749.01343  23955240.758                    23955251.008
 109158179.352 8  85058355.06546  20772111.484                    20772120.145
 130861949.223 6 101970454.76643  24902215.344                    24902227.527
 120228299.717 7  93684407.873 6  22878684.141                    22878693.031
 116634462.398 7  90884026.31345  22194801.336                    22194809.230
 125999890.848 6  98181887.60643  23977013.789                    23977023.637
 116667483.732 7  90909760.32745  22201084.422                    22201093.195
 106686134.172 8  83132082.30746  20301696.336                    20301704.133
 113471750.476 8  88419572.89546  21592955.703                    21592962.250
 105067916.790 8  81871125.08547  19993760.406                    19993766.523
 11  8 26 15 15  0.0000000  0 10G10G03G08G07G16G20G06G13G19G23
 125871943.772 6  98081924.53843  23952597.242                    23952607.660
 109165016.896 8  85063683.01746  20773412.227                    20773420.813
 130799293.142 6 101921631.89443  24890292.273                    24890304.375
 120171407.863 7  93640076.617 6  22867858.234                    22867866.785
 116718971.487 7  90949877.50545  22210882.797                    22210890.230
 126086542.074 6  98249407.95643  23993502.688                    23993512.977
 116704644.296 7  90938716.58245  22208156.039                    22208164.715
 106647710.823 8  83102142.04446  20294385.023                    20294392.430
 113410048.468 8  88371493.42146  21581214.203                    21581221.020
 105083846.683 8  81883537.97147  19996792.117                    19996797.625
 11  8 26 15 15 30.0000000  0 10G10G03G08G07G16G20G06G13G19G23
 125858551.386 7  98071488.91543  23950048.766                    23950058.902
 109172484.430 8  85069501.87246  20774833.422                    20774841.629
 130736579.745 6 101872764.38843  24878358.359                    24878370.133
 120114517.520 7  93595746.524 6  22857032.336                    22857041.242
 116803622.046 7  91015838.93845  22226991.570                    22226998.984
 126173145.083 6  98316890.71543  24009982.992                    24009993.160
 116742332.419 7  90968083.92845  22215328.016                    22215337.039
 106609768.105 8  83072576.29346  20287164.852                    20287172.336
 113348785.510 8  88323756.05846  21569556.242                    21569562.781
 105100344.234 8  81896393.19147  19999931.406                    19999936.961
 11  8 26 15 16  0.0000000  0 10G10G03G08G07G16G20G06G13G19G23
 125845657.838 7  98061441.99343  23947595.031                    23947605.941
 109180581.905 8  85075811.58946  20776374.117                    20776382.789
 130673808.856 6 101823852.07543  24866412.813                    24866425.414
 120057628.888 7  93551417.771 7  22846206.695                    22846215.598
 116888411.257 7  91081908.41045  22243126.320                    22243133.891
 126259697.500 6  98384334.08643  24026452.898                    24026463.387
 116780547.206 7  90997861.66945  22222599.469                    22222608.613
 106572308.321 8  83043386.85846  20280036.203                    20280043.324
 113287964.411 7  88276362.99646  21557982.031                    21557989.020
 105117409.591 8  81909690.85147  20003178.516                    20003184.539
 11  8 26 15 16 30.0000000  0 10G10G03G08G07G16G20G06G13G19G23
 125833262.666 6  98051783.40243  23945236.242                    23945247.145
 109189309.328 8  85082612.16846  20778034.984                    20778043.758
 130610979.872 6 101774894.50743  24854457.117                    24854469.457
 120000741.687 7  93507090.122 6  22835381.367                    22835390.656
 116973336.782 7  91148084.10345  22259286.898                    22259294.820
 126346196.418 6  98451735.71643  24042914.219                    24042923.391
 116819287.215 7  91028048.66745  22229971.836                    22229980.902
 106535333.108 8  83014575.01546  20272999.898                    20273007.555
 113227587.761 8  88229316.27746  21546492.922                    21546499.770
 105135042.875 8  81923431.06547  20006534.078                    20006539.621
 11  8 26 15 17  0.0000000  0 10G10G03G08G07G16G20G06G13G19G23
 125821365.423 7  98042512.81643  23942971.984                    23942983.406
 109198666.467 8  85089903.43246  20779815.836                    20779824.230
 130548092.353 6 101725891.29043  24842490.234                    24842502.289
 119943856.799 7  93462764.273 7  22824556.258                    22824565.484
 117058396.356 7  91214364.25245  22275473.680                    22275481.387
 126432639.328 6  98519093.71343  24059363.563                    24059373.785
 116858551.367 7  91058644.09145  22237443.742                    22237452.434
 106498844.741 8  82986142.52346  20266056.453                    20266064.051
 113167658.372 8  88182618.05846  21535088.797                    21535095.762
 105153244.445 8  81937614.09247  20009997.961                    20010003.703
 11  8 26 15 17 30.0000000  0 10G10G03G08G07G16G20G06G13G19G23
 125809965.484 6  98033629.74543  23940802.656                    23940813.961
 109208653.341 8  85097685.41346  20781716.281                    20781724.980
 130485146.213 6 101676842.46443  24830511.328                    24830523.262
 119886974.111 7  93418440.160 7  22813732.070                    22813741.082
 117143587.544 7  91280746.95645  22291684.727                    22291692.750
 126519023.479 6  98586405.94343  24075801.820                    24075812.371
 116898338.844 7  91089647.30145  22245014.789                    22245023.613
 106462845.360 8  82958091.05446  20259205.977                    20259213.422
 113108179.159 8  88136270.63446  21523770.008                    21523777.184
 105172014.352 8  81952239.97446  20013569.414                    20013575.215
 11  8 26 15 18  0.0000000  0 10G10G03G08G07G16G20G06G13G19G23
 125799062.498 7  98025133.91643  23938728.805                    23938739.129
 109219269.816 8  85105957.98046  20783736.727                    20783745.051
 130422140.919 6 101627747.46843  24818522.141                    24818533.852
 119830093.704 7  93374117.786 7  22802908.070                    22802916.527
 117228908.234 7  91347230.56045  22307921.047                    22307928.531
 126605346.287 6  98653670.36343  24092228.836                    24092239.289
 116938648.301 7  91121057.24345  22252685.602                    22252694.242
 106427337.060 8  82930422.25846  20252448.828                    20252456.523
 113049152.737 8  88090276.03346  21512538.117                    21512544.711
 105191353.046 8  81967309.07846  20017249.648                    20017255.281
 11  8 26 15 18 30.0000000  0 10G10G03G08G07G16G20G06G13G19G23
 125788656.502 6  98017025.34143  23936748.313                    23936759.094
 109230516.020 8  85114721.24646  20785876.477                    20785885.160
 130359076.203 6 101578606.19743  24806520.992                    24806532.801
 119773216.040 7  93329797.574 7  22792084.547                    22792093.473
 117314356.223 7  91413813.37845  22324181.195                    22324189.000
 126691605.448 6  98720885.21943  24108643.305                    24108653.230
 116979478.753 7  91152873.17345  22260455.266                    22260464.129
 106392322.344 8  82903138.06446  20245786.000                    20245793.344
 112990581.939 7  88044636.46546  21501392.055                    21501398.703
 105211260.896 8  81982821.67646  20021037.813                    20021043.613
 11  8 26 15 19  0.0000000  0 10G10G03G08G07G16G20G06G13G19G23
 125778746.727 7  98009303.42943  23934862.828                    23934872.758
 109242391.444 8  85123974.80546  20788136.281                    20788144.891
 130295951.283 6 101529418.00143  24794509.039                    24794520.547
 119716340.665 7  93285479.145 7  22781261.023                    22781270.758
 117399928.437 7  91480492.98645  22340465.000                    22340472.738
 126777797.885 6  98788048.04143  24125044.945                    24125054.848
 117020828.538 7  91185093.77845  22268324.148                    22268332.570
 106357802.241 8  82876239.29046  20239216.703                    20239224.422
 112932469.136 7  87999353.78946  21490333.641                    21490340.449
 105231737.431 8  81998777.41146  20024934.406                    20024940.676
 11  8 26 15 19 30.0000000  0 10G10G03G08G07G16G20G06G13G19G23
 125769332.763 7  98001967.86443  23933070.938                    23933082.121
 109254895.760 8  85133718.42246  20790515.914                    20790524.582
 130232765.736 6 101480182.57943  24782485.188                    24782497.293
 119659468.059 7  93241162.879 7  22770439.055                    22770447.945
 117485623.233 7  91547268.11445  22356772.313                    22356780.023
 126863920.871 6  98855156.81543  24141433.758                    24141443.305
 117062696.871 7  91217718.43745  22276291.438                    22276300.082
 106323779.198 8  82849727.83846  20232742.219                    20232749.969
 112874817.234 8  87954430.24946  21479362.688                    21479369.340
 105252783.109 8  82015176.62946  20028939.531                    20028945.242
 11  8 26 15 20  0.0000000  0 10G10G03G08G07G16G20G06G13G19G23
 125760414.256 6  97995018.35943  23931374.000                    23931384.496
 109268029.309 8  85143952.34746  20793015.039                    20793023.668
 130169519.756 6 101430900.04843  24770449.641                    24770461.301
 119602598.993 7  93196849.364 7  22759616.953                    22759625.711
 117571438.529 7  91614137.13445  22373102.586                    22373109.746
 126949972.501 6  98922209.93043  24157809.211                    24157818.820
 117105082.635 7  91250746.28745  22284356.438                    22284365.594
 106290255.758 8  82823605.67946  20226363.125                    20226370.719
 112817628.977 8  87909867.98746  21468480.094                    21468486.715
 105274398.560 8  82032019.82146  20033052.688                    20033058.578
 11  8 26 15 20 30.0000000  0 10G10G03G08G07G16G20G06G13G19G23
 125751990.499 6  97988454.37643  23929770.234                    23929781.699
 109281791.849 8  85154676.39246  20795634.008                    20795642.867
 130106212.590 6 101381569.89443  24758402.398                    24758413.945
 119545733.074 7  93152538.321 7  22748795.836                    22748804.922
 117657371.839 7  91681098.12145  22389454.445                    22389462.492
 127035949.838 6  98989205.18143  24174170.352                    24174180.090
 117147984.526 7  91284176.31245  22292521.227                    22292530.063
 106257233.784 8  82797874.27946  20220079.500                    20220087.113
 112760907.320 8  87865669.31546  21457686.352                    21457693.027
 105296583.447 8  82049306.73846  20037274.313                    20037280.063
 11  8 26 15 21  0.0000000  0 10G10G03G08G07G16G20G06G13G19G23
 125744061.306 6  97982275.80143  23928261.930                    23928272.656
 109296183.153 8  85165890.38846  20798372.867                    20798380.953
 130042844.083 6 101332191.89242  24746343.906                    24746355.793
 119488870.417 7  93108229.813 7  22737975.117                    22737984.137
 117743420.784 7  91748149.21745  22405829.461                    22405837.340
 127121850.253 6  99056140.47943  24190516.359                    24190526.207
 117191401.147 7  91318007.45245  22300782.469                    22300791.652
 106224715.144 8  82772535.08146  20213891.078                    20213898.832
 112704654.710 8  87821836.14646  21446981.898                    21446988.664
 105319337.934 8  82067037.49447  20041604.148                    20041610.313
 11  8 26 15 21 30.0000000  0 10G10G03G08G07G16G20G06G13G19G23
 125736625.782 6  97976481.88743  23926847.461                    23926857.574
 109311202.373 8  85177593.66246  20801230.406                    20801239.348
 129979413.478 6 101282765.47942  24734273.695                    24734285.105
 119432011.341 7  93063924.078 7  22727155.086                    22727163.852
 117829582.880 7  91815288.46844  22422225.648                    22422233.570
 127207671.294 6  99123013.90043  24206848.086                    24206857.621
 117235331.125 7  91352238.58245  22309142.469                    22309151.129
 106192701.650 7  82747589.50246  20207799.195                    20207806.941
 112648873.418 7  87778370.23146  21436366.953                    21436373.605
 105342661.460 8  82085211.66246  20046042.406                    20046048.246
 11  8 26 15 22  0.0000000  0 10G10G03G08G07G16G20G06G13G19G23
 125729683.377 6  97971072.22444  23925525.570                    23925536.438
 109326849.451 8  85189786.18346  20804208.297                    20804217.012
 129915920.773 5 101233290.73342  24722191.227                    24722202.992
 119375156.119 7  93019621.355 7  22716336.141                    22716344.598
 117915855.904 7  91882514.16445  22438642.734                    22438650.621
 127293410.283 6  99189823.40943  24223163.328                    24223173.996
 117279773.170 7  91386868.72945  22317599.500                    22317608.531
 106161195.078 8  82723038.93746  20201803.781                    20201811.566
 112593566.094 7  87735273.64646  21425842.375                    21425849.285
 105366554.472 8  82103829.57746  20050589.641                    20050595.480
 11  8 26 15 22 30.0000000  0 10G10G03G08G07G16G20G06G13G19G23
 125723233.686 6  97966046.47343  23924298.477                    23924309.559
 109343124.153 8  85202467.75645  20807304.773                    20807313.727
 129852365.675 5 101183767.35142  24710097.289                    24710108.699
 119318305.172 7  92975321.969 7  22705517.469                    22705526.184
 118002237.781 7  91949824.70145  22455080.242                    22455088.340
 127379064.719 6  99256566.99943  24239463.156                    24239473.539
 117324725.898 7  91421896.80745  22326153.539                    22326162.953
 106130197.753 8  82698885.17746  20195904.984                    20195912.660
 112538735.877 8  87692548.81746  21415409.078                    21415415.453
 105391017.057 8  82122891.31846  20055244.594                    20055250.254
 11  8 26 15 23  0.0000000  0 10G10G03G08G07G16G20G06G13G19G23
 125717275.799 6  97961403.95244  23923165.070                    23923175.574
 109360026.018 8  85215638.03646  20810522.008                    20810529.918
 129788747.457 6 101134194.74542  24697991.734                    24698002.074
 119261458.440 7  92931025.855 7  22694699.836                    22694708.898
 118088726.256 7  92017218.27445  22471539.094                    22471546.902
 127464632.105 6  99323242.78043  24255746.328                    24255756.488
 117370188.215 7  91457321.97245  22334804.594                    22334813.855
 106099711.284 8  82675129.48946  20190103.813                    20190111.500
 112484384.918 8  87650197.43846  21405066.086                    21405072.457
 105416048.933 8  82142396.66046  20060007.945                    20060013.863
 11  8 26 15 23 30.0000000  0 10G10G03G08G07G16G20G06G13G19G23
 125711809.179 6  97957144.24543  23922124.930                    23922135.285
 109377554.689 8  85229296.72746  20813857.141                    20813865.930
 129725065.915 6 101084572.88043  24685871.391                    24685884.379
 119204616.336 7  92886733.361 7  22683883.211                    22683892.020
 118175319.267 7  92084693.32044  22488017.453                    22488024.887
 127550109.856 6  99389848.70043  24272011.609                    24272022.484
 117416158.415 7  91493142.89845  22343552.484                    22343562.117
 106069737.730 8  82651773.47546  20184399.828                    20184407.555
 112430516.064 8  87608221.73346  21394814.797                    21394821.848
 105441650.316 8  82162345.77746  20064879.875                    20064885.449
 11  8 26 15 24  0.0000000  0 10G10G03G08G07G16G20G06G13G19G23
 125706833.186 6  97953266.85044  23921177.547                    23921188.527
 109395709.590 8  85243443.40246  20817311.813                    20817320.246
 129661320.631 6 101034901.31442  24673741.773                    24673754.219
 119147778.987 7  92842444.559 7  22673067.008                    22673076.031
 118262014.309 7  92152247.86745  22504514.820                    22504522.637
 127635495.362 6  99456382.71643  24288260.344                    24288270.281
 117462635.601 7  91529358.85545  22352397.031                    22352405.617
 106040278.910 8  82628818.55146  20178794.164                    20178801.656
 112377131.660 8  87566623.50846  21384656.117                    21384662.539
 105467821.001 8  82182738.50946  20069859.719                    20069865.289
 11  8 26 15 24 30.0000000  0 10G10G03G08G07G16G20G06G13G19G23
 125702347.215 6  97949771.27943  23920323.875                    23920335.039
 109414490.306 8  85258077.71446  20820885.938                    20820894.281
 129597511.714 6 100985180.12542  24661599.438                    24661611.367
 119090946.893 7  92798159.859 6  22662252.484                    22662261.086
 118348809.449 7  92219880.40345  22521031.492                    22521038.875
 127720786.295 6  99522843.03843  24304491.016                    24304501.348
 117509618.030 7  91565968.51645  22361337.336                    22361346.727
 106011337.027 8  82606266.44546  20173286.609                    20173294.203
 112324234.251 8  87525404.76846  21374589.930                    21374596.863
 105494560.942 8  82203574.80846  20074948.414                    20074953.949
 11  8 26 15 25  0.0000000  0 10G10G03G08G07G16G20G06G13G19G23
 125698350.409 6  97946656.83943  23919563.555                    23919574.457
 109433896.646 8  85273199.53646  20824578.547                    20824587.016
 129533638.687 6 100935409.00443  24649444.867                    24649456.625
 119034120.129 7  92753879.315 7  22651438.664                    22651447.543
 118435702.147 7  92287588.96845  22537566.469                    22537574.238
 127805980.201 6  99589227.78243  24320703.422                    24320713.484
 117557104.422 7  91602970.86745  22370373.945                    22370382.949
 105982913.581 7  82584118.30846  20167877.766                    20167885.555
 112271826.321 8  87484567.43946  21364617.164                    21364624.016
 105521869.958 8  82224854.54746  20080145.008                    20080150.742
 11  8 26 15 25 30.0000000  0 10G10G03G08G07G16G20G06G13G19G23
 125694841.886 6  97943922.93843  23918895.969                    23918906.688
 109453927.673 8  85288808.11846  20828390.234                    20828399.324
 129469700.957 6 100885587.49043  24637278.008                    24637289.887
 118977298.938 7  92709603.099 7  22640625.977                    22640634.379
 118522690.367 7  92355371.95545  22554120.102                    22554127.426
 127891074.407 6  99655534.80943  24336895.828                    24336906.660
 117605093.006 7  91640364.53845  22379506.172                    22379515.066
 105955010.483 8  82562375.63146  20162568.102                    20162575.801
 112219910.138 8  87444113.29746  21354737.734                    21354744.715
 105549747.512 8  82246577.29546  20085449.844                    20085455.660
 11  8 26 15 26  0.0000000  0 10G10G03G08G07G16G20G06G13G19G23
 125691821.317 6  97941569.21543  23918320.586                    23918331.539
 109474583.054 8  85304903.22546  20832321.281                    20832329.613
 129405698.445 6 100835715.50443  24625099.219                    24625110.063
 118920483.920 7  92665331.684 7  22629814.109                    22629822.781
 118609772.090 7  92423227.80445  22570690.836                    22570698.605
 127976066.415 6  99721762.21043  24353069.547                    24353080.223
 117653582.612 7  91678148.61945  22388733.047                    22388742.145
 105927629.778 8  82541040.02546  20157357.555                    20157365.203
 112168488.701 8  87404044.66246  21344952.852                    21344959.328
 105578193.936 8  82268743.31746  20090863.203                    20090869.320
 11  8 26 15 26 30.0000000  0 10G10G03G08G07G16G20G06G13G19G23
 125689287.677 6  97939594.94043  23917838.945                    23917849.820
 109495862.236 8  85321484.40546  20836369.883                    20836378.844
 129341630.769 6 100785792.73843  24612907.320                    24612918.758
 118863675.315 7  92621065.290 7  22619004.281                    22619012.453
 118696945.090 7  92491154.77745  22587279.648                    22587287.301
 128060953.866 6  99787908.16043  24369223.477                    24369233.676
 117702571.800 7  91716321.97845  22398055.625                    22398064.559
 105900773.097 8  82520112.73846  20152247.219                    20152254.688
 112117564.205 8  87364363.26346  21335262.461                    21335268.961
 105607209.169 8  82291352.56546  20096384.602                    20096390.820
 11  8 26 15 27  0.0000000  0 10G10G03G08G07G16G20G06G13G19G23
 125687240.240 6  97937999.53444  23917448.992                    23917460.527
 109517764.163 8  85338550.84446  20840538.047                    20840546.695
 129277497.505 6 100735818.84443  24600702.766                    24600714.750
 118806873.102 7  92576803.852 6  22608194.688                    22608203.574
 118784206.962 7  92559151.00144  22603884.953                    22603892.918
 128145734.157 6  99853970.57543  24385356.039                    24385366.961
 117752058.790 7  91754883.23645  22407472.836                    22407481.645
 105874442.007 8  82499595.00646  20147236.297                    20147243.719
 112067139.043 8  87325070.94446  21325666.594                    21325673.359
 105636792.207 8  82314404.26046  20102013.891                    20102020.219
 11  8 26 15 27 30.0000000  0 10G10G03G08G07G16G20G06G13G19G23
 125685678.259 6  97936782.38743  23917151.992                    23917163.398
 109540288.432 8  85356102.22646  20844824.258                    20844832.746
 129213298.864 6 100685794.04843  24588485.813                    24588498.336
 118750078.029 7  92532547.964 6  22597387.258                    22597395.523
 118871555.991 7  92627215.14245  22620507.031                    22620514.809
 128230404.956 6  99919947.66443  24401468.531                    24401479.031
 117802042.277 7  91793831.38345  22416984.164                    22416993.191
 105848638.792 8  82479488.60546  20142326.188                    20142333.984
 112017215.597 8  87286169.57946  21316166.727                    21316172.895
 105666943.410 8  82337898.69046  20107751.773                    20107757.574
 11  8 26 15 28  0.0000000  0 10G10G03G08G07G16G20G06G13G19G23
 125684600.609 6  97935942.62943  23916946.813                    23916957.836
 109563434.446 8  85374138.07746  20849228.961                    20849237.367
 129149034.152 6 100635717.70943  24576256.781                    24576268.793
 118693289.886 7  92488297.510 7  22586580.516                    22586589.453
 118958989.508 7  92695345.11145  22637144.820                    22637152.715
 128314963.564 6  99985837.38443  24417559.109                    24417570.090
 117852520.398 7  91833164.95345  22426590.047                    22426598.902
 105823364.511 8  82459794.35946  20137516.719                    20137524.082
 111967796.202 8  87247660.97546  21306762.508                    21306768.871
 105697661.934 8  82361835.18346  20113597.102                    20113603.156
 11  8 26 15 28 30.0000000  0 10G10G03G08G07G16G20G06G13G19G23
 125684006.746 6  97935479.87744  23916833.414                    23916844.781
 109587201.665 7  85392657.98746  20853751.711                    20853760.074
 129084703.535 6 100585590.09343  24564014.852                    24564026.813
 118636509.800 7  92444053.328 7  22575775.836                    22575784.547
 119046505.828 7  92763539.60045  22653798.914                    22653806.793
 128399407.936 6 100051638.05243  24433629.367                    24433639.816
 117903492.282 7  91872883.28145  22436289.625                    22436298.801
 105798621.851 8  82440514.36146  20132808.266                    20132815.738
 111918883.817 8  87209547.44846  21297454.648                    21297461.070
 105728948.250 8  82386214.11346  20119550.992                    20119557.023
 11  8 26 15 29  0.0000000  0 10G10G03G08G07G16G20G06G13G19G23
 125683895.655 6  97935393.30344  23916812.898                    23916823.492
 109611589.324 8  85411661.35946  20858392.625                    20858401.324
 129020306.519 6 100535410.67443  24551760.859                    24551772.363
 118579737.835 7  92399815.478 7  22564972.172                    22564980.758
 119134102.530 7  92831796.72344  22670467.852                    22670475.918
 128483735.484 6 100117347.70243  24449676.641                    24449686.715
 117954956.053 7  91912984.89245  22446082.719                    22446092.336
 105774412.147 8  82421649.66046  20128201.375                    20128209.125
 111870480.508 8  87171830.60646  21288243.852                    21288250.109
 105760801.628 8  82411034.91046  20125612.133                    20125618.258
 11  8 26 15 29 30.0000000  0 10G10G03G08G07G16G20G06G13G19G23
 125684266.041 6  97935681.90344  23916883.328                    23916894.117
 109636595.923 8  85431147.01645  20863151.242                    20863159.609
 128955842.484 6 100485179.04543  24539493.383                    24539505.145
 118522973.754 7  92355583.772 7  22554170.641                    22554179.320
 119221777.762 7  92900115.03544  22687151.938                    22687160.328
 128567943.585 6 100182964.27643  24465700.711                    24465711.117
 118006909.830 7  91953468.32845  22455969.328                    22455978.656
 105750736.341 8  82403200.97046  20123696.344                    20123703.922
 111822588.264 8  87134511.98546  21279129.961                    21279136.453
 105793221.390 8  82436297.03346  20131781.344                    20131787.668
 11  8 26 15 30  0.0000000  0 10G10G03G08G07G16G20G06G13G19G23
 125685117.649 6  97936345.49544  23917045.648                    23917056.484
 109662221.682 8  85451115.14646  20868027.758                    20868036.406
 128891311.689 6 100434895.39443  24527213.375                    24527225.164
 118466218.675 7  92311359.066 7  22543370.563                    22543378.672
 119309529.129 7  92968492.67544  22703850.680                    22703858.512
 128652029.956 6 100248486.02342  24481702.016                    24481711.715
 118059352.282 7  91994332.54145  22465948.688                    22465958.289
 105727596.824 8  82385170.17946  20119292.828                    20119300.383
 111775209.637 8  87097593.59146  21270114.273                    21270120.410
 105826207.690 8  82462000.63846  20138058.602                    20138064.699
 11  8 26 15 30 30.0000000  0 10G10G03G08G07G16G20G06G13G19G23
 125686449.356 6  97937383.18444  23917299.266                    23917309.508
 109688465.537 8  85471564.90145  20873021.383                    20873030.066
 128826713.676 6 100384559.40443  24514921.273                    24514932.309
 118409472.680 7  92267141.450 7  22532571.734                    22532580.539
 119397354.833 7  93036928.22845  22720563.359                    22720570.965
 128735992.337 6 100313911.13442  24497679.297                    24497690.016
 118112281.721 7  92035576.23145  22476021.195                    22476029.742
 105704995.332 8  82367558.61846  20114991.883                    20114999.559
 111728346.824 8  87061077.13346  21261196.492                    21261202.938
 105859759.736 8  82488145.06246  20144443.172                    20144448.902
 11  8 26 15 31  0.0000000  0 10G10G03G08G07G16G20G06G13G19G23
 125688260.135 6  97938794.15243  23917643.219                    23917654.219
 109715326.609 8  85492495.59745  20878133.125                    20878141.398
 128762048.356 6 100334170.91443  24502615.188                    24502627.039
 118352736.292 7  92222931.317 7  22521775.461                    22521784.180
 119485252.743 7  93105420.06744  22737289.828                    22737297.895
 128819828.274 5 100379237.66942  24513632.211                    24513643.414
 118165696.645 7  92077198.23145  22486185.164                    22486194.555
 105682933.384 8  82350367.47546  20110793.914                    20110801.309
 111682002.299 8  87024964.52246  21252377.734                    21252384.293
 105893877.382 8  82514730.22246  20150935.828                    20150941.965
 11  8 26 15 31 30.0000000  0 10G10G03G08G07G16G20G06G13G19G23
 125690548.719 6  97940577.44443  23918079.000                    23918089.664
 109742803.711 8  85513906.32446  20883361.703                    20883370.336
 128697314.561 6 100283729.12943  24490297.227                    24490307.945
 118296009.535 7  92178728.698 7  22510980.242                    22510989.344
 119573220.741 7  93173966.51644  22754029.703                    22754037.367
 128903535.345 6 100444463.76242  24529561.477                    24529573.137
 118219594.996 7  92119196.91745  22496441.938                    22496450.996
 105661412.164 8  82333597.68947  20106698.289                    20106705.926
 111636178.119 8  86989257.37946  21243657.359                    21243663.793
 105928559.469 8  82541755.20746  20157535.695                    20157541.410
 11  8 26 15 32  0.0000000  0 10G10G03G08G07G16G20G06G13G19G23
 125693314.179 6  97942732.36943  23918605.133                    23918616.418
 109770896.059 7  85535796.45045  20888707.250                    20888716.176
 128632512.741 6 100233234.27043  24477965.906                    24477977.430
 118239292.885 7  92134533.950 7  22500187.445                    22500196.188
 119661256.817 7  93242566.00744  22770782.023                    22770790.105
 128987110.876 6 100509587.45142  24545465.906                    24545476.629
 118273975.125 7  92161571.02744  22506790.281                    22506799.500
 105640433.317 8  82317250.52546  20102706.250                    20102713.953
 111590876.633 8  86953957.53746  21235036.492                    21235043.266
 105963805.817 8  82569219.87646  20164242.914                    20164248.656
 11  8 26 15 32 30.0000000  0 10G10G03G08G07G16G20G06G13G19G23
 125696555.957 6  97945258.40244  23919222.375                    23919233.188
 109799603.090 8  85558165.55945  20894170.484                    20894178.566
 128567642.954 6 100182686.46543  24465620.750                    24465632.324
 118182587.273 7  92090347.812 7  22489396.992                    22489405.609
 119749358.595 7  93311216.68944  22787547.672                    22787555.496
 129070552.893 6 100574606.99543  24561344.711                    24561355.852
 118328835.714 7  92204319.50845  22517230.008                    22517238.973
 105619998.910 8  82301327.60946  20098817.805                    20098825.266
 111546100.306 8  86919066.89546  21226516.313                    21226522.895
 105999616.530 8  82597124.29946  20171057.492                    20171063.441
 11  8 26 15 33  0.0000000  0 10G10G03G08G07G16G20G06G13G19G23
 125700272.672 6  97948154.52443  23919929.242                    23919940.086
 109828923.581 8  85581012.68845  20899749.578                    20899758.133
 128502704.892 6 100132085.46143  24453263.789                    24453275.457
 118125892.872 7  92046170.403 7  22478608.359                    22478617.246
 119837524.435 7  93379917.29444  22804324.898                    22804332.598
 129153858.798 6 100639520.53643  24577197.516                    24577207.973
 118384175.105 7  92247441.09745  22527760.672                    22527769.730
 105600110.581 8  82285830.19746  20095033.172                    20095040.426
 111501851.169 8  86884587.06546  21218095.539                    21218102.301
 106035990.662 8  82625467.76046  20177979.250                    20177985.379
 11  8 26 15 33 30.0000000  0 10G10G03G08G07G16G20G06G13G19G23
 125704462.890 6  97951419.61843  23920726.852                    23920737.727
 109858856.678 7  85604337.16245  20905446.031                    20905454.637
 128437698.332 6 100081431.12343  24440892.922                    24440904.918
 118069210.025 7  92002001.989 7  22467821.703                    22467830.805
 119925752.221 7  93448666.17544  22821114.094                    22821122.109
 129237026.624 6 100704326.47343  24593023.688                    24593034.930
 118439991.104 7  92290934.05544  22538381.813                    22538391.148
 105580769.561 8  82270759.27146  20091352.891                    20091360.043
 111458131.259 8  86850519.62346  21209776.141                    21209783.152
 106072927.742 8  82654249.87646  20185008.055                    20185014.438
 11  8 26 15 34  0.0000000  0 10G10G03G08G07G16G20G06G13G19G23
 125709125.994 6  97955053.16843  23921614.281                    23921624.895
 109889401.466 8  85628138.29245  20911258.055                    20911267.180
 128372623.264 6 100030723.36043  24428510.016                    24428520.969
 118012539.244 7  91957842.989 7  22457037.805                    22457046.352
 120014039.766 7  93517461.61844  22837914.445                    22837922.867
 129320053.994 6 100769022.97343  24608823.758                    24608834.594
 118496282.367 7  92334797.35445  22549094.078                    22549103.086
 105561977.567 8  82256116.15046  20087776.664                    20087784.363
 111414942.791 8  86816866.28546  21201557.680                    21201564.195
 106110427.317 8  82683470.30746  20192143.930                    20192150.000
 11  8 26 15 34 30.0000000  0 10G10G03G08G07G16G20G06G13G19G23
 125714260.601 6  97959054.16843  23922590.563                    23922602.176
 109920556.460 8  85652414.89445  20917187.008                    20917195.629
 128307479.106 6  99979961.75943  24416113.016                    24416124.074
 117955880.975 7  91913693.723 7  22446256.289                    22446265.383
 120102385.131 7  93586302.13244  22854726.297                    22854734.418
 129402938.066 6 100833607.83244  24624596.039                    24624607.375
 118553046.743 7  92379029.30244  22559896.367                    22559905.156
 105543735.576 8  82241901.60646  20084305.297                    20084313.129
 111372287.661 8  86783628.52946  21193440.453                    21193447.266
 106148488.251 8  82713128.15246  20199386.742                    20199392.711
 11  8 26 15 35  0.0000000  0 10G10G03G08G07G16G20G06G13G19G23
 125719865.797 6  97963421.82244  23923657.750                    23923669.129
 109952320.979 7  85677166.45245  20923231.688                    20923240.695
 128242265.686 6  99929146.20243  24403703.625                    24403715.125
 117899235.328 7  91869554.306 7  22435476.672                    22435484.973
 120190786.626 7  93655186.35844  22871548.516                    22871556.438
 129485676.715 6 100898079.34043  24640341.008                    24640352.078
 118610282.798 7  92423628.80844  22570787.367                    22570796.574
 105526045.453 8  82228117.09346  20080938.969                    20080946.211
 111330168.362 8  86750808.31646  21185425.938                    21185432.457
 106187110.112 8  82743223.08346  20206736.141                    20206742.461
 11  8 26 15 35 30.0000000  0 10G10G03G08G07G16G20G06G13G19G23
 125725940.560 6  97968155.38544  23924814.180                    23924824.789
 109984693.858 7  85702392.06845  20929392.031                    20929400.563
 128176983.168 6  99878276.80343  24391280.914                    24391291.988
 117842603.288 7  91825425.484 7  22424699.391                    22424708.719
 120279241.826 7  93724112.45544  22888381.461                    22888389.086
 129568267.730 6 100962435.83343  24656057.008                    24656068.984
 118667988.609 7  92468594.35044  22581768.633                    22581777.434
 105508908.759 8  82214763.81346  20077677.883                    20077685.355
 111288586.906 8  86718407.19946  21177512.781                    21177519.250
 106226292.424 8  82773754.72846  20214192.430                    20214198.848
 11  8 26 15 36  0.0000000  0 10G10G03G08G07G16G20G06G13G19G23
 125732483.608 6  97973253.88143  23926058.469                    23926069.660
 110017674.293 7  85728091.08945  20935667.602                    20935676.656
 128111631.072 6  99827353.15543  24378844.297                    24378855.547
 117785985.215 7  91781307.528 7  22413925.883                    22413934.602
 120367749.144 7  93793079.15144  22905223.727                    22905231.277
 129650708.597 6 101026675.29943  24671745.344                    24671757.133
 118726162.349 7  92513924.51944  22592838.672                    22592847.859
 105492326.707 8  82201842.72046  20074522.859                    20074530.207
 111247545.259 8  86686426.70946  21169702.797                    21169709.621
 106266034.104 8  82804722.24346  20221754.977                    20221761.027
 11  8 26 15 36 30.0000000  0 10G10G03G08G07G16G20G06G13G19G23
 125739493.455 6  97978716.09843  23927392.891                    23927404.008
 110051260.621 7  85754262.24845  20942058.930                    20942067.715
 128046209.125 6  99776375.09743  24366395.008                    24366405.957
 117729381.540 7  91737200.818 7  22403154.547                    22403163.391
 120456306.301 7  93862084.69544  22922075.383                    22922083.441
 129732997.433 5 101090796.29442  24687404.633                    24687416.301
 118784802.165 7  92559617.86644  22603997.875                    22604006.691
 105476300.666 8  82189354.89146  20071473.031                    20071480.445
 111207045.601 8  86654868.55646  21161995.852                    21162002.668
 106306334.899 8  82836125.44046  20229423.961                    20229430.125
 11  8 26 15 37  0.0000000  0 10G10G03G08G07G16G20G06G13G19G23
 125746969.278 6  97984541.40143  23928815.391                    23928826.305
 110085452.056 8  85780904.90745  20948565.742                    20948573.930
 127980717.531 6  99725342.82143  24353932.023                    24353943.590
 117672792.919 7  91693105.816 7  22392386.219                    22392394.156
 120544911.609 7  93931127.75344  22938936.461                    22938944.281
 129815132.023 6 101154797.11442  24703033.375                    24703046.012
 118843906.430 7  92605673.10544  22615244.547                    22615254.031
 105460832.408 8  82177301.69546  20068529.625                    20068537.039
 111167089.844 8  86623734.21346  21154392.664                    21154399.457
 106347194.141 8  82867963.78546  20237199.547                    20237205.590
 11  8 26 15 37 30.0000000  0 10G10G03G08G07G16G20G06G13G19G23
 125754909.781 6  97990728.78043  23930326.703                    23930337.477
 110120247.256 8  85808018.03145  20955186.867                    20955195.414
 127915156.037 6  99674256.01143  24341456.117                    24341467.457
 117616219.794 7  91649022.877 7  22381620.398                    22381628.996
 120633563.031 7  94000206.73144  22955806.398                    22955814.000
 129897109.705 6 101218675.65442  24718634.125                    24718645.969
 118903472.965 7  92652088.56345  22626579.711                    22626588.844
 105445922.981 8  82165683.94946  20065692.422                    20065699.547
 111127679.933 8  86593025.20846  21146893.406                    21146899.676
 106388610.523 8  82900236.26146  20245080.656                    20245086.617
 11  8 26 15 38  0.0000000  0 10G10G03G08G07G16G20G06G13G19G23
 125763313.448 6  97997277.07443  23931925.375                    23931936.305
 110155645.146 8  85835600.79245  20961922.813                    20961931.430
 127849524.464 6  99623114.63343  24328967.086                    24328978.289
 117559662.643 7  91604952.398 7  22370857.852                    22370866.531
 120722258.516 7  94069320.04744  22972684.617                    22972692.434
 129978928.126 5 101282430.04942  24734203.531                    24734215.254
 118963500.047 7  92698862.87744  22638002.742                    22638011.586
 105431573.637 8  82154502.63346  20062961.531                    20062969.324
 111088818.069 8  86562743.24646  21139498.133                    21139504.805
 106430583.392 8  82932942.37246  20253067.766                    20253074.109
 11  8 26 15 38 30.0000000  0 10G10G03G08G07G16G20G06G13G19G23
 125772179.303 6  98004185.53343  23933613.031                    23933623.824
 110191644.488 8  85863652.20845  20968773.508                    20968782.004
 127783822.793 6  99571918.60643  24316464.180                    24316475.352
 117503122.027 7  91560894.792 7  22360098.945                    22360106.867
 120810996.508 7  94138466.48644  22989570.883                    22989578.809
 130060585.314 6 101346058.91442  24749742.773                    24749755.098
 119023985.690 7  92745994.51944  22649512.805                    22649521.785
 105417786.108 8  82143759.09846  20060337.555                    20060345.473
 111050506.093 8  86532889.77246  21132207.625                    21132213.859
 106473112.274 8  82966081.72546  20261160.922                    20261167.066
 11  8 26 15 39  0.0000000  0 10G10G03G08G07G16G20G06G13G19G23
 125781505.803 6  98011452.94244  23935387.391                    23935398.887
 110228243.748 8  85892171.09245  20975738.047                    20975746.645
 127718050.688 6  99520667.68243  24303948.422                    24303958.898
 117446598.440 7  91516850.479 7  22349342.398                    22349350.961
 120899774.775 7  94207644.31044  23006464.742                    23006473.055
 130142078.906 6 101409560.24142  24765251.242                    24765262.313
 119084928.234 7  92793482.17745  22661110.203                    22661118.453
 105404561.315 8  82133454.05246  20057821.336                    20057828.969
 111012745.821 8  86503466.19546  21125022.039                    21125028.359
 106516196.237 8  82999653.61346  20269359.461                    20269365.430
 11  8 26 15 39 30.0000000  0 10G10G03G08G07G16G20G06G13G19G23
 125791291.673 6  98019078.25444  23937250.586                    23937261.039
 110265441.532 8  85921156.36645  20982816.406                    20982824.961
 127652208.079 6  99469361.87743  24291418.828                    24291429.719
 117390092.436 7  91472819.866 7  22338589.836                    22338598.203
 120988591.359 7  94276851.98844  23023366.016                    23023374.461
 130223406.661 6 101472932.45342  24780727.039                    24780738.496
 119146325.514 7  92841324.18945  22672793.250                    22672802.430
 105391900.630 8  82123588.57946  20055412.133                    20055419.453
 110975538.948 8  86474473.83346  21117941.617                    21117948.254
 106559834.341 8  83033657.30246  20277663.273                    20277669.656
 11  8 26 15 40  0.0000000  0  9G10G03G08G07G16G06G13G19G23
 125801534.799 6  98027059.90843  23939199.234                    23939210.242
 110303236.034 8  85950606.60145  20990009.078                    20990017.164
 127586294.261 6  99418000.53143  24278875.617                    24278886.758
 117333603.726 7  91428802.712 7  22327840.281                    22327849.145
 121077443.630 7  94346087.47744  23040274.641                    23040282.535
 119208174.960 7  92889518.54045  22684562.844                    22684571.996
 105379804.612 8  82114163.10346  20053110.000                    20053117.969
 110938887.098 8  86445913.96246  21110967.211                    21110973.848
 106604024.861 8  83068091.45246  20286072.688                    20286078.781
 11  8 26 15 40 30.0000000  0  9G10G03G08G07G16G06G13G19G23
 125812234.740 6  98035397.50544  23941235.305                    23941246.180
 110341626.718 8  85980521.39845  20997314.156                    20997322.617
 127520309.714 6  99366584.06343  24266319.164                    24266330.063
 117277133.657 7  91384800.094 7  22317094.367                    22317103.016
 121166330.735 7  94415350.09244  23057188.789                    23057197.352
 119270475.312 7  92938064.24245  22696418.094                    22696427.801
 105368275.238 8  82105179.16746  20050916.242                    20050924.012
 110902792.786 8  86417788.53246  21104098.992                    21104105.375
 106648767.726 8  83102955.98746  20294586.969                    20294593.281
 11  8 26 15 41  0.0000000  0  9G10G03G08G07G16G06G13G19G23
 125823389.786 6  98044089.73544  23943357.922                    23943368.656
 110380611.946 8  86010899.47545  21004732.875                    21004741.621
 127454254.201 6  99315112.33243  24253749.016                    24253760.191
 117220682.751 7  91340812.405 7  22306351.852                    22306360.664
 121255250.579 7  94484638.24244  23074110.188                    23074118.137
 119333224.984 7  92986960.07044  22708358.984                    22708368.355
 105357313.570 8  82096637.60446  20048830.406                    20048837.832
 110867257.599 8  86390098.78646  21097336.617                    21097343.176
 106694061.942 8  83138250.15446  20303206.195                    20303212.094
 11  8 26 15 41 30.0000000  0  9G10G03G08G07G16G06G13G19G23
 125834998.876 6  98053135.78444  23945566.969                    23945577.926
 110420190.438 8  86041739.84145  21012264.320                    21012272.977
 127388128.055 6  99263585.54343  24241165.727                    24241176.438
 117164251.952 8  91296840.361 7  22295613.758                    22295622.328
 121344201.221 7  94553950.38744  23091036.883                    23091044.934
 119396421.206 7  93036203.85244  22720384.813                    22720394.156
 105346920.883 8  82088539.39746  20046852.563                    20046860.070
 110832283.557 8  86362846.29646  21090681.266                    21090687.859
 106739906.789 8  83173973.38946  20311930.117                    20311936.234
 11  8 26 15 42  0.0000000  0  9G10G03G08G07G16G06G13G19G23
 125847060.339 6  98062534.28544  23947862.117                    23947873.203
 110460360.834 8  86073041.42345  21019908.633                    21019917.309
 127321930.743 6  99212003.30243  24228568.539                    24228580.148
 117107841.428 7  91252884.145 7  22284878.930                    22284887.594
 121433180.684 7  94623284.98444  23107969.133                    23107977.094
 119460062.395 7  93085794.36145  22732495.500                    22732504.660
 105337098.000 8  82080885.20246  20044983.516                    20044991.156
 110797871.954 8  86336032.07346  21084132.844                    21084139.156
 106786300.861 8  83210124.58346  20320758.727                    20320764.512
 11  8 26 15 42 30.0000000  0  9G10G03G08G07G16G06G13G19G23
 125859573.038 6  98072284.43344  23950242.875                    23950254.594
 110501121.955 8  86104803.32245  21027664.891                    21027673.969
 127255663.049 6  99160366.22243  24215958.602                    24215969.453
 117051452.395 7  91208944.658 7  22274148.539                    22274157.355
 121522187.766 7  94692641.09844  23124906.484                    23124914.566
 119524146.913 7  93135730.31644  22744689.859                    22744699.227
 105327847.058 8  82073676.66846  20043223.156                    20043230.934
 110764025.475 8  86309658.20846  21077692.102                    21077698.613
 106833243.605 8  83246703.31946  20329691.789                    20329697.746
 11  8 26 15 43  0.0000000  0  9G10G03G08G07G16G06G13G19G23
 125872535.321 6  98082384.91744  23952709.938                    23952721.117
 110542472.314 8  86137024.36045  21035534.211                    21035542.758
 127189324.218 6  99108673.68143  24203334.656                    24203345.152
 116995085.028 7  91165022.059 7  22263422.094                    22263430.605
 121611220.313 7  94762017.04844  23141848.539                    23141857.047
 119588672.410 7  93186009.89645  22756969.320                    22756978.301
 105319168.479 8  82066914.13746  20041571.703                    20041579.617
 110730745.326 7  86283725.63446  21071359.055                    21071365.590
 106880733.724 8  83283708.58546  20338728.836                    20338734.902
 11  8 26 15 43 30.0000000  0 10G10G03G08G11G07G16G06G13G19G23
 125885945.722 6  98092834.54644  23955261.930                    23955273.055
 110584410.274 8  86169703.26345  21043514.617                    21043522.996
 127122914.227 6  99056925.76343  24190697.156                    24190708.184
 130243365.67216 101488376.90452  24784487.297                    24784498.914
 116938740.000 7  91121116.893 7  22252700.063                    22252708.133
 121700276.478 7  94831411.41944  23158795.688                    23158803.949
 119653636.882 7  93236631.53844  22769331.344                    22769340.891
 105311063.417 8  82060598.49446  20040029.336                    20040036.895
 110698033.361 8  86258235.79146  21065134.484                    21065140.875
 106928770.141 8  83321139.53446  20347869.836                    20347875.922
 11  8 26 15 44  0.0000000  0 10G10G03G08G11G07G16G06G13G19G23
 125899803.373 6  98103632.70144  23957898.969                    23957910.074
 110626934.868 8  86202839.28045  21051606.539                    21051615.324
 127056433.860 6  99005122.94243  24178046.055                    24178056.418
 130170555.385 6 101431641.61643  24770632.813                    24770643.922
 116882418.456 7  91077230.004 7  22241982.234                    22241990.871
 121789355.386 7  94900823.50544  23175746.773                    23175754.902
 119719038.778 7  93287594.01645  22781777.008                    22781786.805
 105303533.574 8  82054731.07246  20038596.570                    20038604.117
 110665891.647 8  86233190.30846  21059018.055                    21059024.453
 106977352.623 8  83358995.99146  20357114.773                    20357121.027
 11  8 26 15 44 30.0000000  0 10G10G03G08G11G07G16G06G13G19G23
 125914106.669 7  98114778.08843  23960621.758                    23960632.055
 110670044.119 8  86236430.88845  21059809.969                    21059818.688
 126989882.715 7  98953264.98843  24165381.984                    24165392.598
 130097583.363 6 101374780.33043  24756746.219                    24756757.340
 116826121.084 7  91033361.953 7  22231269.383                    22231278.547
 121878454.236 7  94970251.13744  23192702.109                    23192710.301
 119784875.880 7  93338895.62044  22794305.375                    22794314.926
 105296579.650 8  82049312.42246  20037273.500                    20037280.840
 110634321.680 8  86208590.35146  21053010.375                    21053016.844
 107026479.716 8  83397276.82146  20366463.406                    20366469.242
 11  8 26 15 45  0.0000000  0 10G10G03G08G11G07G16G06G13G19G23
 125928853.696 7  98126269.26444  23963427.352                    23963438.020
 110713736.216 8  86270476.65945  21068124.227                    21068133.227
 126923260.113 6  98901351.35543  24152703.359                    24152714.750
 130024451.268 6 101317794.31443  24742829.813                    24742841.434
 116769847.837 7  90989512.696 7  22220560.766                    22220568.980
 121967571.448 7  95039693.06544  23209660.211                    23209668.023
 119851145.810 7  93390534.50045  22806916.578                    22806926.148
 105290202.395 8  82044343.13046  20036059.336                    20036067.238
 110603324.433 8  86184436.66746  21047111.633                    21047118.324
 107076149.659 8  83435980.65546  20375915.047                    20375921.137
 11  8 26 15 45 30.0000000  0 10G10G03G08G11G07G16G06G13G19G23
 125944042.788 7  98138104.89143  23966317.508                    23966328.406
 110758009.739 8  86304975.48045  21076548.930                    21076557.684
 126856566.490 6  98849382.36943  24140012.477                    24140023.027
 129951161.391 6 101260685.35142  24728883.320                    24728894.770
 116713599.512 7  90945682.862 7  22209857.219                    22209865.805
 122056705.103 7  95109147.82544  23226622.063                    23226630.281
 119917846.327 7  93442508.89745  22819609.281                    22819618.582
 105284402.806 8  82039823.96146  20034955.945                    20034963.129
 110572901.983 8  86160730.87146  21041322.375                    21041328.910
 107126361.705 8  83475106.89646  20385470.539                    20385476.453
 11  8 26 15 46  0.0000000  0 10G10G03G08G11G07G16G06G13G19G23
 125959672.318 6  98150283.75143  23969291.250                    23969302.469
 110802862.792 8  86339925.89645  21085084.617                    21085093.375
 126789801.454 6  98797357.76144  24127307.508                    24127318.383
 129877715.772 6 101203455.03943  24714907.000                    24714918.496
 116657376.902 7  90901873.083 7  22199158.516                    22199166.902
 122145853.306 7  95178613.91044  23243585.930                    23243594.301
 119984975.579 7  93494817.36544  22832383.742                    22832392.172
 105279181.913 8  82035755.73246  20033962.992                    20033969.844
 110543055.898 8  86137474.18846  21035642.758                    21035649.277
 107177114.255 8  83514654.31646  20395128.430                    20395134.465
 11  8 26 15 46 30.0000000  0 11G10G03G08G11G07G16G28G06G13G19G23
 125975740.650 7  98162804.50543  23972349.352                    23972360.184
 110848293.942 8  86375326.77445  21093729.547                    21093738.320
 126722965.088 6  98745277.54544  24114589.297                    24114599.559
 129804116.823 6 101146105.25943  24700901.102                    24700912.559
 116601180.656 7  90858083.830 7  22188464.430                    22188473.078
 122235014.857 7  95248090.38444  23260552.805                    23260561.457
 129689699.10216 101056991.51853  24679139.523                    24679149.895
 120052531.093 7  93547457.98144  22845238.805                    22845248.168
 105274540.569 8  82032139.09046  20033079.531                    20033087.301
 110513787.484 8  86114667.64946  21030073.055                    21030080.105
 107228406.569 8  83554622.33146  20404888.852                    20404894.969
 11  8 26 15 47  0.0000000  0 11G10G03G08G11G07G16G28G06G13G19G23
 125992246.537 6  98175666.18743  23975489.766                    23975501.152
 110894302.150 8  86411177.29945  21102484.766                    21102493.727
 126656058.007 7  98693142.25344  24101856.563                    24101867.215
 129730366.988 6 101088637.86043  24686867.133                    24686879.047
 116545011.985 7  90814316.079 7  22177775.930                    22177783.992
 122324188.123 6  95317576.00244  23277522.383                    23277530.402
 129617350.611 6 101000616.09843  24665372.125                    24665382.809
 120120511.382 7  93600429.60244  22858175.070                    22858184.488
 105270479.914 8  82028974.94246  20032306.523                    20032313.938
 110485098.597 7  86092312.67846  21024613.922                    21024620.195
 107280237.628 8  83595010.14646  20414752.172                    20414758.375
 11  8 26 15 47 30.0000000  0 11G10G03G08G11G07G16G28G06G13G19G23
 126009188.590 7  98188867.76844  23978714.781                    23978725.938
 110940885.213 8  86447475.77445  21111349.086                    21111357.977
 126589080.114 7  98640951.75843  24089111.398                    24089122.055
 129656469.034 6 101031055.08743  24672804.773                    24672816.586
 116488871.466 7  90770570.226 7  22167092.914                    22167101.184
 122413370.972 6  95387069.09044  23294493.141                    23294501.078
 129545216.869 6 100944407.99743  24651645.078                    24651656.254
 120188914.378 7  93653730.58844  22871191.766                    22871201.137
 105267001.489 8  82026264.47346  20031644.648                    20031652.352
 110456991.137 7  86070410.77846  21019265.344                    21019272.090
 107332606.186 8  83635816.79246  20424717.250                    20424723.320
 11  8 26 15 48  0.0000000  0 11G10G03G08G11G07G16G28G06G13G19G23
 126026564.552 7  98202407.44943  23982020.734                    23982032.195
 110988041.117 8  86484220.61145  21120323.141                    21120331.676
 126522030.715 7  98588705.56543  24076351.703                    24076362.984
 129582424.001 6 100973357.70343  24658714.719                    24658726.008
 116432759.063 7  90726846.327 7  22156414.484                    22156423.227
 122502561.358 7  95456568.02044  23311465.375                    23311473.840
 129473297.557 6 100888367.02943  24637959.234                    24637970.199
 120257737.331 7  93707358.83244  22884288.578                    22884297.508
 105264104.964 8  82024007.43746  20031093.711                    20031100.555
 110429465.845 8  86048962.51946  21014027.336                    21014034.051
 107385510.338 8  83677040.78846  20434784.586                    20434790.617
 11  8 26 15 48 30.0000000  0 11G10G03G08G11G07G16G28G06G13G19G23
 126044372.674 7  98216283.88243  23985409.656                    23985420.754
 111035768.114 8  86521410.45145  21129405.078                    21129413.609
 126454910.176 7  98536403.92743  24063579.164                    24063590.559
 129508234.351 6 100915547.60243  24644597.000                    24644607.707
 116376675.748 7  90683145.059 7  22145742.617                    22145751.004
 122591758.302 6  95526072.06144  23328439.883                    23328447.691
 129401593.378 6 100832493.65643  24624314.164                    24624325.484
 120326978.006 7  93761312.57544  22897464.320                    22897473.516
 105261791.328 8  82022204.60646  20030653.313                    20030661.066
 110402523.979 7  86027968.86846  21008900.688                    21008906.859
 107438948.912 8  83718681.20846  20444953.516                    20444959.641
 11  8 26 15 49  0.0000000  0 11G10G03G08G11G07G16G28G06G13G19G23
 126062611.341 7  98230495.81443  23988879.969                    23988891.074
 111084064.491 8  86559043.97845  21138595.938                    21138604.031
 126387718.419 6  98484046.80643  24050793.781                    24050804.590
 129433902.491 6 100857626.71843  24630451.742                    24630463.547
 116320622.230 8  90639467.030 7  22135076.242                    22135084.336
 122680959.164 7  95595579.17644  23345413.758                    23345422.227
 129330104.906 6 100776788.36143  24610710.547                    24610721.637
 120396634.338 7  93815590.19344  22910719.617                    22910728.730
 105260061.527 8  82020856.70646  20030324.352                    20030331.781
 110376167.221 8  86007431.15246  21003884.859                    21003891.484
 107492920.655 8  83760737.09046  20455224.055                    20455230.363
 11  8 26 15 49 30.0000000  0 11G10G03G08G11G07G16G28G06G13G19G23
 126081278.955 6  98245041.96743  23992432.586                    23992444.250
 111132928.930 8  86597120.14545  21147894.328                    21147902.906
 126320455.060 6  98431633.88243  24037992.758                    24038003.820
 129359430.761 6 100799596.85342  24616279.883                    24616292.207
 116264599.042 7  90595812.626 7  22124415.008                    22124423.188
 122770162.456 7  95665088.16244  23362388.586                    23362396.957
 129258832.102 7 100721251.10543  24597148.563                    24597159.027
 120466704.075 7  93870189.95544  22924053.305                    22924062.445
 105258916.217 8  82019964.25246  20030105.969                    20030113.699
 110350396.751 8  85987350.27246  20998980.883                    20998987.516
 107547423.960 8  83803207.17446  20465595.672                    20465602.266
 11  8 26 15 50  0.0000000  0 11G10G03G08G11G07G16G28G06G13G19G23
 126100373.998 7  98259921.22444  23996066.688                    23996077.234
 111182359.317 8  86635637.30945  21157300.320                    21157308.906
 126253120.742 6  98379165.64843  24025179.180                    24025190.227
 129284821.619 6 100741459.89342  24602082.164                    24602094.039
 116208607.264 7  90552182.698 7  22113760.023                    22113768.633
 122859366.818 7  95734597.99344  23379363.852                    23379371.926
 129187775.661 6 100665882.46143  24583625.766                    24583636.828
 120537185.061 7  93925110.16744  22937465.789                    22937474.805
 105258356.656 8  82019528.22646  20029999.789                    20030006.773
 110325214.170 8  85967727.49346  20994188.492                    20994195.195
 107602457.851 8  83846090.70046  20476068.227                    20476074.902
 11  8 26 15 50 30.0000000  0 11G10G03G08G11G07G16G28G06G13G19G23
 126119894.510 7  98275131.97043  23999780.539                    23999792.293
 111232353.551 8  86674593.84045  21166814.352                    21166822.387
 126185715.305 6  98326642.02943  24012353.414                    24012364.012
 129210077.192 6 100683217.51643  24587859.438                    24587870.238
 116152647.620 7  90508577.800 7  22103111.469                    22103119.777
 122948570.595 7  95804107.37944  23396338.875                    23396347.316
 129116935.910 6 100610682.67343  24570145.828                    24570156.949
 120608075.189 7  93980349.19044  22950955.555                    22950964.938
 105258383.227 8  82019548.91846  20030004.875                    20030011.926
 110300620.546 8  85948563.64946  20989508.906                    20989515.695
 107658020.825 8  83889386.49746  20486641.844                    20486647.996
 11  8 26 15 51  0.0000000  0 11G10G03G08G11G07G16G28G06G13G19G23
 126139838.868 7  98290673.00843  24003576.742                    24003587.223
 111282910.551 8  86713988.88045  21176434.953                    21176443.473
 126118239.030 6  98274063.19843  23999512.359                    23999522.777
 129135199.995 6 100624871.73343  24573610.344                    24573621.895
 116096721.201 7  90464998.816 7  22092468.984                    22092477.020
 123037772.265 6  95873615.10744  23413313.586                    23413322.117
 129046313.457 6 100555652.21143  24556706.938                    24556717.438
 120679372.279 7  94035905.32444  22964521.922                    22964531.688
 105258997.138 8  82020027.28446  20030121.773                    20030128.984
 110276617.860 8  85929860.26446  20984941.203                    20984947.734
 107714111.755 8  83933093.69046  20497315.453                    20497321.855
 11  8 26 15 51 30.0000000  0 11G10G03G08G11G07G16G28G06G13G19G23
 126160205.197 7  98306542.85243  24007451.969                    24007463.254
 111334027.982 8  86753820.63345  21186162.180                    21186170.340
 126050691.890 6  98221429.13643  23986658.547                    23986669.367
 129060192.085 6 100566424.08743  24559336.969                    24559348.199
 116040828.440 7  90421446.051 7  22081832.781                    22081841.266
 123126969.958 7  95943119.73844  23430286.953                    23430295.570
 128975908.437 6 100500791.17543  24543309.219                    24543320.363
 120751074.065 7  94091776.80044  22978167.398                    22978176.535
 105260198.659 7  82020963.52746  20030350.289                    20030357.746
 110253207.329 8  85911618.30446  20980486.422                    20980493.012
 107770728.910 8  83977210.92946  20508089.555                    20508095.820
 11  8 26 15 52  0.0000000  0 11G10G03G08G11G07G16G28G06G13G19G23
 126180991.697 6  98322740.09443  24011407.820                    24011419.313
 111385703.854 8  86794087.53045  21195995.500                    21196004.660
 125983074.331 6  98168740.18343  23973792.000                    23973802.223
 128985055.862 6 100507876.47343  24545039.422                    24545050.371
 115984970.252 7  90377920.203 7  22071203.141                    22071211.664
 123216162.348 6  96012620.25244  23447259.898                    23447268.852
 128905721.468 6 100446100.02443  24529953.352                    24529964.145
 120823178.505 7  94147962.02244  22991888.219                    22991897.602
 105261988.631 8  82022358.31146  20030690.938                    20030698.348
 110230389.842 8  85893838.44846  20976144.438                    20976150.789
 107827871.291 8  84021737.42846  20518963.359                    20518969.152
 11  8 26 15 52 30.0000000  0 11G10G03G08G11G07G16G28G06G13G19G23
 126202196.684 6  98339263.46343  24015442.609                    24015454.000
 111437936.680 8  86834788.41145  21205934.930                    21205943.660
 125915386.113 7  98115996.21543  23960911.359                    23960921.766
 128909793.810 6 100449230.82443  24530716.328                    24530728.555
 115929147.570 7  90334422.033 7  22060580.492                    22060589.090
 123305347.882 7  96082115.42444  23464231.070                    23464239.914
 128835752.860 6 100391579.02142  24516638.578                    24516649.055
 120895683.136 7  94204459.09444  23005685.148                    23005694.879
 105264367.737 8  82024212.13846  20031143.648                    20031151.211
 110208166.866 8  85876521.85646  20971915.414                    20971922.055
 107885537.143 8  84066671.83646  20529936.813                    20529943.148
 11  8 26 15 53  0.0000000  0 11G10G03G08G11G07G16G28G06G13G19G23
 126223818.207 6  98356111.37143  24019556.734                    24019568.020
 111490724.235 8  86875921.54145  21215980.719                    21215989.031
 125847627.203 7  98063197.15844  23948016.695                    23948027.840
 128834408.430 6 100390489.09943  24516371.414                    24516383.316
 115873361.090 7  90290952.077 7  22049964.797                    22049973.141
 123394524.509 7  96151603.63844  23481200.844                    23481209.730
 128766002.561 6 100337228.10443  24503366.211                    24503375.988
 120968585.862 7  94261266.35644  23019558.188                    23019567.934
 105267336.203 8  82026525.22746  20031708.328                    20031715.934
 110186539.368 8  85859669.26746  20967799.867                    20967806.219
 107943724.807 8  84112012.85446  20541009.711                    20541015.836
 11  8 26 15 53 30.0000000  0 11G10G03G08G11G07G16G28G06G13G19G23
 126245854.751 7  98373282.67143  24023751.523                    24023761.387
 111544064.823 8  86917485.61945  21226131.219                    21226139.945
 125779798.336 6  98010343.54144  23935109.414                    23935120.063
 128758901.977 6 100331653.00342  24502002.805                    24502014.453
 115817611.718 8  90247511.033 7  22039355.797                    22039364.090
 123483690.917 7  96221083.89844  23498169.102                    23498177.828
 128696471.298 6 100283047.92042  24490133.938                    24490144.688
 121041884.209 7  94318381.90344  23033506.875                    23033516.617
 105270895.173 8  82029298.44246  20032385.742                    20032393.262
 110165508.824 8  85843281.83246  20963797.555                    20963803.938
 108002433.049 8  84157759.51146  20552181.297                    20552187.598
 11  8 26 15 54  0.0000000  0 11G10G03G08G11G07G16G28G06G13G19G23
 126268304.381 7  98390775.85944  24028023.148                    24028034.207
 111597956.269 7  86959478.92645  21236386.195                    21236394.699
 125711899.176 6  97957435.20343  23922188.727                    23922198.809
 128683276.798 6 100272724.39743  24487611.859                    24487623.082
 115761900.333 8  90204099.588 7  22028754.523                    22028762.516
 123572845.623 7  96290555.04644  23515134.898                    23515143.309
 128627159.016 6 100229038.35542  24476944.953                    24476955.082
 121115576.163 7  94375804.16544  23047530.227                    23047539.148
 105275045.034 8  82032532.09146  20033175.438                    20033182.816
 110145076.198 8  85827360.31446  20959909.750                    20959916.352
 108061660.247 8  84203910.54846  20563451.883                    20563458.375
 11  8 26 15 54 30.0000000  0 11G10G03G08G11G07G16G28G06G13G19G23
 126291165.117 6  98408589.39643  24032372.727                    24032383.863
 111652396.933 8  87001900.19445  21246745.836                    21246754.574
 125643929.928 6  97904472.19944  23909254.281                    23909264.934
 128607534.990 6 100213704.90243  24473198.266                    24473210.031
 115706227.361 7  90160718.079 7  22018160.234                    22018168.359
 123661986.913 7  96360015.72743  23532097.313                    23532105.746
 128558066.362 6 100175199.89042  24463796.656                    24463807.406
 121189659.116 7  94433531.08244  23061628.000                    23061636.816
 105279786.286 8  82036226.56946  20034077.250                    20034084.816
 110125242.701 8  85811905.63546  20956135.883                    20956141.898
 108121404.868 8  84250464.76546  20574821.000                    20574827.512
 11  8 26 15 55  0.0000000  0 11G10G03G08G11G07G16G28G06G13G19G23
 126314435.384 6  98426722.04143  24036800.563                    24036811.789
 111707384.449 7  87044747.58045  21257209.477                    21257218.219
 125575890.593 7  97851454.64543  23896306.820                    23896317.109
 128531679.207 6 100154596.61943  24458763.805                    24458775.578
 115650594.077 7  90117367.479 7  22007573.352                    22007581.715
 123751113.492 6  96429464.96543  23549058.102                    23549066.480
 128489193.411 6 100121532.66243  24450690.641                    24450701.320
 121264131.163 7  94491561.19444  23075799.039                    23075808.602
 105285119.300 8  82040382.15946  20035092.289                    20035099.305
 110106009.606 8  85796918.80646  20952475.383                    20952482.199
 108181665.387 8  84297420.99246  20586287.953                    20586294.402
 11  8 26 15 55 30.0000000  0 11G10G03G08G11G07G16G28G06G13G19G23
 126338112.983 6  98445172.07843  24041306.688                    24041317.746
 111762916.945 8  87088019.62645  21267777.359                    21267785.707
 125507781.655 7  97798382.77543  23883345.945                    23883356.086
 128455711.944 6 100095401.45043  24444307.922                    24444319.145
 115595001.296 7  90074048.459 7  21996994.500                    21997002.711
 123840223.542 6  96498901.31044  23566014.844                    23566023.648
 128420540.518 6 100068036.91942  24437626.156                    24437636.789
 121338990.060 7  94549892.75144  23090044.328                    23090054.066
 105291044.947 8  82044999.53846  20036220.070                    20036227.281
 110087377.853 8  85782400.55746  20948929.930                    20948936.512
 108242440.308 8  84344778.05146  20597852.984                    20597859.949
 11  8 26 15 56  0.0000000  0 11G10G03G08G11G07G16G28G06G13G19G23
 126362195.918 6  98463938.00343  24045889.117                    24045900.949
 111818992.470 7  87131714.81145  21278448.133                    21278456.492
 125439602.924 7  97745256.58144  23870372.047                    23870382.418
 128379635.549 6 100036121.21443  24429830.172                    24429842.078
 115539449.958 7  90030761.725 7  21986423.336                    21986431.594
 123929315.565 6  96568323.61543  23582968.641                    23582977.082
 128352108.198 6 100014713.05743  24424603.031                    24424614.215
 121414233.124 7  94608523.64244  23104362.594                    23104372.129
 105297563.459 8  82050078.89246  20037460.586                    20037467.906
 110069348.407 8  85768351.64246  20945498.945                    20945505.801
 108303727.902 8  84392534.59346  20609516.344                    20609522.434
 11  8 26 15 56 30.0000000  0 11G10G03G08G11G07G16G28G06G13G19G23
 126386682.509 6  98483018.43543  24050549.523                    24050560.781
 111875608.781 7  87175831.37045  21289221.961                    21289229.945
 125371354.640 7  97692076.15743  23857384.375                    23857394.508
 128303452.611 6  99976757.98343  24415333.117                    24415344.504
 115483940.789 7  89987507.851 7  21975860.375                    21975868.652
 124018388.007 6  96637730.65143  23599918.695                    23599927.082
 128283896.669 6  99961561.24942  24411623.641                    24411634.238
 121489858.168 7  94667452.18644  23118753.625                    23118762.809
 105304675.436 8  82055620.68546  20038813.813                    20038820.934
 110051922.266 8  85754772.82746  20942183.125                    20942189.344
 108365526.399 8  84440689.24646  20621275.758                    20621281.984
 11  8 26 15 57  0.0000000  0 11G10G03G08G11G07G16G28G06G13G19G23
 126411570.901 6  98502411.94843  24055285.891                    24055297.484
 111932764.204 7  87220368.03845  21300097.992                    21300106.324
 125303037.498 7  97638842.07443  23844383.938                    23844394.563
 128227165.479 7  99917313.61343  24400816.625                    24400827.375
 115428475.131 7  89944287.891 7  21965305.445                    21965313.668
 124107439.682 7  96707121.51443  23616864.719                    23616873.449
 128215906.234 6  99908581.73743  24398686.156                    24398696.746
 121565863.364 7  94726676.96144  23133217.438                    23133226.598
 105312381.861 8  82061625.68646  20040280.539                    20040287.719
 110035100.856 8  85741665.24346  20938981.984                    20938988.430
 108427834.751 8  84489241.17746  20633132.633                    20633139.375
 11  8 26 15 57 30.0000000  0 11G10G03G08G11G07G16G28G06G13G19G23
 126436858.633 6  98522116.65443  24060097.922                    24060108.691
 111990456.109 7  87265322.74345  21311076.633                    21311084.871
 125234651.310 7  97585554.20743  23831371.281                    23831380.676
 128150776.514 7  99857789.88343  24386280.156                    24386291.129
 115373053.372 7  89901102.139 7  21954759.219                    21954767.484
 124196468.988 6  96776494.93844  23633806.586                    23633814.867
 128148136.518 6  99855774.19843  24385789.117                    24385800.609
 121642245.663 7  94786195.58044  23147752.500                    23147762.172
 105320682.069 8  82068093.36646  20041859.711                    20041867.258
 110018884.352 8  85729029.00346  20935896.086                    20935902.992
 108490650.593 8  84538188.55946  20645086.750                    20645092.680
 11  8 26 15 58  0.0000000  0 11G10G03G08G11G07G16G28G06G13G19G23
 126462544.277 6  98542131.40443  24064985.078                    24064996.648
 112048682.659 8  87310694.05045  21322156.586                    21322165.191
 125166196.108 7  97532212.51943  23818344.359                    23818354.504
 128074288.101 6  99798188.59743  24371724.625                    24371735.621
 115317676.735 7  89857951.528 7  21944221.008                    21944229.609
 124285474.204 7  96845849.58644  23650743.445                    23650752.480
 128080587.856 6  99803138.91043  24372935.945                    24372946.215
 121719002.964 7  94846006.41144  23162359.344                    23162368.176
 105329576.760 8  82075024.28146  20043552.305                    20043559.910
 110003274.045 8  85716865.14046  20932925.328                    20932931.891
 108553972.642 8  84587530.39246  20657136.094                    20657142.691
 11  8 26 15 58 30.0000000  0 11G10G03G08G11G07G16G28G06G13G19G23
 126488625.430 6  98562454.35543  24069948.641                    24069959.727
 112107441.785 7  87356480.34145  21333337.867                    21333346.594
 125097672.444 7  97478817.51944  23805304.508                    23805315.230
 127997702.656 6  99738511.76943  24357151.313                    24357161.668
 115262345.952 7  89814836.670 7  21933692.344                    21933700.539
 124374454.053 7  96915184.47144  23667676.641                    23667684.344
 128013261.048 6  99750676.50543  24360122.953                    24360134.332
 121796132.704 7  94906107.44644  23177036.297                    23177045.793
 105339066.366 8  82082418.77446  20045358.141                    20045365.629
 109988271.133 8  85705174.55746  20930070.492                    20930076.848
 108617798.865 8  84637265.08946  20669281.555                    20669288.086
 11  8 26 15 59  0.0000000  0 11G10G03G08G11G07G16G28G06G13G19G23
 126515100.331 6  98583084.12643  24074986.898                    24074997.715
 112166731.187 7  87402679.84845  21344620.188                    21344629.000
 125029080.455 6  97425369.24943  23792251.703                    23792261.984
 127921022.588 6  99678761.20143  24342559.039                    24342569.652
 115207062.137 7  89771758.404 7  21923172.219                    21923180.168
 124463406.724 6  96984498.18744  23684603.297                    23684612.535
 127946156.327 6  99698387.19443  24347353.969                    24347364.625
 121873632.693 7  94966496.99944  23191783.805                    23191793.043
 105349151.239 8  82090277.10146  20047277.711                    20047284.820
 109973876.347 8  85693957.85246  20927331.555                    20927337.625
 108682127.468 8  84687391.23846  20681523.180                    20681529.547
 11  8 26 15 59 30.0000000  0 11G10G03G08G11G07G16G28G06G13G19G23
 126541967.050 6  98604019.22443  24080098.906                    24080110.438
 112226548.927 8  87449291.04045  21356003.766                    21356012.473
 124960420.228 7  97371867.84444  23779186.219                    23779196.422
 127844250.770 6  99618939.13543  24327949.758                    24327960.578
 115151826.342 8  89728717.529 7  21912661.188                    21912669.234
 124552331.416 7  97053790.09844  23701525.273                    23701533.969
 127879273.158 7  99646270.52043  24334626.227                    24334637.313
 121951500.667 7  95027173.30444  23206602.234                    23206611.074
 105359831.573 8  82098599.42646  20049309.836                    20049317.383
 109960090.508 8  85683215.65046  20924707.836                    20924714.754
 108746957.134 8  84737907.82546  20693859.773                    20693866.168
 11  8 26 16  0  0.0000000  0 11G10G03G08G11G07G16G28G06G13G19G23
 126569223.384 6  98625257.86443  24085286.031                    24085296.977
 112286892.376 7  87496311.86845  21367486.758                    21367495.313
 124891692.280 7  97318313.66844  23766107.781                    23766118.551
 127767389.522 6  99559047.35643  24313323.289                    24313334.293
 115096639.095 8  89685714.522 7  21902159.352                    21902167.613
 124641226.278 6  97123058.74344  23718440.938                    23718450.422
 127812612.371 6  99594327.12543  24321940.766                    24321951.871
 122029734.207 7  95088134.46044  23221489.063                    23221497.879
 105371107.697 8  82107386.00746  20051455.500                    20051462.996
 109946914.317 8  85672948.49846  20922200.891                    20922207.250
 108812286.014 8  84788813.42346  20706291.406                    20706297.855
 11  8 26 16  0 30.0000000  0 11G10G03G08G11G07G16G28G06G13G19G23
 126596867.354 6  98646798.60243  24090546.398                    24090557.680
 112347759.783 7  87543740.99445  21379069.016                    21379077.980
 124822896.606 6  97264706.69444  23753016.086                    23753026.434
 127690441.282 6  99499087.80843  24298680.648                    24298691.359
 115041501.800 7  89642750.431 7  21891666.734                    21891675.047
 124730089.811 6  97192303.00144  23735351.477                    23735360.328
 127746173.878 6  99542556.91643  24309298.813                    24309309.152
 122108330.897 7  95149378.58244  23236445.352                    23236454.992
 105382979.693 8  82116636.90146  20053714.719                    20053722.105
 109934348.743 8  85663157.14146  20919809.609                    20919816.082
 108878111.902 8  84840106.29446  20718818.141                    20718824.000
 11  8 26 16  1  0.0000000  0 11G10G03G08G11G07G16G28G06G13G19G23
 126624896.930 6  98668639.82343  24095880.031                    24095891.523
 112409148.973 7  87591576.69245  21390751.258                    21390759.820
 124754033.700 7  97211047.35844  23739912.594                    23739922.273
 127613408.778 6  99439062.61043  24284021.406                    24284032.094
 114986415.316 7  89599825.917 7  21881184.102                    21881192.828
 124818920.989 6  97261522.00844  23752255.664                    23752264.324
 127679957.947 6  99490960.14043  24296697.461                    24296708.461
 122187288.667 7  95210904.07244  23251470.477                    23251479.816
 105395448.195 8  82126352.60846  20056086.891                    20056095.043
 109922394.568 8  85653842.21346  20917534.695                    20917541.156
 108944433.565 8  84891785.48546  20731438.516                    20731444.582
 11  8 26 16  1 30.0000000  0 11G10G03G08G11G07G16G28G06G13G19G23
 126653310.124 6  98690779.94243  24101286.563                    24101298.430
 112471057.590 7  87639817.13845  21402532.234                    21402540.535
 124685103.641 6  97157335.68944  23726794.852                    23726804.988
 127536294.266 6  99378973.48943  24269346.664                    24269357.906
 114931380.549 7  89556941.708 7  21870711.258                    21870719.754
 124907718.288 6  97330714.65044  23769153.422                    23769161.926
 127613964.527 6  99439536.79643  24284139.555                    24284150.082
 122266604.804 7  95272708.78844  23266563.992                    23266573.637
 105408513.245 8  82136533.15146  20058573.648                    20058581.070
 109911052.416 8  85645004.18546  20915376.461                    20915382.582
 109011249.001 8  84943849.43546  20744152.945                    20744159.426
 11  8 26 16  2  0.0000000  0 11G10G03G08G11G07G16G28G06G13G19G23
 126682104.862 6  98713217.32743  24106767.492                    24106778.000
 112533483.518 7  87688460.69645  21414411.641                    21414420.156
 124616106.474 7  97103571.70844  23713665.156                    23713675.289
 127459100.238 6  99318822.36043  24254658.117                    24254667.336
 114876398.469 7  89514098.550 7  21860248.617                    21860257.227
 124996480.248 6  97399879.74244  23786044.297                    23786053.301
 127548193.806 7  99388286.93943  24271624.461                    24271634.566
 122346276.822 7  95334790.83144  23281725.469                    23281734.660
 105422174.678 8  82147178.41546  20061173.102                    20061180.988
 109900322.817 8  85636643.46946  20913334.617                    20913340.707
 109078556.245 8  84996296.60346  20756961.305                    20756967.352
 11  8 26 16  2 30.0000000  0 11G10G03G08G11G07G16G28G06G13G19G23
 126711279.087 6  98735950.47643  24112318.586                    24112329.473
 112596424.366 7  87737505.49945  21426388.852                    21426397.301
 124547043.028 7  97049756.07544  23700522.539                    23700533.383
 127381829.131 6  99258611.21343  24239953.258                    24239963.875
 114821470.145 7  89471297.267 7  21849796.359                    21849804.734
 125085205.270 6  97469016.04243  23802928.188                    23802936.563
 127482646.014 6  99337210.83343  24259149.969                    24259160.828
 122426302.404 7  95397148.36244  23296953.281                    23296963.070
 105436432.935 8  82158288.73246  20063886.758                    20063894.305
 109890206.828 8  85628760.88946  20911409.766                    20911415.875
 109146353.545 8  85049125.63146  20769862.453                    20769868.977
 11  8 26 16  3  0.0000000  0 11G10G03G08G11G07G16G28G06G13G19G23
 126740830.168 6  98758977.30943  24117941.664                    24117952.676
 112659877.373 7  87786949.35745  21438463.422                    21438472.441
 124477913.229 7  96995888.76144  23687367.898                    23687378.355
 127304483.759 6  99198342.21243  24225234.945                    24225244.816
 114766596.170 7  89428538.357 7  21839353.789                    21839362.008
 125173892.185 6  97538122.63943  23819804.148                    23819813.293
 127417321.075 6  99286308.34343  24246719.172                    24246730.180
 122506678.855 7  95459779.31644  23312248.516                    23312258.496
 105451287.728 8  82169863.88246  20066713.188                    20066720.977
 109880704.781 8  85621356.70546  20909601.344                    20909607.613
 109214638.737 8  85102334.84746  20782857.078                    20782862.910
 11  8 26 16  3 30.0000000  0 11G10G03G08G11G07G16G28G06G13G19G23
 126770756.152 6  98782296.21543  24123636.625                    24123647.648
 112723840.623 8  87836790.83345  21450635.508                    21450644.016
 124408717.406 7  96941970.04844  23674200.188                    23674211.367
 127227066.559 6  99138017.16343  24210503.016                    24210513.813
 114711778.497 8  89385823.322 7  21828922.492                    21828931.000
 125262539.611 6  97607198.50643  23836673.227                    23836682.289
 127352219.307 6  99235579.76843  24234331.406                    24234341.777
 122587404.335 7  95522682.22244  23327610.344                    23327619.820
 105466739.272 8  82181904.03446  20069653.555                    20069661.176
 109871817.359 8  85614431.44746  20907910.219                    20907916.367
 109283409.913 8  85155922.74146  20795943.227                    20795949.672
 11  8 26 16  4  0.0000000  0 11G10G03G08G11G07G16G28G06G13G19G23
 126801054.849 6  98805905.58743  24129402.000                    24129412.898
 112788312.158 8  87887028.36645  21462903.563                    21462912.777
 124339455.833 6  96888000.05144  23661019.828                    23661030.438
 127149580.049 6  99077638.13443  24195758.125                    24195767.887
 114657017.586 8  89343152.497 7  21818501.789                    21818510.176
 125351146.136 6  97676242.47643  23853535.195                    23853543.641
 127287340.834 6  99185025.16843  24221984.508                    24221995.766
 122668476.149 7  95585855.00344  23343038.047                    23343046.992
 105482787.887 8  82194409.43746  20072707.297                    20072715.020
 109863545.109 8  85607985.55346  20906335.828                    20906342.043
 109352665.500 8  85209888.11246  20809122.430                    20809128.465
 11  8 26 16  4 30.0000000  0 11G10G03G08G11G07G16G28G06G13G19G23
 126831724.575 6  98829803.99343  24135238.094                    24135249.344
 112853289.537 7  87937660.06445  21475268.867                    21475277.129
 124270129.109 6  96833979.29344  23647828.258                    23647838.645
 127072026.978 6  99017207.22043  24180999.656                    24181010.496
 114602314.616 8  89300526.850 7  21808092.375                    21808100.402
 125439710.605 6  97745253.69243  23870388.711                    23870396.379
 127222685.718 6  99134644.59843  24209681.320                    24209691.461
 122749891.745 7  95649295.68144  23358530.484                    23358540.496
 105499433.628 8  82207380.12746  20075875.055                    20075882.531
 109855888.973 8  85602019.75046  20904878.945                    20904885.406
 109422403.464 8  85264229.33846  20822393.094                    20822399.543
 11  8 26 16  5  0.0000000  0 11G10G03G08G11G07G16G28G06G13G19G23
 126862762.750 6  98853989.57143  24141144.977                    24141156.227
 112918770.103 8  87988683.85745  21487729.766                    21487737.922
 124200737.375 6  96779907.90743  23634622.406                    23634633.074
 126994409.748 6  98956726.30943  24166229.453                    24166240.645
 114547670.474 8  89257947.006 7  21797693.602                    21797701.699
 125528232.004 6  97814231.35543  23887233.625                    23887241.762
 127158253.908 6  99084438.06943  24197419.922                    24197430.809
 122831648.609 7  95713002.26744  23374088.414                    23374098.379
 105516676.094 8  82220815.80846  20079156.555                    20079163.941
 109848849.108 8  85596534.13846  20903539.469                    20903545.637
 109492621.397 8  85318944.57846  20835755.383                    20835761.699
 11  8 26 16  5 30.0000000  0 11G10G03G08G11G07G16G28G06G13G19G23
 126894167.396 6  98878460.68443  24147121.336                    24147132.336
 112984751.479 8  88040097.89445  21500284.891                    21500293.938
 124131281.070 6  96725786.16644  23621405.719                    23621415.605
 126916731.053 7  98896197.51243  24151447.930                    24151458.852
 114493086.468 8  89215414.053 7  21787306.820                    21787315.129
 125616708.299 6  97883173.83443  23904070.422                    23904078.480
 127094045.712 6  99034405.81243  24185201.820                    24185211.852
 122913744.616 7  95776973.12144  23389710.992                    23389720.973
 105534515.438 8  82234716.58346  20082551.055                    20082558.617
 109842425.991 8  85591529.12346  20902317.023                    20902323.609
 109563317.832 8  85374032.68046  20849208.469                    20849214.813
 11  8 26 16  6  0.0000000  0 11G10G03G08G11G07G16G28G06G13G19G23
 126925936.078 6  98903215.48243  24153166.211                    24153177.383
 113051231.350 8  88091900.35745  21512935.414                    21512944.484
 124061760.960 6  96671614.71644  23608176.141                    23608186.438
 126838993.361 7  98835622.76643  24136655.078                    24136665.227
 114438563.588 8  89172928.700 7  21776931.500                    21776939.355
 125705138.633 7  97952080.54144  23920898.102                    23920905.996
 127030060.778 6  98984547.44943  24173025.602                    24173036.957
 122996177.022 7  95841206.10244  23405397.156                    23405407.430
 105552951.636 8  82249082.44546  20086059.508                    20086066.785
 109836620.343 8  85587005.24646  20901212.234                    20901218.750
 109634490.763 8  85429492.06646  20862752.219                    20862758.730
 11  8 26 16  6 30.0000000  0 11G10G03G08G11G07G16G28G06G13G19G23
 126958066.892 6  98928252.45943  24159281.094                    24159291.605
 113118207.629 7  88144089.63345  21525680.820                    21525689.941
 123992176.864 7  96617393.41744  23594934.797                    23594944.996
 126761199.576 7  98775004.26643  24121851.063                    24121861.723
 114384103.208 7  89130492.087 7  21766567.773                    21766575.496
 125793521.479 6  98020950.24143  23937716.648                    23937725.309
 126966299.648 6  98934863.50343  24160892.313                    24160903.406
 123078943.711 6  95905699.54444  23421147.727                    23421157.266
 105571984.862 8  82263913.52046  20089681.391                    20089688.789
 109831432.770 8  85582962.99346  20900225.133                    20900231.805
 109706138.301 8  85485321.28146  20876386.578                    20876392.750
 11  8 26 16  7  0.0000000  0 11G10G03G08G11G07G16G28G06G13G19G23
 126990557.448 6  98953569.73943  24165463.578                    24165474.512
 113185677.320 7  88196663.37945  21538519.500                    21538528.566
 123922529.121 7  96563122.49144  23581680.977                    23581691.121
 126683352.181 7  98714344.01943  24107037.219                    24107048.074
 114329706.291 7  89088104.896 7  21756216.234                    21756224.352
 125881855.883 6  98089782.17243  23954525.820                    23954534.898
 126902762.112 6  98885353.84443  24148801.375                    24148812.680
 123162041.862 6  95970451.29744  23436960.156                    23436970.207
 105591614.637 8  82279209.44446  20093416.688                    20093424.309
 109826863.467 8  85579402.50446  20899355.461                    20899361.949
 109778257.918 8  85541518.35546  20890110.344                    20890116.930
 11  8 26 16  7 30.0000000  0 11G10G03G08G11G07G16G28G06G13G19G23
 127023405.251 6  98979165.36243  24171714.313                    24171725.336
 113253638.169 7  88249619.85445  21551452.633                    21551461.664
 123852817.965 7  96508802.17444  23568415.844                    23568425.699
 126605453.603 6  98653643.91643  24092213.297                    24092223.879
 114275373.493 8  89045767.681 7  21745876.789                    21745884.898
 125970140.087 6  98158574.99743  23971325.758                    23971334.824
 126839448.400 6  98836018.51943  24136753.430                    24136763.516
 123245469.314 6  96035459.63044  23452836.914                    23452846.422
 105611840.787 8  82294970.06746  20097265.633                    20097273.063
 109822912.408 8  85576323.76246  20898603.750                    20898610.246
 109850848.048 8  85598082.04746  20903923.539                    20903929.988
 11  8 26 16  8  0.0000000  0 11G10G03G08G11G07G16G28G06G13G19G23
 127056608.252 6  99005037.83643  24178032.477                    24178044.246
 113322088.285 7  88302957.57345  21564478.219                    21564486.789
 123783043.995 7  96454432.88944  23555138.133                    23555148.414
 126527506.668 6  98592906.08643  24077381.219                    24077391.008
 114221106.491 8  89003481.734 7  21735550.547                    21735558.887
 126058373.553 6  98227328.29743  23988116.406                    23988125.297
 126776358.279 6  98786857.44343  24124747.906                    24124757.680
 123329223.145 7  96100722.30644  23468774.414                    23468783.422
 105632663.084 8  82311195.22446  20101228.023                    20101235.777
 109819580.381 8  85573727.38146  20897969.891                    20897976.137
 109923906.092 8  85655010.36146  20917826.281                    20917832.789
 11  8 26 16  8 30.0000000  0 11G10G03G08G11G07G16G28G06G13G19G23
 127090164.304 6  99031185.35743  24184418.086                    24184429.215
 113391024.927 7  88356674.39245  21577596.281                    21577605.266
 123713207.884 7  96400015.18944  23541848.594                    23541858.199
 126449514.095 6  98532132.69243  24062539.672                    24062549.145
 114166906.052 7  88961247.644 7  21725236.453                    21725244.797
 126146554.644 6  98296040.73643  24004896.727                    24004905.746
 126713491.783 6  98737870.64743  24112785.016                    24112795.453
 123413301.078 6  96166237.53544  23484773.695                    23484783.332
 105654081.743 8  82327885.07546  20105304.023                    20105311.367
 109816867.815 8  85571613.69746  20897453.539                    20897460.180
 109997430.194 8  85712301.83146  20931817.281                    20931823.785
 11  8 26 16  9  0.0000000  0 11G10G03G08G11G07G16G28G06G13G19G23
 127124070.983 6  99057606.13643  24190870.273                    24190881.184
 113460445.407 7  88410768.22545  21590806.641                    21590816.059
 123643310.173 7  96345549.48744  23528546.930                    23528557.250
 126371478.635 6  98471325.92843  24047689.609                    24047699.461
 114112773.383 8  88919066.374 7  21714935.344                    21714943.672
 126234681.936 6  98364711.30043  24021666.109                    24021675.727
 126650848.953 6  98689058.11243  24100863.883                    24100874.711
 123497700.674 6  96232003.40144  23500834.227                    23500843.891
 105676096.342 8  82345039.29646  20109493.250                    20109501.059
 109814774.695 7  85569982.70346  20897055.250                    20897061.863
 110071418.287 8  85769954.84746  20945896.867                    20945903.234
 11  8 26 16  9 30.0000000  0 11G10G03G08G11G07G16G28G06G13G19G23
 127158326.016 6  99084298.35843  24197388.570                    24197400.195
 113530347.304 7  88465237.20145  21604108.539                    21604117.320
 123573351.113 7  96291035.99844  23515235.203                    23515244.973
 126293402.574 6  98410487.54143  24032831.844                    24032842.148
 114058709.770 8  88876938.892 7  21704647.523                    21704655.160
 126322754.445 6  98433339.14844  24038426.406                    24038435.930
 126588429.681 6  98640419.77743  24088986.125                    24088995.777
 123582419.424 6  96298017.95743  23516956.047                    23516965.281
 105698706.374 8  82362657.49646  20113795.648                    20113803.016
 109813301.366 8  85568834.65846  20896774.773                    20896781.410
 110145868.336 8  85827967.83146  20960064.336                    20960070.715
 11  8 26 16 10  0.0000000  0 11G10G03G08G11G07G16G28G06G13G19G23
 127192927.204 6  99111260.26743  24203972.875                    24203984.535
 113600728.439 7  88520079.60345  21617502.000                    21617510.840
 123503331.246 7  96236475.10043  23501910.594                    23501920.289
 126215288.597 6  98349619.52643  24017966.977                    24017977.590
 114004716.404 8  88834866.155 7  21694372.883                    21694380.609
 126410771.086 6  98501923.48343  24055175.711                    24055184.727
 126526234.235 6  98591955.87443  24077149.953                    24077160.563
 123667455.062 6  96364279.44543  23533137.266                    23533146.586
 105721912.073 8  82380739.84846  20118211.633                    20118218.988
 109812448.364 8  85568169.98746  20896612.438                    20896619.027
 110220778.524 8  85886339.36245  20974319.516                    20974325.488
 11  8 26 16 10 30.0000000  0 11G10G03G08G11G07G16G28G06G13G19G23
 127227872.361 6  99138490.22443  24210623.102                    24210634.355
 113671585.792 8  88575293.07845  21630985.500                    21630994.293
 123433250.687 7  96181866.92044  23488574.664                    23488583.949
 126137139.257 6  98288724.00343  24003095.750                    24003107.098
 113950794.206 8  88792848.884 7  21684111.563                    21684119.992
 126498730.521 6  98570463.20343  24071914.281                    24071922.711
 126464262.257 6  98543666.07543  24065356.711                    24065368.148
 123752804.676 6  96430785.58144  23549378.953                    23549388.887
 105745712.553 8  82399285.66146  20122740.406                    20122747.973
 109812215.544 8  85567988.56846  20896568.531                    20896574.848
 110296145.911 8  85945067.15746  20988661.578                    20988667.762
 11  8 26 16 11  0.0000000  0 11G10G03G08G11G07G16G28G06G13G19G23
 127263159.081 6  99165986.36543  24217338.266                    24217349.223
 113742917.241 8  88630875.99245  21644559.359                    21644568.328
 123363110.381 7  96127212.19244  23475227.031                    23475237.063
 126058957.632 7  98227803.35643  23988218.563                    23988229.047
 113896944.719 8  88750888.264 7  21673864.492                    21673872.488
 126586631.581 6  98638957.50943  24088640.508                    24088649.547
 126402513.791 6  98495550.44643  24053607.195                    24053617.324
 123838466.113 6  96497534.67544  23565680.281                    23565689.797
 105770108.095 8  82418295.16246  20127383.109                    20127390.633
 109812603.430 8  85568290.81846  20896641.922                    20896648.668
 110371968.892 8  86004149.96246  21003089.906                    21003095.750
 11  8 26 16 11 30.0000000  0 11G10G03G08G11G07G16G28G06G13G19G23
 127298785.125 6  99193746.86943  24224118.125                    24224128.914
 113814720.321 8  88686826.39545  21658222.969                    21658232.324
 123292910.489 7  96072511.03644  23461869.227                    23461878.246
 125980746.335 7  98166859.52843  23973335.211                    23973346.148
 113843168.878 8  88708985.028 7  21663631.180                    21663639.570
 126674473.424 6  98707405.61843  24105356.430                    24105365.770
 126340988.831 6  98447609.01143  24041899.195                    24041909.496
 123924436.774 7  96564524.76843  23582040.016                    23582049.605
 105795098.393 8  82437768.10946  20132138.242                    20132146.172
 109813611.903 8  85569076.64746  20896833.883                    20896840.262
 110448245.463 8  86063586.21546  21017604.836                    21017611.273
 11  8 26 16 12  0.0000000  0 11G10G03G08G11G07G16G28G06G13G19G23
 127334747.730 6  99221769.65543  24230960.938                    24230972.301
 113886992.055 7  88743141.99545  21671975.711                    21671984.938
 123222651.007 7  96017763.43444  23448499.148                    23448508.270
 125902507.932 6  98105894.61143  23958447.211                    23958457.914
 113789467.918 8  88667140.138 7  21653412.273                    21653420.523
 126762254.185 6  98775806.13043  24122061.063                    24122069.719
 126279687.304 6  98399841.63443  24030233.555                    24030244.188
 124010714.023 7  96631753.73143  23598457.633                    23598467.332
 105820682.390 8  82457703.67346  20137006.727                    20137014.664
 109815240.981 8  85570346.05746  20897144.047                    20897150.313
 110524973.009 8  86123373.87446  21032205.719                    21032212.211
 11  8 26 16 12 30.0000000  0 11G10G03G08G11G07G16G28G06G13G19G23
 127371044.695 6  99250052.92143  24237867.609                    24237878.738
 113959730.230 7  88799821.04645  21685817.820                    21685826.746
 123152332.991 7  95962970.22944  23435117.313                    23435126.980
 125824245.110 7  98044910.68143  23943553.813                    23943564.773
 113735843.246 8  88625354.695 7  21643208.016                    21643216.074
 126849972.965 6  98844158.36943  24138753.203                    24138762.566
 126218609.338 6  98352248.50244  24018611.477                    24018621.578
 124097295.405 7  96699219.69944  23614934.320                    23614943.625
 105846859.887 8  82478101.70846  20141988.359                    20141996.250
 109817491.014 7  85572099.33846  20897571.898                    20897578.465
 110602149.484 8  86183511.34046  21046891.969                    21046898.461
 11  8 26 16 13  0.0000000  0 11G10G03G08G11G07G16G28G06G13G19G23
 127407673.482 6  99278594.80943  24244838.281                    24244849.820
 114032932.084 8  88856861.41645  21699747.672                    21699756.297
 123081957.095 7  95908131.92344  23421725.164                    23421735.141
 125745960.382 6  97983909.65243  23928656.758                    23928667.348
 113682295.589 8  88583629.269 7  21633017.961                    21633026.484
 126937628.487 6  98912461.27243  24155433.641                    24155443.082
 126157754.441 6  98304829.16843  24007031.047                    24007041.262
 124184178.420 7  96766920.70744  23631467.273                    23631476.547
 105873630.209 8  82498961.68946  20147082.711                    20147090.137
 109820361.731 8  85574336.25546  20898118.094                    20898124.930
 110679772.277 8  86243996.59446  21061663.188                    21061669.477
 11  8 26 16 13 30.0000000  0 11G10G03G08G11G07G16G28G06G13G19G23
 127444632.250 6  99307393.80943  24251871.891                    24251882.820
 114106595.322 7  88914261.29645  21713765.273                    21713774.223
 123011523.556 7  95853248.71044  23408322.141                    23408332.313
 125667657.049 7  97922894.12843  23913756.516                    23913766.223
 113628826.668 8  88541965.189 7  21622842.852                    21622851.754
 127025220.143 6  98980714.43643  24172101.320                    24172111.055
 126097122.685 7  98257583.74243  23995493.195                    23995503.500
 124271360.692 7  96834854.89844  23648057.266                    23648067.324
 105900993.524 8  82520283.73846  20152289.492                    20152297.156
 109823853.632 8  85577057.21746  20898782.867                    20898789.906
 110757839.488 8  86304828.14646  21076518.695                    21076525.324
 11  8 26 16 14  0.0000000  0 11G10G03G08G11G07G16G28G06G13G19G23
 127481918.219 6  99336447.77443  24258966.664                    24258977.578
 114180717.166 8  88972018.52945  21727870.422                    21727879.406
 122941033.009 7  95798321.07044  23394908.531                    23394918.270
 125589337.451 7  97861865.96043  23898852.000                    23898862.383
 113575437.595 8  88500363.350 7  21612683.461                    21612692.027
 127112746.612 6  99048916.78143  24188757.141                    24188766.621
 126036714.131 6  98210512.18743  23983997.477                    23984007.637
 124358839.386 7  96903020.07144  23664704.516                    23664714.313
 105928949.217 8  82542067.38746  20157609.336                    20157617.172
 109827966.397 8  85580261.96846  20899565.625                    20899572.449
 110836348.749 8  86366004.14746  21091458.602                    21091465.016
 11  8 26 16 14 30.0000000  0 11G10G03G08G11G07G16G28G06G13G19G23
 127519528.997 6  99365754.86043  24266123.703                    24266135.277
 114255294.950 8  89030131.05845  21742062.141                    21742070.930
 122870485.639 7  95743349.13344  23381483.242                    23381493.379
 125511004.460 7  97800827.37743  23883946.047                    23883956.375
 113522129.135 8  88458824.299 7  21602539.219                    21602547.762
 127200206.422 6  99117067.24643  24205400.352                    24205409.449
 125976528.388 6  98163614.31243  23972544.492                    23972555.434
 124446612.021 6  96971414.27944  23681406.953                    23681417.191
 105957496.414 8  82564311.93146  20163042.000                    20163049.238
 109832700.341 8  85583950.75646  20900466.313                    20900472.766
 110915297.827 8  86427522.87545  21106481.914                    21106488.824
 11  8 26 16 15  0.0000000  0 11G10G03G08G11G07G16G28G06G13G19G23
 127557462.357 6  99395313.27243  24273342.359                    24273353.902
 114330325.911 8  89088596.70345  21756339.891                    21756348.934
 122799882.315 7  95688333.63244  23368047.750                    23368057.277
 125432660.722 7  97739780.38843  23869037.844                    23869047.734
 113468903.119 8  88417349.500 7  21592410.789                    21592418.809
 127287598.801 6  99185165.11743  24222030.586                    24222039.727
 125916565.495 6  98116890.03843  23961133.352                    23961144.145
 124534675.970 6  97040035.47944  23698165.102                    23698174.809
 105986634.714 8  82587017.09246  20168586.430                    20168594.090
 109838054.857 8  85588123.10346  20901485.289                    20901492.125
 110994684.443 8  86489382.52946  21121589.297                    21121595.508
 11  8 26 16 15 30.0000000  0 11G10G03G08G11G07G16G28G06G13G19G23
 127595715.673 6  99425120.98543  24280621.711                    24280633.102
 114405807.718 7  89147413.64545  21770703.781                    21770712.813
 122729223.690 7  95633274.98044  23354602.016                    23354611.875
 125354308.912 7  97678727.10743  23854127.922                    23854138.504
 113415760.635 8  88375939.790 7  21582297.945                    21582305.738
 127374922.756 6  99253209.73143  24238648.094                    24238656.707
 125856825.374 6  98070339.38643  23949765.500                    23949775.816
 124623029.048 6  97108881.96944  23714978.203                    23714988.254
 106016363.602 8  82610182.44246  20174243.875                    20174251.141
 109844030.247 8  85592779.24746  20902622.156                    20902628.977
 111074506.506 8  86551581.50046  21136778.664                    21136784.867
 11  8 26 16 16  0.0000000  0 11G10G03G08G11G07G16G28G06G13G19G23
 127634286.600 6  99455176.17043  24287961.922                    24287972.711
 114481737.901 7  89206579.98845  21785153.039                    21785161.492
 122658510.548 7  95578173.92144  23341145.766                    23341155.750
 125275952.082 7  97617669.91343  23839217.180                    23839227.199
 113362703.324 8  88334596.454 7  21572201.547                    21572209.441
 127462177.218 6  99321200.14943  24255252.133                    24255260.582
 125797307.588 6  98023961.97543  23938438.500                    23938449.809
 124711668.704 6  97177951.76144  23731845.289                    23731855.824
 106046682.673 8  82633807.67746  20180013.500                    20180020.918
 109850626.314 8  85597919.03246  20903877.414                    20903884.262
 111154761.503 8  86614117.82446  21152050.539                    21152057.160
 11  8 26 16 16 30.0000000  0 11G10G03G08G11G07G16G28G06G13G19G23
 127673172.777 6  99485477.06343  24295360.883                    24295372.309
 114558113.500 7  89266093.41344  21799686.109                    21799695.613
 122587742.997 7  95523030.41844  23327679.492                    23327689.230
 125197592.714 7  97556610.77543  23824305.453                    23824315.828
 113309732.136 8  88293320.240 7  21562121.352                    21562129.887
 127549361.173 6  99389135.68143  24271842.633                    24271851.137
 125738012.357 6  97977757.98543  23927155.984                    23927166.355
 124800592.451 6  97247242.92944  23748766.977                    23748777.355
 106077591.139 8  82657892.18146  20185895.023                    20185902.699
 109857843.144 8  85603542.53646  20905250.781                    20905257.406
 111235447.333 8  86676989.86146  21167404.805                    21167411.395
 11  8 26 16 17  0.0000000  0 11G10G03G08G11G07G16G28G06G13G19G23
 127712371.752 6  99516021.67943  24302820.969                    24302832.133
 114634931.831 7  89325951.79745  21814304.633                    21814313.418
 122516921.714 7  95467845.05344  23314201.836                    23314211.684
 125119233.609 6  97495551.85643  23809394.031                    23809404.344
 113256848.592 8  88252112.299 7  21552057.977                    21552066.000
 127636473.143 6  99457015.09543  24288419.734                    24288428.379
 125678939.481 6  97931727.26243  23915914.883                    23915925.359
 124889797.399 6  97316753.21143  23765741.984                    23765752.852
 106109087.940 8  82682435.12046  20191888.711                    20191896.262
 109865680.288 8  85609649.39846  20906742.680                    20906748.898
 111316561.021 8  86740195.28346  21182840.297                    21182846.914
 11  8 26 16 17 30.0000000  0 11G10G03G08G11G07G16G28G06G13G19G23
 127751880.911 6  99546807.99843  24310338.891                    24310350.629
 114712190.604 7  89386153.40245  21829005.961                    21829015.539
 122446047.466 7  95412618.42644  23300715.359                    23300725.785
 125040877.634 6  97434495.34443  23794483.430                    23794493.125
 113204053.779 8  88210973.521 7  21542011.539                    21542019.305
 127723512.418 6  99524837.84143  24304982.453                    24304991.461
 125620088.552 6  97885869.48643  23904715.352                    23904725.996
 124979281.276 6  97386480.81743  23782770.453                    23782780.941
 106141172.980 8  82707436.43146  20197994.461                    20198001.875
 109874137.492 8  85616239.42946  20908351.492                    20908358.203
 111398100.666 8  86803732.62846  21198356.797                    21198363.371
 11  8 26 16 18  0.0000000  0 11G10G03G08G11G07G16G28G06G13G19G23
 127791697.634 6  99577833.93343  24317916.219                    24317927.465
 114789886.936 7  89446695.95544  21843791.148                    21843800.527
 122375120.904 7  95357351.03944  23287218.852                    23287228.258
 124962527.606 6  97373443.49743  23779573.539                    23779584.418
 113151349.006 7  88169904.879 7  21531982.117                    21531990.230
 127810478.283 6  99592603.38843  24321531.648                    24321540.758
 125561459.702 6  97840184.73543  23893558.328                    23893569.066
 125069041.488 6  97456423.81143  23799850.953                    23799861.168
 106173845.522 8  82732895.54046  20204211.734                    20204219.258
 109883215.108 8  85623312.89046  20910079.109                    20910085.371
 111480063.982 8  86867600.09246  21213953.773                    21213960.543
 11  8 26 16 18 30.0000000  0 11G10G03G08G11G07G16G28G06G13G19G23
 127831819.697 6  99609097.82343  24325551.641                    24325562.887
 114868017.645 7  89507577.00444  21858659.156                    21858668.559
 122304142.282 7  95302043.06344  23273711.266                    23273721.305
 124884186.139 6  97312398.28443  23764666.094                    23764676.434
 113098735.381 7  88128907.277 7  21521970.125                    21521977.973
 127897369.261 6  99660310.55143  24338066.133                    24338075.590
 125503052.462 6  97794672.69643  23882443.898                    23882454.461
 125159075.377 6  97526579.98243  23816984.273                    23816994.676
 106207104.375 8  82758811.51146  20210540.711                    20210548.398
 109892912.362 8  85630869.18946  20911924.539                    20911930.887
 111562448.476 8  86931795.75746  21229631.156                    21229637.887
 11  8 26 16 19  0.0000000  0 11G10G03G08G11G07G16G28G06G13G19G23
 127872244.799 6  99640597.87943  24333243.938                    24333255.465
 114946580.905 7  89568795.08545  21873609.852                    21873618.422
 122233112.769 7  95246695.44744  23260195.063                    23260204.996
 124805856.246 6  97251362.11943  23749760.016                    23749770.754
 113046214.587 8  88087982.003 7  21511975.563                    21511983.938
 127984184.308 6  99727958.54443  24354586.258                    24354596.598
 125444866.820 6  97749333.31643  23871371.719                    23871382.063
 125249380.460 6  97596947.49643  23834168.906                    23834178.645
 106240949.488 8  82785184.30246  20216981.227                    20216988.980
 109903228.890 8  85638908.03146  20913887.406                    20913894.340
 111645251.553 8  86996317.58346  21245388.445                    21245394.828
 11  8 26 16 19 30.0000000  0 11G10G03G08G11G07G16G28G06G13G19G23
 127912970.420 6  99672332.06043  24340993.734                    24341005.219
 115025573.740 7  89630347.90144  21888640.961                    21888650.340
 122162032.760 7  95191308.48744  23246669.320                    23246678.848
 124727540.487 7  97190336.95043  23734856.734                    23734867.293
 112993787.772 7  88047129.952 7  21501999.141                    21502007.309
 128070922.695 6  99795546.79543  24371092.719                    24371102.395
 125386902.256 6  97704166.17143  23860341.578                    23860351.574
 125339954.120 6  97667524.29043  23851404.906                    23851414.270
 106275379.742 8  82812013.05846  20223533.266                    20223540.695
 109914164.386 8  85647429.19946  20915968.430                    20915975.125
 111728470.883 8  87061163.77646  21261223.992                    21261230.582
 11  8 26 16 20  0.0000000  0 11G10G03G08G11G07G16G28G06G13G19G23
 127953993.748 6  99704298.22443  24348800.914                    24348811.977
 115104993.147 7  89692233.11644  21903754.047                    21903763.660
 122090903.056 7  95135882.79444  23233133.938                    23233143.648
 124649241.817 7  97129325.10043  23719956.633                    23719968.078
 112941456.719 8  88006352.530 7  21492041.016                    21492049.160
 128157583.488 6  99863074.59743  24387583.742                    24387592.965
 125329159.081 6  97659171.56143  23849353.383                    23849363.328
 125430794.083 6  97738308.61543  23868691.164                    23868700.070
 106310394.399 8  82839297.18346  20230195.992                    20230203.953
 109925718.974 8  85656432.77346  20918167.398                    20918173.664
 111812104.198 8  87126332.54546  21277139.133                    21277145.965
 11  8 26 16 20 30.0000000  0 11G10G03G08G11G07G16G28G06G13G19G23
 127995312.210 6  99736494.39343  24356662.539                    24356674.676
 115184836.643 7  89754448.77845  21918947.805                    21918957.297
 122019723.823 7  95080418.52344  23219588.461                    23219598.582
 124570963.007 6  97068328.71443  23705061.008                    23705071.352
 112889222.128 8  87965650.267 7  21482100.859                    21482108.973
 128244165.491 6  99930540.98543  24404059.938                    24404069.453
 125271636.305 6  97614348.66943  23838407.328                    23838417.531
 125521897.397 6  97809298.14743  23886027.109                    23886037.168
 106345992.189 8  82867035.70246  20236969.969                    20236977.895
 109937891.795 8  85665918.08446  20920483.617                    20920489.980
 111896148.813 8  87191821.79846  21293132.023                    21293139.258
 11  8 26 16 21  0.0000000  0 11G10G03G08G11G07G16G28G06G13G19G23
 128036923.389 6  99768918.64043  24364580.922                    24364592.641
 115265101.717 7  89816992.95645  21934222.211                    21934231.250
 121948495.906 7  95024916.30244  23206033.727                    23206044.281
 124492706.990 6  97007350.06943  23690168.930                    23690179.813
 112837085.709 8  87925024.502 7  21472179.945                    21472187.789
 128330667.588 6  99997945.15743  24420520.352                    24420530.367
 125214334.172 7  97569697.69943  23827502.984                    23827512.852
 125613261.518 6  97880490.95443  23903413.406                    23903423.926
 106382172.408 8  82895228.06146  20243855.031                    20243863.258
 109950682.638 8  85675884.96946  20922917.469                    20922924.063
 111980602.369 8  87257629.72345  21309203.141                    21309209.715
 11  8 26 16 21 30.0000000  0 11G10G03G08G11G07G16G28G06G13G19G23
 128078824.902 6  99801569.11843  24372555.461                    24372566.914
 115345785.124 7  89879863.09044  21949575.758                    21949584.906
 121877219.886 7  94969376.61444  23192470.188                    23192480.109
 124414476.427 6  96946391.30843  23675282.477                    23675292.957
 112785048.783 8  87884476.264 7  21462277.484                    21462285.523
 128417089.152 7 100065286.52943  24436966.688                    24436976.219
 125157252.148 7  97525218.26743  23816640.336                    23816650.203
 125704884.059 6  97951885.06243  23920848.656                    23920859.105
 106418934.126 8  82923873.52946  20250850.180                    20250858.266
 109964090.884 8  85686332.95346  20925469.266                    20925475.848
 112065462.316 8  87323754.30745  21325351.539                    21325358.332
 11  8 26 16 22  0.0000000  0 11G10G03G08G11G07G16G28G06G13G19G23
 128121013.962 6  99834443.67743  24380582.945                    24380594.879
 115426884.281 7  89943057.20544  21965008.547                    21965017.672
 121805896.675 7  94913800.11544  23178898.430                    23178907.543
 124336274.457 6  96885454.79843  23660401.156                    23660410.531
 112733112.897 8  87844006.755 7  21452394.125                    21452402.156
 128503429.214 6 100132564.45743  24453396.492                    24453405.563
 125100390.312 7  97480910.34743  23805820.000                    23805829.922
 125796762.432 7  98023478.52543  23938332.680                    23938342.348
 106456276.754 8  82952971.66446  20257956.797                    20257964.594
 109978116.346 8  85697261.88046  20928138.117                    20928144.359
 112150726.281 8  87390193.71645  21341577.328                    21341583.734
 11  8 26 16 22 30.0000000  0 11G10G03G08G11G07G16G28G06G13G19G23
 128163488.189 6  99867540.42243  24388666.070                    24388677.258
 115508396.470 7  90006573.15445  21980519.500                    21980528.695
 121734527.655 7  94858187.93444  23165317.500                    23165327.324
 124258103.627 6  96824542.52743  23645525.172                    23645535.438
 112681279.389 8  87803617.020 7  21442531.016                    21442539.035
 128589686.654 6 100199777.95843  24469811.078                    24469820.039
 125043748.385 7  97436773.82743  23795041.648                    23795051.109
 125888894.212 6  98095269.45344  23955865.430                    23955874.465
 106494199.401 8  82982521.75646  20265172.867                    20265180.480
 109992758.665 8  85708671.47246  20930924.539                    20930930.840
 112236391.858 8  87456946.06845  21357878.664                    21357885.266
 11  8 26 16 23  0.0000000  0 11G10G03G08G11G07G16G28G06G13G19G23
 128206245.081 6  99900857.42843  24396801.484                    24396813.617
 115590318.987 7  90070408.85045  21996108.922                    21996118.324
 121663113.040 7  94802540.25044  23151727.688                    23151737.047
 124179966.851 6  96763656.83343  23630656.055                    23630666.371
 112629549.635 8  87763308.136 7  21432686.781                    21432694.965
 128675860.749 6 100266926.52043  24486209.125                    24486218.258
 124987325.978 7  97392808.33844  23784304.820                    23784314.766
 125981276.843 6  98167255.85244  23973444.531                    23973454.957
 106532700.852 8  83012522.86346  20272499.945                    20272507.434
 110008017.224 8  85720561.25346  20933827.758                    20933834.535
 112322456.486 8  87524009.37045  21374256.227                    21374262.973
 11  8 26 16 23 30.0000000  0 11G10G03G08G11G07G16G28G06G13G19G23
 128249281.826 6  99934392.51543  24404991.758                    24405003.754
 115672649.108 7  90134562.14945  22011775.766                    22011785.367
 121591653.275 7  94746857.34844  23138129.672                    23138138.531
 124101866.964 6  96702799.84243  23615794.938                    23615804.316
 112577924.798 8  87723081.003 7  21422862.742                    21422871.238
 128761950.323 6 100334009.24343  24502591.828                    24502600.762
 124931122.683 7  97349013.59843  23773609.383                    23773619.465
 126073907.391 6  98239435.44343  23991071.852                    23991082.000
 106571780.052 8  83042974.17546  20279936.414                    20279944.004
 110023891.020 8  85732930.44246  20936848.734                    20936855.379
 112408917.334 8  87591381.41045  21390709.055                    21390715.828
 11  8 26 16 24  0.0000000  0 11G10G03G08G11G07G16G28G06G13G19G23
 128292596.131 6  99968143.89143  24413233.961                    24413245.949
 115755384.295 7  90199031.08245  22027519.977                    22027529.215
 121520149.219 7  94691139.96544  23124522.102                    23124532.207
 124023807.065 6  96641974.03243  23600940.828                    23600950.262
 112526406.651 8  87682937.010 7  21413059.234                    21413067.711
 128847955.161 6 100401025.95242  24518957.086                    24518966.551
 124875138.342 7  97305389.47743  23762956.016                    23762965.695
 126166783.740 6  98311806.52843  24008745.492                    24008755.672
 106611436.307 8  83073875.13546  20287482.547                    20287490.188
 110040380.114 8  85745779.08546  20939986.297                    20939992.852
 112495772.263 8  87659060.51945  21407237.234                    21407243.844
 11  8 26 16 24 30.0000000  0 11G10G03G08G11G07G16G28G06G13G19G23
 128336185.408 6 100002109.45643  24421529.445                    24421540.258
 115838521.538 7  90263813.30245  22043340.359                    22043349.707
 121448601.906 7  94635388.86644  23110907.195                    23110917.152
 123945789.862 6  96581181.44243  23586093.992                    23586103.789
 112474996.727 8  87642877.345 7  21403276.273                    21403284.570
 128933873.779 6 100467975.49642  24535307.539                    24535316.387
 124819372.834 7  97261935.86544  23752343.969                    23752353.547
 126259903.235 6  98384367.07843  24026465.414                    24026476.375
 106651668.629 8  83105224.97646  20295138.602                    20295146.352
 110057483.577 8  85759106.45246  20943241.195                    20943247.480
 112583018.617 8  87727044.63945  21423839.414                    21423846.754
 11  8 26 16 25  0.0000000  0 11G10G03G08G11G07G16G28G06G13G19G23
 128380046.812 6 100036287.12943  24429875.602                    24429887.949
 115922057.798 7  90328906.44845  22059236.719                    22059246.559
 121377011.818 7  94579604.43144  23097283.750                    23097293.430
 123867818.303 6  96520424.43443  23571256.484                    23571266.449
 112423696.051 8  87602902.807 7  21393514.188                    21393522.621
 129019705.474 6 100534857.21942  24551640.258                    24551649.695
 124763825.506 7  97218652.27743  23741774.016                    23741783.289
 126353263.106 6  98457114.95743  24044231.453                    24044242.242
 106692475.613 8  83137022.60146  20302904.008                    20302911.402
 110075200.819 8  85772912.09646  20946612.719                    20946619.313
 112670653.966 8  87795331.88446  21440516.195                    21440522.723
 11  8 26 16 25 30.0000000  0 11G10G03G08G11G07G16G28G06G13G19G23
 128424177.922 6 100070674.98643  24438273.594                    24438285.387
 116005990.309 7  90394308.35444  22075208.719                    22075218.309
 121305379.759 7  94523787.28344  23083652.852                    23083662.242
 123789895.032 7  96459705.06743  23556428.438                    23556437.719
 112372506.338 8  87563014.736 7  21383773.109                    21383781.602
 129105449.336 5 100601670.55942  24567957.344                    24567966.641
 124708496.258 7  97175538.63943  23731245.500                    23731254.719
 126446861.075 6  98530048.34343  24062042.492                    24062053.160
 106733856.261 8  83169267.24146  20310778.555                    20310786.434
 110093531.303 8  85787195.57946  20950100.680                    20950107.414
 112758675.606 8  87863920.10546  21457266.086                    21457272.938
 11  8 26 16 26  0.0000000  0 11G10G03G08G11G07G16G28G06G13G19G23
 128468576.098 6 100105270.86843  24446722.734                    24446734.008
 116090316.376 7  90460016.93344  22091255.492                    22091264.875
 121233706.578 7  94467938.11444  23070014.391                    23070023.453
 123712023.204 7  96399025.80643  23541610.102                    23541619.328
 112321429.180 8  87523214.378 7  21374053.664                    21374061.391
 129191104.631 6 100668414.79742  24584256.758                    24584266.953
 124653384.847 7  97132594.74244  23720757.719                    23720767.832
 126540694.350 6  98603165.08044  24079898.234                    24079909.059
 106775809.427 8  83201958.00246  20318761.758                    20318769.484
 110112474.174 8  85801956.25446  20953705.656                    20953712.066
 112847080.713 8  87932807.15045  21474088.859                    21474096.285
 11  8 26 16 26 30.0000000  0 11G10G03G08G11G07G16G28G06G13G19G23
 128513238.639 6 100140072.77843  24455221.789                    24455233.223
 116175033.453 7  90526030.17144  22107376.336                    22107386.191
 121161993.349 7  94412057.73344  23056367.031                    23056376.859
 123634205.636 7  96338388.77743  23526801.508                    23526810.715
 112270465.835 8  87483502.694 7  21364355.664                    21364363.582
 129276670.404 6 100735089.38842  24600539.430                    24600548.875
 124598490.756 7  97089820.19944  23710311.641                    23710321.859
 126634760.571 6  98676463.33044  24097798.750                    24097809.887
 106818334.422 8  83235094.34546  20326854.117                    20326861.688
 110132028.772 8  85817193.60146  20957426.828                    20957433.133
 112935867.002 8  88001991.21045  21490984.359                    21490991.391
 11  8 26 16 27  0.0000000  0 11G10G03G08G11G07G16G28G06G13G19G23
 128558162.834 6 100175078.57843  24463769.500                    24463782.266
 116260138.437 7  90592345.70744  22123571.656                    22123580.840
 121090240.611 7  94356146.55944  23042713.164                    23042722.809
 123556445.250 6  96277796.34043  23512003.758                    23512013.688
 112219617.738 8  87443880.828 7  21354679.352                    21354687.313
 129362145.904 6 100801693.55143  24616805.266                    24616814.969
 124543813.412 7  97047214.54843  23699906.305                    23699916.848
 126729056.884 6  98749940.89043  24115742.898                    24115753.336
 106861429.526 8  83268674.91846  20335054.828                    20335062.664
 110152194.383 8  85832907.06046  20961264.125                    20961270.605
 113025032.012 8  88071470.38045  21507952.094                    21507958.953
 11  8 26 16 27 30.0000000  0 11G10G03G08G11G07G16G28G06G13G19G23
 128603346.254 6 100210286.42343  24472368.289                    24472380.660
 116345628.661 7  90658961.41844  22139839.961                    22139849.246
 121018449.316 7  94300205.33944  23029051.430                    23029061.043
 123478744.885 6  96217250.64643  23497216.945                    23497227.438
 112168886.506 8  87404350.004 7  21345025.563                    21345033.578
 129447530.232 6 100868226.72743  24633053.898                    24633063.859
 124489352.518 7  97004777.55544  23689542.406                    23689553.078
 126823580.946 6  98823595.91743  24133730.375                    24133740.453
 106905093.628 8  83302698.87046  20343363.914                    20343371.566
 110172970.276 8  85849096.06346  20965217.492                    20965223.836
 113114572.736 8  88141242.30945  21524991.203                    21524998.098
 11  8 26 16 28  0.0000000  0 11G10G03G08G11G07G16G28G06G13G19G23
 128648786.344 6 100245694.20743  24481015.578                    24481027.324
 116431500.939 7  90725874.84544  22156180.375                    22156189.980
 120946619.768 7  94244234.30644  23015382.531                    23015392.199
 123401107.188 6  96156753.82644  23482444.453                    23482453.953
 112118273.478 8  87364911.308 7  21335394.258                    21335402.398
 129532822.314 6 100934687.99543  24649284.289                    24649293.449
 124435108.090 7  96962509.22043  23679220.883                    23679230.867
 126918330.100 6  98897426.33543  24151760.766                    24151770.895
 106949325.357 8  83337165.13546  20351780.820                    20351788.508
 110194355.625 8  85865759.96046  20969287.305                    20969293.453
 113204486.823 8  88211305.17745  21542101.102                    21542107.859
 11  8 26 16 28 30.0000000  0 11G10G03G08G11G07G16G28G06G13G19G23
 128694480.314 6 100281299.82243  24489710.422                    24489722.254
 116517752.722 7  90793083.97944  22172594.391                    22172603.426
 120874753.205 7  94188234.43244  23001707.227                    23001716.766
 123323535.419 6  96096308.32944  23467683.195                    23467692.871
 112067780.304 8  87325565.992 7  21325785.516                    21325793.910
 129618021.724 6 101001077.05743  24665497.000                    24665506.883
 124381079.642 7  96920409.19144  23668938.961                    23668949.742
 127013301.789 6  98971430.17343  24169833.203                    24169843.609
 106994123.667 8  83372072.88946  20360305.813                    20360313.707
 110216349.686 8  85882898.18946  20973472.750                    20973479.117
 113294771.613 8  88281656.90145  21559282.219                    21559288.922
 11  8 26 16 29  0.0000000  0 11G10G03G08G11G07G16G28G06G13G19G23
 128740425.352 6 100317101.12443  24498453.430                    24498465.738
 116604381.348 7  90860586.75844  22189078.664                    22189088.195
 120802850.859 7  94132206.68144  22988024.391                    22988034.016
 123246032.358 6  96035916.41144  23452934.406                    23452944.711
 112017408.492 8  87286315.257 7  21316200.227                    21316208.105
 129703127.793 6 101067393.39043  24681692.461                    24681701.434
 124327266.604 7  96878477.02144  23658698.953                    23658709.160
 127108493.548 7  99045605.47643  24187947.852                    24187957.934
 107039487.476 8  83407421.29146  20368938.250                    20368946.184
 110238951.397 8  85900509.91646  20977773.305                    20977779.977
 113385424.344 8  88352295.33645  21576532.930                    21576539.391
 11  8 26 16 29 30.0000000  0 11G10G03G08G11G07G16G28G06G13G19G23
 128786619.353 6 100353096.38343  24507243.906                    24507255.945
 116691383.731 7  90928380.77844  22205634.625                    22205643.867
 120730913.096 7  94076151.33544  22974334.859                    22974344.445
 123168600.983 7  95975580.31944  23438199.781                    23438209.793
 111967159.479 8  87247160.192 7  21306637.594                    21306646.012
 129788139.581 6 101133636.26343  24697869.398                    24697879.023
 124273668.463 7  96836712.30244  23648499.313                    23648509.965
 127203902.640 6  99119950.17643  24206103.469                    24206113.496
 107085415.041 8  83443208.98546  20377678.023                    20377685.566
 110262160.039 8  85918594.56546  20982189.664                    20982196.160
 113476442.251 8  88423218.32845  21593853.250                    21593859.441
 11  8 26 16 30  0.0000000  0 11G10G03G08G11G07G16G28G06G13G19G23
 128833059.253 6 100389283.26343  24516081.156                    24516093.539
 116778757.222 7  90996463.96644  22222261.875                    22222271.293
 120658940.809 7  94020069.07844  22960639.453                    22960648.805
 123091244.203 7  95915302.33044  23423478.727                    23423489.000
 111917034.934 8  87208102.124 7  21297099.789                    21297107.672
 129873056.157 6 101199804.94243  24714028.945                    24714038.746
 124220284.961 6  96795114.82344  23638340.984                    23638350.871
 127299526.774 6  99194462.40443  24224300.563                    24224310.762
 107131905.354 8  83479435.18246  20386524.898                    20386532.348
 110285974.769 8  85937151.49946  20986721.594                    20986728.066
 113567823.087 8  88494424.11445  21611242.133                    21611248.844
 11  8 26 16 30 30.0000000  0 11G10G03G08G11G07G16G28G06G13G19G23
 128879742.429 6 100425659.71543  24524965.148                    24524976.953
 116866499.012 7  91064834.17044  22238958.820                    22238967.887
 120586935.339 7  93963960.96944  22946937.492                    22946946.676
 123013965.132 7  95855084.93444  23408773.313                    23408783.355
 111867036.206 8  87169142.087 7  21287585.477                    21287593.102
 129957877.274 6 101265899.22643  24730169.164                    24730179.285
 124167115.704 6  96753684.29644  23628222.859                    23628233.188
 127395363.337 6  99269140.16943  24242537.383                    24242547.547
 107178957.298 8  83516099.01246  20395478.555                    20395486.086
 110310394.798 8  85956180.08546  20991368.727                    20991374.711
 113659563.734 8  88565910.27645  21628699.852                    21628706.707
 11  8 26 16 31  0.0000000  0 11G10G03G08G11G07G16G28G06G13G19G23
 128926666.106 6 100462223.55443  24533894.531                    24533905.605
 116954605.798 7  91133488.76344  22255725.086                    22255733.586
 120514897.405 7  93907827.55644  22933228.766                    22933237.883
 122936766.721 7  95794930.36944  23394083.156                    23394093.031
 111817164.924 8  87130281.371 7  21278094.938                    21278103.113
 130042601.522 6 101331918.01143  24746292.289                    24746302.145
 124114160.420 6  96712420.49744  23618145.391                    23618155.832
 127491409.731 6  99343981.45543  24260814.617                    24260824.484
 107226569.194 8  83553199.16846  20404538.531                    20404546.426
 110335418.812 8  85975679.32546  20996130.438                    20996137.051
 113751661.871 8  88637674.99045  21646226.070                    21646232.629
 11  8 26 16 31 30.0000000  0 11G10G03G08G11G07G16G28G06G13G19G23
 128973827.746 6 100498972.84643  24542869.266                    24542880.793
 117043075.094 7  91202425.83344  22272559.758                    22272568.949
 120442827.690 7  93851669.38445  22919514.602                    22919524.066
 122859651.625 7  95734840.71844  23379407.984                    23379418.492
 111767422.980 8  87091521.427 7  21268629.242                    21268637.352
 130127228.689 6 101397861.15843  24762395.547                    24762406.535
 124061418.758 7  96671323.14144  23608109.672                    23608119.355
 127587663.327 6  99418984.17743  24279130.734                    24279141.605
 107274739.876 8  83590734.74546  20413705.273                    20413712.973
 110361046.139 8  85995648.67346  21001007.211                    21001013.500
 113844114.857 8  88709716.20245  21663818.742                    21663825.965
 11  8 26 16 32  0.0000000  0 11G10G03G08G11G07G16G28G06G13G19G23
 129021224.337 6 100535905.17143  24551888.734                    24551900.027
 117131903.518 7  91271642.74044  22289463.695                    22289472.855
 120370727.130 7  93795487.18644  22905793.492                    22905804.000
 122782622.796 7  95674818.32544  23364750.336                    23364760.285
 111717811.086 8  87052862.827 7  21259188.531                    21259196.344
 130211758.107 6 101463728.14642  24778481.711                    24778491.273
 124008889.719 6  96630391.49244  23598113.531                    23598123.602
 127684121.587 6  99494146.38843  24297485.367                    24297496.859
 107323467.386 8  83628704.20946  20422977.844                    20422985.781
 110387275.316 8  86016086.98746  21005998.445                    21006004.766
 113936919.484 8  88782031.43745  21681478.945                    21681486.172
 11  8 26 16 32 30.0000000  0 11G10G03G08G11G07G16G28G06G13G19G23
 129068853.736 6 100573018.93143  24560952.266                    24560964.082
 117221088.890 7  91341137.78344  22306434.633                    22306444.109
 120298596.988 7  93739281.90345  22892068.188                    22892077.539
 122705683.718 7  95614865.82144  23350109.891                    23350119.355
 111668331.434 8  87014307.270 7  21249772.922                    21249780.988
 130296188.427 6 101529517.93243  24794548.234                    24794558.449
 123956573.085 7  96589625.31844  23588158.094                    23588168.266
 127780782.045 6  99569466.11143  24315879.930                    24315890.578
 107372750.955 8  83667106.95946  20432356.430                    20432364.070
 110414105.570 8  86036993.68846  21011104.063                    21011110.398
 114030073.228 8  88854618.69845  21699205.352                    21699212.910
 11  8 26 16 33  0.0000000  0 11G10G03G08G11G07G16G28G06G13G19G23
 129116713.071 6 100610311.83842  24570059.508                    24570070.926
 117310628.391 7  91410908.75444  22323473.664                    22323483.164
 120226438.231 7  93683054.35345  22878336.445                    22878346.289
 122628836.838 7  95554985.19444  23335485.773                    23335495.191
 111618985.822 8  86975856.164 7  21240382.758                    21240390.719
 130380519.506 6 101595230.35043  24810596.695                    24810606.297
 123904468.845 7  96549024.66444  23578242.914                    23578252.457
 127877642.155 6  99644941.40143  24334311.898                    24334323.410
 107422589.163 8  83705941.90646  20441839.891                    20441847.906
 110441536.128 8  86058368.15346  21016323.938                    21016330.453
 114123573.659 8  88927476.10445  21716998.313                    21717005.223
 11  8 26 16 33 30.0000000  0 11G10G03G08G11G07G16G28G06G13G19G23
 129164799.559 6 100647781.76643  24579209.695                    24579221.941
 117400518.815 7  91480953.18644  22340579.352                    22340588.824
 120154251.677 7  93626805.12944  22864599.680                    22864609.098
 122552085.262 7  95495178.81944  23320880.742                    23320889.203
 111569775.625 8  86937510.584 7  21231018.313                    21231026.270
 130464750.673 6 101660864.97942  24826624.781                    24826634.969
 123852576.254 7  96508588.91444  23568368.125                    23568377.203
 127974699.544 6  99720570.42843  24352782.063                    24352792.762
 107472980.273 8  83745207.68546  20451429.484                    20451437.125
 110469565.759 8  86080209.42346  21021658.078                    21021664.203
 114217417.922 8  89000601.44345  21734856.344                    21734862.930
 11  8 26 16 34  0.0000000  0 11G10G03G08G11G07G16G28G06G13G19G23
 129213110.241 6 100685426.34942  24588403.391                    24588415.156
 117490756.968 7  91551268.56744  22357751.250                    22357760.500
 120082038.187 7  93570534.91445  22850857.633                    22850867.691
 122475431.801 7  95435448.90644  23306292.727                    23306303.609
 111520702.110 8  86899271.482 7  21221679.852                    21221687.742
 130548880.852 6 101726420.91942  24842633.992                    24842643.734
 123800894.791 7  96468317.70244  23558533.500                    23558543.246
 128071951.304 6  99796350.90443  24371288.148                    24371299.211
 107523922.523 8  83784902.91446  20461123.125                    20461131.215
 110498193.142 8  86102516.48046  21027105.852                    21027111.906
 114311603.304 8  89073992.57845  21752779.008                    21752786.422
 11  8 26 16 34 30.0000000  0 11G10G03G08G11G07G16G28G06G13G19G23
 129261642.800 6 100723243.88942  24597637.750                    24597651.480
 117581340.506 7  91621853.08344  22374989.047                    22374997.676
 120009799.108 7  93514244.76044  22837111.742                    22837120.902
 122398879.768 7  95375798.03443  23291725.945                    23291735.305
 111471767.314 8  86861140.495 7  21212367.906                    21212375.699
 130632909.523 6 101791897.72242  24858623.602                    24858633.965
 123749424.191 7  96428210.78544  23548738.844                    23548748.410
 128169395.157 6  99872281.06443  24389831.359                    24389842.434
 107575415.121 8  83825026.99246  20470921.844                    20470929.992
 110527417.402 8  86125288.62646  21032666.320                    21032673.270
 114406127.151 8  89147647.45445  21770766.930                    21770773.469
 11  8 26 16 35  0.0000000  0 11G10G03G08G11G07G16G28G06G13G19G23
 129310394.448 6 100761232.07142  24606916.211                    24606927.754
 117672266.262 7  91692704.25644  22392291.555                    22392300.484
 119937534.864 7  93457935.01445  22823360.305                    22823369.500
 122322431.854 7  95316228.29443  23277178.391                    23277187.340
 111422972.515 8  86823118.590 7  21203082.461                    21203090.809
 130716836.013 6 101857294.94742  24874595.586                    24874605.094
 123698163.586 7  96388267.50244  23538984.141                    23538993.840
 128267028.251 6  99948358.70943  24408410.602                    24408421.270
 107627455.599 8  83865577.99346  20480825.023                    20480832.855
 110557237.097 8  86148524.75446  21038340.828                    21038347.484
 114500986.403 8  89221563.68545  21788817.695                    21788824.711
 11  8 26 16 35 30.0000000  0 10G10G03G08G11G07G28G06G13G19G23
 129359362.406 6 100799388.89142  24616233.563                    24616246.426
 117763531.573 7  91763820.02044  22409658.711                    22409668.309
 119865246.737 7  93401606.63344  22809603.984                    22809613.488
 122246091.252 6  95256742.17543  23262651.172                    23262660.559
 111374319.476 8  86785207.135 7  21193824.031                    21193831.977
 123647112.456 7  96348487.44944  23529269.891                    23529278.902
 128364848.384 6 100024582.08544  24427025.023                    24427035.777
 107680042.764 8  83906554.98246  20490831.852                    20490839.945
 110587651.197 8  86172224.04946  21044128.891                    21044134.895
 114596178.544 8  89295739.30945  21806932.453                    21806939.402
 11  8 26 16 36  0.0000000  0 10G10G03G08G11G07G28G06G13G19G23
 129408544.133 6 100837712.26142  24625593.867                    24625604.730
 117855133.535 7  91835198.10044  22427090.063                    22427099.352
 119792935.713 7  93345260.41944  22795843.727                    22795852.934
 122169860.814 7  95197341.91743  23248144.586                    23248154.254
 111325809.785 8  86747407.399 7  21184593.328                    21184601.145
 123596270.617 7  96308870.48844  23519594.664                    23519603.910
 128462853.058 7 100100949.28243  24445674.281                    24445685.621
 107733175.163 8  83947956.81746  20500943.055                    20500950.797
 110618658.644 8  86196385.69546  21050029.188                    21050035.848
 114691700.780 8  89370172.14245  21825109.500                    21825116.457
 11  8 26 16 36 30.0000000  0 10G10G03G08G11G07G28G06G13G19G23
 129457936.895 6 100876200.04543  24634992.180                    24635004.477
 117947069.229 7  91906836.26144  22444584.750                    22444594.234
 119720602.806 7  93288897.14944  22782079.031                    22782088.504
 122093743.418 7  95138029.74844  23233660.492                    23233669.910
 111277445.187 8  86709720.699 7  21175389.477                    21175397.727
 123545637.393 7  96269416.07643  23509958.859                    23509968.457
 128561039.515 7 100177458.13043  24464358.734                    24464369.934
 107786851.061 8  83989782.16646  20511156.789                    20511164.910
 110650257.938 8  86221008.52046  21056042.297                    21056049.133
 114787550.142 8  89444859.89245  21843349.055                    21843356.137
 11  8 26 16 37  0.0000000  0 10G10G03G08G11G07G28G06G13G19G23
 129507537.752 6 100914849.97042  24644431.859                    24644442.848
 118039335.705 7  91978732.14144  22462142.750                    22462151.816
 119648249.115 7  93232517.70644  22768310.297                    22768319.984
 122017742.172 7  95078808.07844  23219197.555                    23219207.055
 111229227.177 8  86672148.244 7  21166214.133                    21166222.215
 123495212.552 7  96230124.05544  23500363.734                    23500372.902
 128659405.257 6 100254106.66243  24483077.273                    24483088.180
 107841068.903 8  84032029.81246  20521474.219                    20521482.523
 110682447.820 8  86246091.54346  21062168.141                    21062174.617
 114883723.944 7  89519800.44345  21861650.305                    21861657.547
 11  8 26 16 37 30.0000000  0 10G10G03G08G11G07G28G06G13G19G23
 129557343.768 6 100953659.82142  24653908.555                    24653920.961
 118131929.861 7  92050883.38744  22479762.242                    22479771.875
 119575875.766 7  93176122.91544  22754538.164                    22754547.734
 121941860.096 7  95019679.25544  23204757.719                    23204767.117
 111181157.492 8  86634691.348 7  21157066.719                    21157074.816
 123444995.056 7  96190993.58744  23490807.586                    23490816.906
 128757947.821 6 100330893.00643  24501829.844                    24501839.918
 107895826.856 8  84074698.31946  20531894.461                    20531902.473
 110715227.003 8  86271633.75846  21068405.695                    21068412.043
 114980219.566 8  89594991.76845  21880013.398                    21880019.984
 11  8 26 16 38  0.0000000  0 10G10G03G08G11G07G28G06G13G19G23
 129607352.673 6 100992627.72642  24663425.094                    24663437.773
 118224849.242 7  92123288.03244  22497444.406                    22497453.973
 119503484.001 7  93119713.79244  22740762.852                    22740771.934
 121866100.183 7  94960645.63844  23190340.703                    23190350.453
 111133237.965 8  86597351.478 7  21147948.047                    21147955.480
 123394984.977 7  96152024.76844  23481290.172                    23481300.164
 128856664.774 6 100407815.24242  24520614.797                    24520625.480
 107951123.700 8  84117786.73946  20542416.766                    20542425.055
 110748594.380 8  86297634.30546  21074755.500                    21074761.766
 115077034.056 7  89670431.54745  21898436.453                    21898443.402
 11  8 26 16 38 30.0000000  0 10G10G03G08G11G07G28G06G13G19G23
 129657561.649 6 101031751.47542  24672979.906                    24672992.137
 118318090.598 7  92195943.57544  22515187.117                    22515196.930
 119431074.988 7  93063291.20745  22726983.852                    22726993.004
 121790465.396 7  94901709.53444  23175948.125                    23175957.660
 111085470.121 8  86560129.786 7  21138857.781                    21138865.793
 123345181.510 6  96113216.92044  23471812.773                    23471823.313
 128955553.695 6 100484871.46942  24539432.781                    24539443.188
 108006957.602 8  84161293.65446  20553042.266                    20553050.102
 110782548.612 8  86324092.13346  21081216.648                    21081222.996
 115174164.896 7  89746117.84045  21916919.609                    21916926.758
 11  8 26 16 39  0.0000000  0 10G10G03G08G11G07G28G06G13G19G23
 129707967.649 6 101071028.80643  24682572.305                    24682583.902
 118411651.021 6  92268847.72244  22532991.250                    22533001.512
 119358649.523 7  93006855.81345  22713201.586                    22713210.363
 121714958.616 7  94842873.13844  23161579.609                    23161589.672
 111037855.442 8  86523027.449 7  21129797.266                    21129805.070
 123295584.073 6  96074569.63844  23462375.156                    23462385.359
 129054611.849 5 100562059.62742  24558282.406                    24558293.031
 108063326.247 8  84205217.24646  20563768.789                    20563776.813
 110817088.156 8  86351006.06046  21087789.141                    21087795.965
 115271608.994 8  89822048.23745  21935462.609                    21935470.008
 11  8 26 16 39 30.0000000  0 10G10G03G08G11G07G28G06G13G19G23
 129758567.927 6 101110457.53543  24692200.844                    24692212.934
 118505527.607 7  92341998.23944  22550856.102                    22550865.527
 119286208.666 7  92950408.43344  22699416.250                    22699425.742
 121639583.088 7  94784139.02444  23147236.367                    23147245.359
 110990395.624 8  86486045.787 7  21120766.016                    21120773.898
 123246191.855 7  96036082.24644  23452976.391                    23452985.586
 129153836.669 5 100639377.55042  24577164.359                    24577175.586
 108120228.191 8  84249556.39346  20574596.758                    20574604.738
 110852211.625 8  86378374.99146  21094472.758                    21094479.527
 115369363.605 7  89898220.57745  21954065.055                    21954072.250
 11  8 26 16 40  0.0000000  0 10G10G03G08G11G07G28G06G13G19G23
 129809360.080 6 101150035.72843  24701866.844                    24701878.652
 118599717.711 7  92415393.07644  22568779.797                    22568789.836
 119213753.621 7  92893950.00144  22685628.961                    22685637.727
 121564341.799 7  94725509.53044  23132917.875                    23132927.965
 110943092.743 8  86449186.403 7  21111764.406                    21111772.508
 123197004.771 7  95997754.70444  23443616.305                    23443625.523
 129253225.889 5 100716823.58643  24596076.961                    24596089.098
 108177661.866 8  84294309.87946  20585525.719                    20585533.945
 110887917.980 8  86406198.12346  21101267.273                    21101274.152
 115467426.015 7  89974632.76045  21972725.695                    21972732.840
 11  8 26 16 40 30.0000000  0 10G10G03G08G11G07G28G06G13G19G23
 129860341.119 6 101189761.13043  24711568.086                    24711579.992
 118694218.084 7  92489029.65944  22586762.891                    22586772.133
 119141285.119 7  92837481.07045  22671838.406                    22671847.875
 121489237.460 7  94666986.73244  23118626.391                    23118636.199
 110895947.810 8  86412450.114 7  21102793.094                    21102800.922
 123148021.579 6  95959586.03944  23434295.086                    23434304.813
 129352776.708 6 100794395.55243  24615022.188                    24615033.387
 108235624.967 8  84339475.90846  20596555.969                    20596563.883
 110924205.217 8  86434473.87646  21108172.789                    21108179.410
 115565792.884 7  90051282.17745  21991444.133                    21991451.605
 11  8 26 16 41  0.0000000  0 10G10G03G08G11G07G28G06G13G19G23
 129911508.556 6 101229631.77943  24721305.242                    24721316.184
 118789026.150 7  92562906.00844  22604803.898                    22604813.789
 119068804.820 7  92781002.94444  22658045.641                    22658055.082
 121414273.313 7  94608573.18944  23104361.117                    23104370.645
 110848963.177 8  86375838.723 7  21093852.133                    21093860.160
 123099242.202 7  95921576.18644  23425012.281                    23425021.926
 129452486.865 6 100872091.66743  24633995.797                    24634007.316
 108294116.394 8  84385053.61446  20607686.711                    20607694.520
 110961072.241 8  86463201.42546  21115188.406                    21115194.746
 115664461.995 7  90128167.12445  22010220.000                    22010227.555
 11  8 26 16 41 30.0000000  0 10G10G03G08G11G07G28G06G13G19G23
 129962859.120 6 101269645.12243  24731077.031                    24731088.531
 118884138.999 7  92637019.83844  22622903.039                    22622913.293
 118996313.441 7  92724516.19645  22644250.781                    22644260.559
 121339452.245 7  94550271.12944  23090123.047                    23090132.406
 110802140.390 8  86339353.449 7  21084941.961                    21084949.891
 123050665.901 6  95883724.59044  23415768.766                    23415778.668
 129552353.654 6 100949909.86243  24653000.305                    24653011.996
 108353133.800 8  84431041.17046  20618917.109                    20618925.145
 110998517.002 8  86492379.14246  21122314.234                    21122320.711
 115763430.167 7  90205285.09845  22029053.750                    22029060.531
 11  8 26 16 42  0.0000000  0 10G10G03G08G11G07G28G06G13G19G23
 130014390.167 6 101309799.07643  24740882.844                    24740894.504
 118979553.427 6  92711368.65544  22641060.234                    22641070.492
 118923811.954 7  92668021.57045  22630454.422                    22630463.855
 121264777.194 7  94492082.86144  23075912.156                    23075922.262
 110755480.697 8  86302995.260 7  21076062.852                    21076070.918
 123002291.817 6  95846030.52944  23406563.641                    23406572.914
 129652374.487 6 101027848.07944  24672033.609                    24672045.301
 108412675.248 8  84477437.07746  20630247.828                    20630255.434
 111036538.743 8  86522006.46246  21129549.266                    21129555.418
 115862694.296 7  90282633.67745  22047942.961                    22047950.477
 11  8 26 16 42 30.0000000  0 10G10G03G08G11G07G28G06G13G19G23
 130066099.208 6 101350091.74143  24750722.633                    24750734.918
 119075266.545 7  92785950.21444  22659274.227                    22659283.535
 118851302.187 7  92611520.48945  22616656.516                    22616665.555
 121190251.544 6  94434010.99044  23061731.063                    23061740.105
 110708986.312 8  86266765.879 7  21067215.539                    21067223.004
 122954119.772 6  95808493.91144  23397396.031                    23397406.160
 129752546.992 6 101105904.48344  24691096.602                    24691107.480
 108472738.926 8  84524239.91246  20641677.383                    20641685.320
 111075135.583 8  86552081.92146  21136893.906                    21136900.324
 115962251.767 7  90360210.84645  22066887.930                    22066895.219
 11  8 26 16 43  0.0000000  0 10G10G03G08G11G07G28G06G13G19G23
 130117983.173 6 101390520.67543  24760596.086                    24760607.773
 119171275.706 7  92860762.47744  22677544.445                    22677553.777
 118778785.341 7  92555013.87444  22602856.992                    22602865.953
 121115877.969 7  94376057.59643  23047577.852                    23047587.406
 110662658.880 8  86230666.588 7  21058399.633                    21058407.551
 122906149.113 7  95771114.21244  23388268.070                    23388277.801
 129852868.696 6 101184077.15643  24710186.781                    24710198.266
 108533323.130 8  84571448.36346  20653206.250                    20653214.207
 111114305.513 8  86582603.93746  21144348.086                    21144354.621
 116062099.715 7  90438014.36045  22085888.992                    22085896.180
 11  8 26 16 43 30.0000000  0 10G10G03G08G11G07G28G06G13G19G23
 130170039.738 6 101431084.14243  24770501.836                    24770514.152
 119267577.946 7  92935803.11744  22695869.898                    22695879.559
 118706262.343 7  92498502.49945  22589055.992                    22589065.043
 121041659.710 7  94318225.24344  23033454.758                    23033463.465
 110616500.329 8  86194698.899 7  21049615.977                    21049623.563
 122858379.231 7  95733890.98044  23379177.188                    23379186.977
 129953337.413 6 101262364.35043  24729305.164                    24729316.855
 108594426.004 8  84619060.96246  20664833.656                    20664841.660
 111154047.690 8  86613571.85346  21151910.586                    21151917.016
 116162235.774 7  90516042.35645  22104943.867                    22104951.457
 11  8 26 16 44  0.0000000  0 11G10G03G08G11G07G01G28G06G13G19G23
 130222265.729 6 101471779.64043  24780440.516                    24780452.770
 119364170.443 7  93011069.91544  22714251.063                    22714260.504
 118633734.612 7  92441987.40545  22575254.688                    22575264.109
 120967599.527 7  94260516.09644  23019361.375                    23019371.410
 110570511.726 8  86158863.636 7  21040864.469                    21040872.348
 129679713.07416 101049045.03216  24677203.844                    24677219.383
 122810809.263 7  95696823.51344  23370125.664                    23370135.438
 130053950.290 6 101340763.91543  24748450.680                    24748462.242
 108656045.448 8  84667076.08646  20676559.172                    20676567.637
 111194360.381 8  86644984.33046  21159581.828                    21159588.203
 116262656.515 7  90594292.19945  22124053.711                    22124060.754
 11  8 26 16 44 30.0000000  0 11G10G03G08G11G07G01G28G06G13G19G23
 130274658.584 6 101512605.11543  24790410.219                    24790422.750
 119461049.994 7  93086560.40144  22732686.523                    22732695.961
 118561203.143 7  92385469.43145  22561452.313                    22561461.477
 120893700.507 7  94202932.48843  23005298.461                    23005307.891
 110524695.352 8  86123162.569 7  21032145.789                    21032153.461
 129605112.885 6 100990915.149 6  24663008.469                    24663024.000
 122763438.619 7  95659911.36044  23361111.188                    23361120.953
 130154705.137 6 101419274.08643  24767623.930                    24767635.617
 108718179.510 8  84715492.20246  20688383.148                    20688391.453
 111235241.915 8  86676840.06046  21167361.203                    21167367.820
 116363359.301 7  90672761.80345  22143216.438                    22143224.098
 11  8 26 16 45  0.0000000  0 11G10G03G08G11G07G01G28G06G13G19G23
 130327215.355 6 101553558.38143  24800412.266                    24800424.301
 119558213.716 7  93162272.31644  22751176.156                    22751186.207
 118488669.426 7  92328949.67445  22547649.766                    22547658.883
 120819966.078 7  94145477.12544  22991267.641                    22991276.820
 110479052.806 8  86087596.964 7  21023460.680                    21023468.453
 129530395.990 6 100932694.316 6  24648789.297                    24648805.328
 122716266.834 7  95623154.17744  23352134.477                    23352144.285
 130255599.186 5 101497892.74842  24786823.641                    24786835.324
 108780825.904 8  84764307.54446  20700304.297                    20700312.668
 111276690.484 8  86709137.63646  21175248.906                    21175255.770
 116464341.100 7  90751448.82345  22162432.992                    22162440.250
 11  8 26 16 45 30.0000000  0 11G10G03G08G11G07G01G28G06G13G19G23
 130379933.735 6 101594637.51243  24810443.445                    24810456.125
 119655659.116 7  93238203.72044  22769719.586                    22769728.902
 118416134.755 7  92272429.19545  22533846.531                    22533855.766
 120746399.219 7  94088152.35444  22977268.539                    22977277.031
 110433586.298 8  86052168.541 7  21014808.055                    21014816.227
 129455565.068 6 100874384.618 6  24634549.273                    24634565.355
 122669293.388 7  95586551.52444  23343195.750                    23343204.836
 130356630.178 5 101576618.10742  24806050.477                    24806061.387
 108843983.423 8  84813521.16646  20712322.961                    20712331.047
 111318704.806 7  86741876.06246  21183244.094                    21183250.668
 116565599.169 7  90830351.10445  22181701.891                    22181709.641
 11  8 26 16 46  0.0000000  0 11G10G03G08G11G07G01G28G06G13G19G23
 130432810.593 6 101635840.15043  24820506.367                    24820518.516
 119753383.208 7  93314352.27444  22788316.078                    22788325.590
 118343600.177 7  92215908.78245  22520043.633                    22520053.023
 120673002.753 7  94030960.34744  22963301.281                    22963310.359
 110388297.418 8  86016878.506 7  21006190.180                    21006198.320
 129380623.150 6 100815988.439 6  24620288.781                    24620304.777
 122622517.615 7  95550102.92444  23334294.367                    23334303.832
 130457795.700 6 101655448.28942  24825301.414                    24825311.996
 108907649.770 8  84863131.27946  20724438.164                    20724446.496
 111361282.955 7  86775053.82946  21191345.961                    21191352.652
 116667130.619 7  90909466.41845  22201022.781                    22201030.359
 11  8 26 16 46 30.0000000  0 11G10G03G08G11G07G01G28G06G13G19G23
 130485843.215 6 101677164.16443  24830597.836                    24830610.438
 119851382.409 6  93390715.22743  22806964.469                    22806973.910
 118271066.734 7  92159389.24845  22506240.766                    22506250.180
 120599779.787 7  93973903.50844  22949367.781                    22949376.309
 110343187.448 8  85981727.898 7  20997606.180                    20997613.742
 129305572.356 6 100757507.439 6  24606007.461                    24606023.297
 122575938.872 7  95513807.83544  23325431.055                    23325440.777
 130559093.221 6 101734381.38242  24844577.992                    24844588.668
 108971822.688 8  84913136.12046  20736650.047                    20736658.043
 111404423.332 8  86808669.69346  21199555.211                    21199562.012
 116768932.508 7  90988792.47045  22220395.109                    22220402.414
 11  8 26 16 47  0.0000000  0 11G10G03G08G11G07G01G28G06G13G19G23
 130539028.476 6 101718607.10243  24840718.461                    24840731.719
 119949654.586 7  93467290.87543  22825665.289                    22825674.668
 118198535.872 7  92102871.72245  22492438.664                    22492448.172
 120526733.232 7  93916984.15144  22935467.672                    22935476.711
 110298258.214 8  85946718.116 7  20989056.273                    20989064.453
 129230414.789 6 100698943.236 6  24591704.156                    24591720.484
 122529556.228 7  95477665.55944  23316604.773                    23316613.836
 130660520.204 6 101813415.31542  24863878.063                    24863889.414
 109036499.964 8  84963533.95846  20748957.789                    20748965.555
 111448123.896 7  86842722.07346  21207870.992                    21207878.039
 116871001.892 7  91068326.93745  22239818.406                    22239826.000
 11  8 26 16 47 30.0000000  0 10G10G03G08G11G07G01G28G13G19G23
 130592364.169 6 101760167.26643  24850868.297                    24850880.555
 120048196.921 7  93544077.01643  22844417.008                    22844427.043
 118126009.293 7  92046357.55545  22478637.336                    22478646.941
 120453866.391 7  93860204.83144  22921600.867                    22921610.234
 110253512.008 8  85911850.949 7  20980541.203                    20980549.063
 129155153.514 6 100640298.192 6  24577382.906                    24577398.605
 122483369.161 7  95441675.70544  23307815.516                    23307825.066
 109101679.869 8  85014323.47046  20761360.852                    20761369.152
 111492383.167 7  86877209.79446  21216293.563                    21216300.582
 116973336.177 7  91148067.85645  22259291.984                    22259299.238
 11  8 26 16 48  0.0000000  0 11G10G03G08G11G07G01G28G24G13G19G23
 130645847.190 6 101801842.20943  24861045.664                    24861057.984
 120147006.295 7  93621071.25543  22863220.016                    22863230.035
 118053488.558 7  91989847.90845  22464837.078                    22464846.070
 120381182.475 7  93803568.03644  22907769.617                    22907779.164
 110208950.730 8  85877127.896 7  20972061.648                    20972069.836
 129079791.608 6 100581574.756 6  24563041.977                    24563057.668
 122437377.158 7  95405837.80944  23299063.109                    23299072.867
 128065726.80316  99791567.12553  24370107.141                    24370120.691
 109167360.471 8  85065503.11946  20773859.711                    20773868.141
 111537199.602 7  86912131.68646  21224822.211                    21224828.477
 117075932.154 7  91228012.65545  22278815.000                    22278822.902
 11  8 26 16 48 30.0000000  0 11G10G03G08G11G07G01G28G24G13G19G23
 130699474.079 6 101843629.29643  24871251.375                    24871264.043
 120246079.028 7  93698270.71243  22882073.422                    22882082.605
 117980973.983 7  91933343.07645  22451038.195                    22451047.320
 120308683.406 7  93747075.26544  22893973.555                    22893982.957
 110164575.145 8  85842549.520 7  20963616.844                    20963624.684
 129004330.491 6 100522774.078 6  24548681.656                    24548697.406
 122391579.007 7  95370151.00144  23290348.328                    23290357.723
 127994150.327 6  99735793.39643  24356486.070                    24356500.488
 109233538.840 8  85117070.65546  20786453.180                    20786461.102
 111582570.499 7  86947485.62546  21233455.758                    21233462.340
 117178786.425 7  91308158.72945  22298387.742                    22298395.500
 11  8 26 16 49  0.0000000  0 11G10G03G08G11G07G01G28G24G13G19G23
 130753242.485 6 101885526.59443  24881483.242                    24881495.734
 120345412.791 7  93775673.55643  22900975.805                    22900985.070
 117908466.891 7  91876844.08245  22437240.352                    22437249.605
 120236372.810 7  93690729.39644  22880213.813                    22880222.578
 110120387.650 8  85808117.708 7  20955208.656                    20955216.539
 128928773.087 6 100463898.316 6  24534303.977                    24534318.871
 122345974.033 7  95334614.71444  23281669.609                    23281679.469
 127922497.202 6  99679959.92443  24342850.977                    24342865.578
 109300213.118 8  85169024.60346  20799140.680                    20799148.922
 111628494.443 7  86983270.50246  21242194.570                    21242201.297
 117281896.677 7  91388504.26345  22318009.492                    22318017.000
 11  8 26 16 49 30.0000000  0 11G10G03G08G11G07G01G28G24G13G19G23
 130807150.034 6 101927532.39443  24891741.469                    24891754.336
 120445005.030 6  93853277.80544  22919927.734                    22919937.246
 117835969.067 7  91820352.30045  22423444.977                    22423453.695
 120164253.850 7  93634532.85144  22866489.656                    22866499.250
 110076390.143 8  85773833.937 7  20946836.375                    20946843.879
 128853122.722 6 100404950.118 6  24519907.867                    24519924.199
 122300561.678 7  95299228.48844  23273028.195                    23273037.414
 127850770.643 6  99624069.28443  24329201.336                    24329216.156
 109367381.502 8  85221363.56946  20811922.430                    20811930.246
 111674970.003 8  87019485.21946  21251039.031                    21251045.230
 117385259.854 7  91469046.91445  22337678.570                    22337685.938
 11  8 26 16 50  0.0000000  0 11G10G03G08G11G07G01G28G24G13G19G23
 130861193.973 6 101969644.44243  24902025.211                    24902037.637
 120544852.597 6  93931081.03244  22938927.758                    22938937.723
 117763481.979 7  91763868.89045  22409650.680                    22409659.844
 120092329.821 7  93578488.19044  22852802.867                    22852812.637
 110032584.553 8  85739699.720 7  20938500.211                    20938508.348
 128777382.024 6 100345931.532 6  24505495.094                    24505510.824
 122255341.766 7  95263992.25044  23264422.953                    23264432.637
 127778973.102 6  99568123.25343  24315539.359                    24315553.324
 109435041.919 8  85274085.93746  20824797.914                    20824805.945
 111721995.153 8  87056128.16746  21259987.492                    21259993.793
 117488873.157 7  91549784.43445  22357395.883                    22357403.488
 11  8 26 16 50 30.0000000  0 11G10G03G08G11G07G01G28G24G13G19G23
 130915371.266 6 102011860.38243  24912334.859                    24912348.051
 120644952.572 7  94009080.92544  22957976.281                    22957985.852
 117691006.651 7  91707394.62945  22395859.109                    22395868.199
 120020603.415 7  93522597.51544  22839153.891                    22839163.211
 109988972.292 7  85705716.144 7  20930201.094                    20930208.875
 128701552.731 6 100286843.902 6  24491064.602                    24491080.230
 122210313.136 7  95228905.04844  23255854.305                    23255864.180
 127707107.071 6  99512123.87643  24301863.703                    24301877.484
 109503191.756 8  85327189.67346  20837766.422                    20837774.500
 111769567.839 8  87093197.78246  21269040.461                    21269046.578
 117592733.524 7  91630714.48845  22377160.109                    22377167.602
 11  8 26 16 51  0.0000000  0 11G10G03G08G11G07G01G28G24G13G19G23
 130969679.483 6 102054178.35042  24922669.086                    24922682.387
 120745302.619 7  94087275.65744  22977072.430                    22977082.992
 117618545.032 7  91650931.06545  22382070.164                    22382079.414
 119949078.043 7  93466863.52144  22825543.016                    22825552.660
 109945555.852 8  85671885.150 7  20921939.156                    20921947.516
 128625638.671 6 100227690.244 6  24476618.609                    24476633.926
 122165475.470 7  95193966.65444  23247321.930                    23247331.066
 127635175.612 6  99456073.50343  24288175.141                    24288189.414
 109571829.052 8  85380673.23946  20850827.555                    20850835.824
 111817686.722 8  87130693.00646  21278196.797                    21278203.609
 117696838.326 7  91711834.98044  22396970.180                    22396978.207
 11  8 26 16 51 30.0000000  0 10G03G08G11G07G01G28G24G13G19G23
 120845899.906 7  94165663.07144  22996215.734                    22996225.594
 117546098.535 7  91594479.26745  22368283.930                    22368292.711
 119877756.848 7  93411288.61144  22811970.930                    22811980.949
 109902336.822 8  85638207.986 7  20913714.852                    20913722.656
 128549642.006 6 100168472.213 6  24462156.859                    24462172.938
 122120827.997 7  95159176.46444  23238826.016                    23238835.105
 127563181.804 6  99399974.56643  24274474.875                    24274489.598
 109640952.125 8  85434535.33846  20863981.281                    20863989.863
 111866349.870 7  87168612.33046  21287457.297                    21287463.750
 117801184.842 7  91793143.83845  22416826.625                    22416835.043
 11  8 26 16 52  0.0000000  0 10G03G08G11G07G01G28G24G13G19G23
 120946741.112 7  94244240.54344  23015405.000                    23015415.512
 117473668.620 7  91538040.40345  22354500.992                    22354510.148
 119806642.841 7  93355875.16144  22798438.461                    22798447.469
 109859317.592 8  85604686.519 7  20905528.453                    20905536.508
 128473565.615 6 100109192.052 6  24447679.742                    24447695.781
 122076370.158 7  95124534.03044  23230365.516                    23230375.164
 127491128.360 6  99343829.16643  24260763.906                    24260778.008
 109710558.492 8  85488774.02846  20877226.758                    20877235.293
 111915555.163 8  87206954.10346  21296820.438                    21296827.234
 117905769.940 7  91874638.58045  22436728.508                    22436736.918
 11  8 26 16 52 30.0000000  0 10G03G08G11G07G01G28G24G13G19G23
 121047823.048 7  94323005.58844  23034640.477                    23034650.598
 117401256.150 7  91481615.12045  22340721.211                    22340730.141
 119735738.379 7  93300624.98044  22784945.023                    22784954.773
 109816498.581 8  85571321.058 7  20897380.414                    20897388.258
 128397411.136 6 100049851.025 6  24433188.555                    24433203.758
 122032100.411 7  95090038.15244  23221941.711                    23221950.461
 127419016.832 6  99287638.48343  24247041.094                    24247055.797
 109780645.047 8  85543386.89146  20890564.281                    20890572.754
 111965299.923 8  87245716.23646  21306286.914                    21306293.570
 118010590.002 7  91956316.43044  22456675.570                    22456682.828
 11  8 26 16 53  0.0000000  0 10G03G08G11G07G01G28G24G13G19G23
 121149142.986 7  94401956.09144  23053920.523                    23053931.234
 117328862.622 7  91425204.59945  22326945.109                    22326954.672
 119665047.051 7  93245540.88244  22771493.258                    22771502.848
 109773882.514 8  85538113.743 7  20889271.094                    20889279.191
 128321182.199 6  99990451.972 6  24418681.633                    24418697.965
 121988018.656 7  95055688.80444  23213552.734                    23213562.055
 127346850.852 6  99231405.32242  24233308.953                    24233322.520
 109851210.150 8  85598372.64846  20903991.992                    20904000.340
 112015582.849 8  87284897.72446  21315855.648                    21315862.047
 118115642.635 7  92038175.49245  22476666.430                    22476674.758
 11  8 26 16 53 30.0000000  0 10G03G08G11G07G01G28G24G13G19G23
 121250698.270 6  94481089.99043  23073246.266                    23073256.402
 117256489.448 7  91368809.95445  22313173.250                    22313182.234
 119594571.710 7  93190625.09244  22758081.789                    22758091.715
 109731471.264 8  85505066.014 7  20881200.250                    20881208.000
 128244881.621 6  99930997.120 6  24404163.086                    24404178.172
 121944123.955 7  95021485.17044  23205200.008                    23205209.324
 127274633.028 6  99175131.78542  24219565.094                    24219579.566
 109922251.435 8  85653729.46046  20917510.828                    20917519.039
 112066401.905 8  87324496.96646  21325526.000                    21325532.477
 118220925.031 7  92120213.60545  22496700.750                    22496709.285
 11  8 26 16 54  0.0000000  0 10G03G08G11G07G01G28G24G13G19G23
 121352485.875 7  94560404.89743  23092615.688                    23092626.098
 117184138.066 7  91312432.27745  22299404.867                    22299414.637
 119524315.356 7  93135879.93744  22744713.141                    22744722.262
 109689266.248 8  85472178.997 7  20873168.773                    20873176.703
 128168511.190 6  99871487.861 6  24389630.281                    24389644.891
 121900415.354 7  94987426.57444  23196882.414                    23196892.133
 127202365.871 6  99118819.81643  24205813.555                    24205827.383
 109993766.441 8  85709455.40446  20931119.500                    20931127.914
 112117755.003 8  87364512.35646  21335298.516                    21335304.820
 118326433.963 7  92202428.22145  22516779.031                    22516786.246
 11  8 26 16 54 30.0000000  0 10G03G08G11G07G01G28G24G13G19G23
 121454503.256 7  94639898.84943  23112029.047                    23112039.465
 117111809.984 7  91256072.76145  22285641.695                    22285651.008
 119454281.289 7  93081307.98544  22731385.836                    22731395.473
 109647269.757 8  85439454.461 7  20865177.297                    20865185.207
 128092074.070 6  99811926.611 6  24375083.742                    24375100.031
 121856892.509 7  94953512.71944  23188600.438                    23188609.613
 127130052.457 6  99062471.82243  24192052.859                    24192067.328
 110065753.470 8  85765549.15346  20944818.625                    20944826.973
 112169640.251 8  87404942.40046  21345171.625                    21345178.004
 118432166.682 7  92284817.26144  22536899.203                    22536906.770
 11  8 26 16 55  0.0000000  0 10G03G08G11G07G01G28G24G13G19G23
 121556747.377 7  94719569.52343  23131485.383                    23131495.336
 117039506.528 7  91199732.43345  22271882.320                    22271891.340
 119384471.842 7  93026911.07144  22718101.594                    22718110.582
 109605483.200 8  85406893.521 7  20857225.719                    20857233.398
 128015573.115 6  99752315.576 6  24360526.438                    24360541.938
 121813554.080 7  94919742.55744  23180353.141                    23180362.977
 127057695.150 6  99006089.62042  24178283.680                    24178297.742
 110138209.198 8  85822008.13246  20958606.477                    20958614.645
 112222055.106 8  87445785.12646  21355145.938                    21355152.625
 118538119.845 7  92367378.03145  22557061.602                    22557069.523
 11  8 26 16 55 30.0000000  0 10G03G08G11G07G01G28G24G13G19G23
 121659215.147 7  94799414.44043  23150984.328                    23150994.594
 116967229.627 7  91143412.79145  22258128.938                    22258137.770
 119314890.746 7  92972692.08444  22704860.969                    22704869.621
 109563908.948 8  85374497.993 7  20849314.508                    20849322.316
 127939010.730 6  99692656.713 6  24345957.086                    24345972.492
 121770399.839 7  94886115.94344  23172141.180                    23172150.719
 126985297.233 6  98949675.74343  24164506.438                    24164520.410
 110211131.922 8  85878830.99146  20972483.500                    20972491.426
 112274997.842 8  87487039.18646  21365220.352                    21365226.805
 118644290.868 7  92450108.57945  22577265.625                    22577273.305
 11  8 26 16 56  0.0000000  0 10G03G08G11G07G01G28G24G13G19G23
 121761903.711 7  94879431.42643  23170526.188                    23170535.988
 116894980.654 7  91087114.92245  22244380.031                    22244389.191
 119245540.593 7  92918653.06244  22691664.242                    22691672.848
 109522548.561 8  85342269.118 7  20841443.477                    20841451.629
 127862389.879 6  99632952.288 6  24331375.938                    24331391.605
 121727428.725 7  94852632.00444  23163964.430                    23163973.094
 126912861.314 6  98893232.33343  24150722.773                    24150736.688
 110284518.886 8  85936015.59646  20986448.094                    20986456.676
 112328466.370 8  87528702.95246  21375395.352                    21375401.758
 118750676.402 7  92533006.28645  22597510.188                    22597518.168
 11  8 26 16 56 30.0000000  0 10G03G08G11G07G01G28G24G13G19G23
 121864810.167 7  94959618.19643  23190108.195                    23190118.031
 116822760.539 7  91030839.52945  22230637.164                    22230645.781
 119176424.400 7  92864796.35044  22678510.945                    22678520.094
 109481403.413 8  85310207.978 7  20833614.125                    20833621.707
 127785713.127 6  99573204.294 6  24316785.453                    24316800.008
 121684639.840 7  94819290.06744  23155821.695                    23155831.137
 126840389.717 6  98836761.09643  24136930.961                    24136945.715
 110358367.419 8  85993559.87046  21000501.250                    21000509.633
 112382457.939 8  87570774.27746  21385669.492                    21385676.207
 118857273.647 7  92616068.93044  22617794.500                    22617802.980
 11  8 26 16 57  0.0000000  0 10G03G08G11G07G01G28G24G13G19G23
 121967931.953 7  95039972.75543  23209732.039                    23209742.051
 116750571.418 7  90974588.29045  22216900.133                    22216908.844
 119107545.664 7  92811124.65944  22665403.672                    22665413.027
 109440475.987 8  85278316.472 7  20825825.680                    20825833.664
 127708983.502 6  99513415.091 6  24302183.781                    24302199.398
 121642032.617 7  94786089.67344  23147713.258                    23147723.230
 126767885.752 5  98780264.50043  24123134.227                    24123148.191
 110432675.706 8  86051462.39646  21014641.711                    21014650.133
 112436971.454 8  87613252.31546  21396042.891                    21396049.172
 118964079.811 7  92699294.38144  22638119.266                    22638128.109
 11  8 26 16 57 30.0000000  0 10G03G08G11G07G01G28G24G13G19G23
 122071266.307 7  95120492.93143  23229396.023                    23229406.371
 116678414.858 7  90918362.43245  22203168.977                    22203178.066
 119038906.888 7  92757639.93844  22652342.281                    22652351.352
 109399768.409 8  85246596.290 7  20818079.547                    20818087.238
 127632203.571 6  99453586.678 6  24287572.672                    24287588.855
 121599606.297 7  94753030.23344  23139640.086                    23139649.266
 126695352.295 6  98723745.06343  24109331.375                    24109345.254
 110507441.185 8  86109721.16946  21028868.922                    21028877.270
 112492004.195 8  87656134.94746  21406515.438                    21406521.707
 119071091.960 7  92782680.31644  22658483.070                    22658491.676
 11  8 26 16 58  0.0000000  0 10G03G08G11G07G01G28G24G13G19G23
 122174810.120 6  95201176.34244  23249099.969                    23249109.531
 116606292.305 7  90862163.05345  22189444.477                    22189453.613
 118970511.379 7  92704344.80744  22639327.250                    22639336.215
 109359282.330 8  85215048.691 7  20810375.055                    20810382.941
 127555375.699 6  99393720.921 6  24272953.594                    24272968.309
 121557360.075 7  94720111.14944  23131601.109                    23131610.199
 126622792.103 6  98667204.76443  24095524.141                    24095537.695
 110582661.357 8  86168334.24346  21043183.406                    21043191.309
 112547554.147 8  87699420.60546  21417086.141                    21417092.676
 119178307.116 7  92866224.44244  22678885.797                    22678894.020
 11  8 26 16 58 30.0000000  0 10G03G08G11G07G01G28G24G13G19G23
 122278560.525 6  95282020.69643  23268843.320                    23268853.180
 116534205.175 7  90805991.28545  22175726.688                    22175735.738
 118902361.939 7  92651241.39744  22626358.523                    22626368.449
 109319019.335 8  85183674.937 7  20802713.266                    20802720.879
 127478503.279 6  99333820.456 6  24258324.469                    24258339.875
 121515292.969 7  94687331.63444  23123595.945                    23123605.410
 126550207.692 6  98610645.56643  24081711.359                    24081725.219
 110658333.466 8  86227299.48546  21057582.844                    21057591.207
 112603619.058 8  87743107.52346  21427755.406                    21427761.859
 119285722.008 7  92949924.19744  22699325.906                    22699334.672
 11  8 26 16 59  0.0000000  0 10G03G08G11G07G01G28G24G13G19G23
 122382514.822 6  95363023.94343  23288624.734                    23288634.938
 116462154.915 7  90749848.24745  22162016.070                    22162025.117
 118834461.971 7  92598332.37744  22613437.398                    22613446.898
 109278981.584 8  85152476.694 7  20795094.266                    20795102.039
 127401589.023 6  99273887.382 6  24243687.750                    24243703.770
 121473404.484 7  94654691.28044  23115624.875                    23115634.242
 126477602.350 6  98554070.06143  24067895.320                    24067909.164
 110734455.654 8  86286615.43646  21072068.508                    21072076.910
 112660196.874 8  87787194.11146  21438521.656                    21438528.582
 119393334.036 7  93033777.58544  22719804.469                    22719812.555
 11  8 26 16 59 30.0000000  0 10G03G08G11G07G01G28G24G13G19G23
 122486670.471 6  95444184.08843  23308444.289                    23308455.359
 116390143.570 7  90693735.53745  22148312.898                    22148321.645
 118766814.409 7  92545620.04944  22600564.969                    22600573.934
 109239171.198 7  85121455.609 7  20787518.813                    20787526.543
 127324635.927 6  99213924.000 6  24229044.742                    24229059.676
 121431693.766 7  94622189.47244  23107687.297                    23107696.094
 126404978.924 6  98497480.46843  24054074.766                    24054088.602
 110811025.571 8  86346280.27346  21086639.109                    21086647.715
 112717285.592 8  87831678.80746  21449385.031                    21449391.594
 119501140.402 7  93117782.42644  22740318.914                    22740327.910
 11  8 26 17  0  0.0000000  0 10G03G08G11G07G01G28G24G13G19G23
 122591024.346 6  95525498.67343  23328302.742                    23328313.355
 116318172.122 7  90637653.89645  22134616.938                    22134625.906
 118699421.621 7  92493106.23844  22587740.188                    22587749.289
 109199589.562 8  85090612.775 7  20779986.789                    20779994.297
 127247645.747 6  99153931.751 6  24214393.398                    24214408.816
 121390159.678 7  94589825.28544  23099783.852                    23099792.871
 126332339.802 6  98440878.68543  24040252.359                    24040265.797
 110888039.701 8  86406291.23846  21101294.656                    21101302.914
 112774882.381 7  87876559.39546  21460345.563                    21460352.117
 119609137.427 7  93201935.79544  22760871.219                    22760878.660
 11  8 26 17  0 30.0000000  0 10G03G08G11G07G01G28G24G13G19G23
 122695573.898 6  95606965.73643  23348197.891                    23348208.406
 116246242.530 7  90581604.88145  22120929.094                    22120937.816
 118632287.602 7  92440794.06744  22574965.031                    22574974.504
 109160239.239 8  85059950.184 7  20772498.695                    20772506.602
 127170622.079 6  99093913.398 6  24199736.367                    24199751.500
 121348801.821 7  94557598.42644  23091913.375                    23091923.184
 126259688.378 6  98384267.26443  24026426.547                    24026441.000
 110965496.583 8  86466647.20046  21116034.219                    21116042.707
 112832985.731 7  87921834.70046  21471402.344                    21471409.059
 119717322.964 7  93286236.10044  22781457.727                    22781465.797
 11  8 26 17  1  0.0000000  0 10G03G08G11G07G01G28G24G13G19G23
 122800315.794 6  95688582.68143  23368129.438                    23368140.789
 116174355.896 7  90525589.34245  22107249.875                    22107258.656
 118565414.398 7  92388685.11544  22562239.719                    22562248.480
 109121121.276 8  85029468.658 8  20765054.438                    20765062.113
 127093567.119 6  99033870.659 6  24185074.305                    24185088.484
 121307619.054 7  94525508.00644  23084076.883                    23084085.824
 126187026.855 6  98327648.00243  24012599.250                    24012613.816
 111043392.787 8  86527345.50046  21130857.016                    21130865.629
 112891592.758 8  87967502.49046  21482554.727                    21482561.418
 119825693.320 7  93370680.41644  22802079.484                    22802087.898
 11  8 26 17  1 30.0000000  0 10G03G08G11G07G01G28G24G13G19G23
 122905247.690 6  95770347.70243  23388097.453                    23388108.469
 116102514.576 7  90469609.10645  22093578.938                    22093587.469
 118498805.609 7  92336782.22044  22549564.742                    22549573.211
 109082238.160 8  84999170.137 7  20757655.133                    20757663.051
 127016484.946 6  98973806.705 6  24170404.727                    24170420.066
 121266610.596 7  94493553.39144  23076273.344                    23076281.891
 126114358.603 6  98271023.46743  23998771.742                    23998784.906
 111121726.283 8  86588384.54146  21145763.672                    21145772.367
 112950701.493 8  88013561.21846  21493802.844                    21493809.680
 119934246.154 7  93455266.90844  22822736.742                    22822745.297
 11  8 26 17  2  0.0000000  0 10G03G08G11G07G01G28G24G13G19G23
 123010366.442 6  95852258.29543  23408101.227                    23408111.805
 116030719.813 7  90413665.14545  22079916.789                    22079925.297
 118432463.837 7  92285087.38445  22536939.688                    22536949.164
 109043591.431 8  84969055.788 7  20750300.914                    20750308.918
 126939376.941 6  98913722.662 6  24155731.828                    24155746.906
 121225775.580 7  94461733.94444  23068502.398                    23068511.422
 126041686.244 6  98214395.76143  23984942.305                    23984956.344
 111200494.121 8  86649762.02745  21160752.969                    21160761.102
 113010309.184 8  88060008.74246  21505145.203                    21505152.281
 120042977.906 7  93539992.81344  22843427.641                    22843436.563
 11  8 26 17  2 30.0000000  0 10G03G08G11G07G01G28G24G13G19G23
 123115669.960 6  95934312.89943  23428140.188                    23428150.746
 115958973.615 7  90357759.04345  22066263.391                    22066272.301
 118366392.865 7  92233603.54944  22524366.711                    22524375.488
 109005183.998 7  84939127.920 7  20742992.250                    20743000.262
 126862246.964 6  98853621.477 6  24141054.586                    24141069.320
 121185113.455 7  94430049.20844  23060764.086                    23060773.586
 125969013.081 6  98157767.40643  23971112.914                    23971127.004
 111279694.447 8  86711476.52246  21175824.719                    21175832.914
 113070414.647 7  88106844.14646  21516583.539                    21516589.965
 120151886.379 7  93624856.40944  22864152.211                    22864161.461
 11  8 26 17  3  0.0000000  0 10G03G08G11G07G01G28G24G13G19G23
 123221154.666 6  96016508.65143  23448212.758                    23448223.695
 115887277.020 7  90301891.57645  22052620.281                    22052629.488
 118300594.987 7  92182332.52144  22511846.078                    22511855.273
 108967016.489 8  84909387.006 7  20735729.227                    20735736.984
 126785097.495 6  98793505.094 6  24126372.742                    24126389.086
 121144623.018 7  94398498.25144  23053059.375                    23053068.770
 125896341.477 6  98101140.30643  23957284.250                    23957297.637
 111359323.941 8  86773525.43445  21190977.438                    21190985.965
 113131014.418 8  88154064.72146  21528115.203                    21528121.813
 120260968.069 7  93709854.97544  22884910.211                    22884919.352
 11  8 26 17  3 30.0000000  0 10G03G08G11G07G01G28G24G13G19G23
 123326818.152 6  96098843.72443  23468320.625                    23468331.469
 115815632.073 7  90246064.36945  22038986.297                    22038995.695
 118235073.229 7  92131276.66245  22499377.523                    22499386.484
 108929091.453 7  84879835.039 7  20728512.359                    20728520.277
 126707931.321 6  98733375.728 6  24111688.477                    24111703.668
 121104303.639 7  94367080.59144  23045386.758                    23045396.191
 125823674.553 6  98044516.85943  23943456.000                    23943469.641
 111439380.303 7  86835906.96345  21206211.453                    21206219.867
 113192106.474 8  88201668.89046  21539740.680                    21539747.336
 120370220.015 7  93794986.20944  22905700.258                    22905709.238
 11  8 26 17  4  0.0000000  0 10G03G08G11G07G01G28G24G13G19G23
 123432657.493 6  96181315.87743  23488460.781                    23488471.148
 115744040.975 7  90190279.12245  22025363.336                    22025372.277
 118169830.923 7  92080438.53744  22486962.172                    22486971.047
 108891410.952 8  84850473.610 7  20721342.164                    20721350.168
 126630750.680 6  98673235.061 6  24097002.195                    24097016.871
 121064154.644 7  94335795.70344  23037746.508                    23037755.703
 125751015.258 6  97987899.34843  23929629.625                    23929643.066
 111519861.166 8  86898619.27745  21221526.594                    21221535.082
 113253688.948 8  88249655.20346  21551459.539                    21551466.387
 120479639.377 7  93880247.89544  22926522.258                    22926530.969
 11  8 26 17  4 30.0000000  0 10G03G08G11G07G01G28G24G13G19G23
 123538669.912 6  96263922.86343  23508634.578                    23508644.656
 115672504.633 7  90134536.54245  22011750.234                    22011758.988
 118104870.484 7  92029820.05645  22474600.766                    22474610.125
 108853976.359 7  84821303.789 7  20714218.852                    20714226.559
 126553559.330 6  98613086.068 6  24082312.531                    24082327.703
 121024174.782 7  94304642.60745  23030139.094                    23030148.441
 125678366.294 6  97931289.85343  23915804.313                    23915817.637
 111600763.139 8  86961659.72545  21236921.703                    21236930.004
 113315758.831 8  88298021.32246  21563270.641                    21563277.805
 120589222.685 7  93965637.33344  22947375.719                    22947383.578
 11  8 26 17  5  0.0000000  0 10G03G08G11G07G01G28G24G13G19G23
 123644853.075 6  96346662.89743  23528840.609                    23528851.277
 115601025.088 7  90078838.21845  21998148.250                    21998157.730
 118040195.140 7  91979423.73545  22462293.820                    22462302.988
 108816790.165 8  84792327.537 7  20707142.438                    20707149.941
 126476360.331 6  98552931.110 7  24067622.484                    24067637.313
 120984363.538 7  94273620.89144  23022562.516                    23022572.273
 125605730.825 6  97874690.89843  23901982.867                    23901996.457
 111682084.408 8  87025026.89545  21252396.641                    21252405.203
 113378314.106 8  88346765.66046  21575174.992                    21575181.445
 120698967.779 7  94051152.85144  22968259.078                    22968268.234
 11  8 26 17  5 30.0000000  0 10G03G08G11G07G01G28G24G13G19G23
 123751203.991 6  96429533.64543  23549078.250                    23549089.152
 115529604.126 7  90023185.53945  21984557.305                    21984565.988
 117975808.307 7  91929252.21544  22450040.828                    22450049.988
 108779854.525 8  84763546.522 7  20700113.586                    20700121.406
 126399156.220 6  98492772.175 7  24052930.344                    24052946.012
 120944720.121 7  94242729.96044  23015018.586                    23015027.949
 125533111.810 6  97818104.76543  23888163.398                    23888176.922
 111763822.358 8  87088718.74945  21267951.039                    21267959.926
 113441352.475 8  88395886.44646  21587170.766                    21587177.453
 120808871.836 7  94136792.20744  22989173.859                    22989182.879
 11  8 26 17  6  0.0000000  0 10G03G08G11G07G01G28G24G13G19G23
 123857719.555 6  96512532.69443  23569347.656                    23569358.746
 115458242.939 7  89967579.42945  21970977.734                    21970986.977
 117911712.364 7  91879307.35444  22437844.219                    22437853.004
 108743170.475 8  84734961.549 7  20693132.852                    20693140.270
 126321948.889 6  98432610.724 6  24038238.563                    24038253.707
 120905243.254 7  94211968.79945  23007506.773                    23007515.637
 125460511.961 6  97761533.54343  23874347.922                    23874361.180
 111845973.542 8  87152732.60446  21283583.953                    21283592.383
 113504871.190 8  88445381.51446  21599257.938                    21599264.777
 120918931.088 7  94222552.51144  23010116.859                    23010126.238
 11  8 26 17  6 30.0000000  0 10G03G08G11G07G01G28G24G13G19G23
 123964397.609 6  96595658.35443  23589648.188                    23589658.594
 115386943.937 8  89912021.79245  21957409.734                    21957418.660
 117847910.590 7  91829591.72644  22425702.734                    22425711.723
 108706740.651 8  84706574.674 7  20686200.641                    20686208.109
 126244742.136 6  98372449.743 6  24023546.445                    24023561.480
 120865932.427 7  94181337.03344  23000026.094                    23000035.625
 125387934.573 6  97704979.85743  23860536.859                    23860549.715
 111928536.162 8  87217067.06646  21299295.211                    21299303.996
 113568868.161 8  88495249.25246  21611436.461                    21611442.984
 121029143.053 7  94308431.79244  23031089.875                    23031099.129
 11  8 26 17  7  0.0000000  0 10G03G08G11G07G01G28G24G13G19G23
 124071234.590 6  96678907.79943  23609979.016                    23609989.285
 115315708.506 8  89856513.68545  21943854.203                    21943862.941
 117784405.614 7  91780107.36044  22413618.219                    22413626.875
 108670566.504 8  84678387.019 7  20679316.742                    20679324.484
 126167538.490 6  98312291.181 6  24008855.125                    24008869.723
 120826786.649 7  94150833.87544  22992576.672                    22992586.297
 125315382.116 6  97648445.58943  23846730.039                    23846744.215
 112011506.710 8  87281719.38246  21315083.680                    21315092.691
 113633340.704 8  88545487.56846  21623704.805                    21623711.707
 121139504.413 7  94394427.48644  23052091.563                    23052100.121
 11  8 26 17  7 30.0000000  0 10G03G08G11G07G01G28G24G13G19G23
 124178228.226 6  96762279.34443  23630337.977                    23630350.320
 115244538.440 8  89801056.50345  21930311.078                    21930320.039
 117721201.105 7  91730857.14944  22401590.695                    22401599.285
 108634650.266 8  84650400.343 7  20672482.242                    20672489.969
 126090341.398 6  98252137.728 6  23994164.945                    23994179.582
 120787805.087 7  94120458.66844  22985159.000                    22985168.094
 125242857.770 6  97591933.23043  23832929.250                    23832942.848
 112094883.097 8  87346687.93945  21330949.820                    21330958.684
 113698286.671 8  88596094.79746  21636064.266                    21636070.488
 121250012.629 7  94480537.62144  23073120.109                    23073129.086
 11  8 26 17  8  0.0000000  0 10G03G08G11G07G01G28G24G13G19G23
 124285376.141 6  96845771.08543  23650728.602                    23650739.688
 115173435.755 8  89745651.83845  21916780.477                    21916790.031
 117658299.492 7  91681842.93444  22389620.852                    22389629.414
 108598994.277 8  84622616.460 7  20665697.250                    20665704.754
 126013153.750 7  98191991.621 6  23979476.531                    23979491.191
 120748986.931 7  94090210.79744  22977772.133                    22977781.105
 125170364.738 7  97535445.25743  23819134.531                    23819147.445
 112178662.633 8  87411970.63045  21346892.555                    21346901.262
 113763703.681 8  88647069.05646  21648512.469                    21648518.922
 121360664.894 7  94566759.99844  23094176.727                    23094185.852
 11  8 26 17  8 30.0000000  0 10G03G08G11G07G01G28G24G13G19G23
 124392675.454 6  96929380.81443  23671147.305                    23671158.262
 115102401.948 8  89690300.82545  21903263.508                    21903272.594
 117595703.462 7  91633066.84644  22377709.086                    22377717.375
 108563599.957 8  84595036.465 7  20658961.813                    20658969.672
 125935978.083 6  98131854.837 6  23964789.945                    23964805.934
 120710331.126 7  94060089.41944  22970415.781                    22970425.117
 125097905.459 6  97478983.57543  23805346.328                    23805359.609
 112262842.292 8  87477565.11246  21362911.656                    21362920.797
 113829588.934 8  88698408.18046  21661050.000                    21661056.680
 121471457.730 7  94653091.91944  23115260.227                    23115269.090
 11  8 26 17  9  0.0000000  0 10G03G08G11G07G01G28G24G13G19G23
 124500123.419 6  97013106.39743  23691593.836                    23691604.773
 115031438.568 8  89635004.70045  21889759.227                    21889768.320
 117533416.022 7  91584531.22045  22365856.156                    22365865.410
 108528469.026 8  84567661.718 7  20652276.547                    20652284.512
 125858816.983 6  98071729.463 6  23950106.805                    23950122.395
 120671836.632 7  94030093.74344  22963090.492                    22963099.539
 125025482.863 7  97422550.49443  23791564.336                    23791577.508
 112347419.197 8  87543469.12245  21379005.953                    21379014.969
 113895939.783 8  88750110.10646  21673676.164                    21673683.004
 121582388.066 7  94739530.97644  23136369.070                    23136378.195
 11  8 26 17  9 30.0000000  0 10G03G08G11G07G01G28G24G13G19G23
 124607716.948 6  97096945.38043  23712068.727                    23712079.359
 114960548.020 8  89579765.33045  21876269.289                    21876278.758
 117471440.426 7  91536238.60044  22354062.594                    22354071.492
 108493603.800 8  84540494.005 7  20645641.852                    20645649.664
 125781673.825 7  98011617.999 6  23935426.555                    23935441.840
 120633502.951 7  94000223.38244  22955796.172                    22955805.020
 124953100.282 7  97366148.59943  23777790.547                    23777803.254
 112432391.164 8  87609680.98645  21395175.859                    21395184.492
 113962754.031 8  88802173.12046  21686390.648                    21686397.164
 121693453.588 7  94826075.37644  23157505.523                    23157513.301
 11  8 26 17 10  0.0000000  0 10G03G08G11G07G01G28G24G13G19G23
 124715453.526 7  97180895.87243  23732570.156                    23732581.363
 114889731.900 8  89524583.94145  21862793.461                    21862802.301
 117409779.409 7  91488191.10444  22342328.797                    22342337.723
 108459006.184 8  84513534.813 7  20639058.422                    20639066.023
 125704551.808 6  97951523.023 6  23920751.227                    23920766.156
 120595329.036 7  93970477.48844  22948531.984                    22948540.688
 124880760.679 6  97309780.17843  23764024.586                    23764037.953
 112517754.790 8  87676198.04345  21411419.789                    21411428.652
 114030029.179 8  88854595.27546  21699192.648                    21699199.301
 121804650.696 7  94912722.31344  23178664.766                    23178673.941
 11  8 26 17 10 30.0000000  0 10G03G08G11G07G01G28G24G13G19G23
 124823330.509 6  97264955.72843  23753098.805                    23753109.402
 114818991.982 8  89469461.94245  21849332.188                    21849341.008
 117348435.849 7  91440390.97044  22330655.273                    22330664.273
 108424678.046 8  84486785.611 7  20632525.594                    20632533.660
 125627453.369 6  97891446.417 6  23906079.586                    23906094.602
 120557313.910 7  93940855.34844  22941298.023                    22941307.148
 124808466.777 7  97253447.35543  23750267.320                    23750280.629
 112603507.484 8  87743018.24345  21427738.273                    21427746.473
 114097762.616 8  88907374.53846  21712081.781                    21712088.539
 121915976.733 7  94999469.68844  23199849.969                    23199858.656
 11  8 26 17 11  0.0000000  0 10G03G08G11G07G01G28G24G13G19G23
 124931345.407 7  97349123.09143  23773653.156                    23773663.895
 114748330.033 8  89414400.70445  21835885.609                    21835894.680
 117287412.621 7  91392840.44445  22319043.211                    22319052.223
 108390621.523 8  84460248.048 7  20626045.297                    20626053.203
 125550381.842 7  97831390.764 6  23891413.078                    23891427.926
 120519456.753 7  93911356.29745  22934093.648                    22934103.383
 124736221.891 7  97197152.77743  23736518.594                    23736532.813
 112689646.819 8  87810139.74845  21444129.992                    21444138.863
 114165951.933 8  88960509.04446  21725057.453                    21725064.441
 122027428.849 7  95086315.29844  23221058.531                    23221067.578
 11  8 26 17 11 30.0000000  0 10G03G08G11G07G01G28G24G13G19G23
 125039495.548 6  97433395.88243  23794232.977                    23794244.328
 114677747.868 8  89359401.63145  21822454.148                    21822463.125
 117226712.803 7  91345541.91645  22307492.242                    22307501.512
 108356838.403 8  84433923.535 7  20619616.250                    20619624.070
 125473339.389 6  97771357.806 6  23876751.836                    23876767.504
 120481756.648 7  93881979.62445  22926919.750                    22926928.672
 124664028.793 7  97140898.50343  23722781.695                    23722794.582
 112776169.584 8  87877560.00945  21460595.008                    21460603.496
 114234594.332 8  89013996.58646  21738119.703                    21738127.125
 122139003.865 7  95173256.68544  23242290.414                    23242299.867
 11  8 26 17 12  0.0000000  0 10G03G08G11G07G01G28G24G13G19G23
 125147778.232 6  97517771.90242  23814839.078                    23814850.434
 114607247.566 8  89304466.33545  21809038.859                    21809047.281
 117166339.309 7  91298497.67945  22296003.828                    22296012.445
 108323330.757 8  84407813.682 7  20613240.406                    20613247.746
 125396329.563 6  97711350.259 6  23862097.680                    23862112.848
 120444212.795 7  93852724.69344  22919775.211                    22919784.195
 124591890.614 7  97084687.06043  23709053.398                    23709066.879
 112863073.558 7  87945277.33045  21477132.258                    21477140.461
 114303687.648 8  89067835.48446  21751267.969                    21751275.152
 122250699.149 7  95260291.77344  23263545.992                    23263555.148
 11  8 26 17 12 30.0000000  0 10G03G08G11G07G01G28G24G13G19G23
 125256190.599 6  97602248.99042  23835468.984                    23835479.992
 114536831.382 8  89249596.61145  21795638.711                    21795647.676
 117106295.320 7  91251710.19645  22284577.711                    22284586.520
 108290100.713 8  84381920.130 7  20606916.656                    20606924.133
 125319356.009 6  97651370.939 6  23847450.680                    23847465.195
 120406824.357 7  93823590.87445  22912660.695                    22912669.172
 124519810.642 7  97028520.98743  23695337.500                    23695350.594
 112950356.180 7  88013289.69245  21493741.930                    21493750.051
 114373229.507 8  89122023.90946  21764501.430                    21764508.379
 122362512.045 7  95347418.48644  23284823.953                    23284832.918
 11  8 26 17 13  0.0000000  0 10G03G08G11G07G01G28G24G13G19G23
 125364729.941 6  97686825.01242  23856122.563                    23856134.008
 114466500.745 8  89194793.52645  21782255.195                    21782263.934
 117046583.077 7  91205181.21245  22273214.781                    22273223.715
 108257149.760 8  84356244.048 8  20600646.281                    20600654.289
 125242420.072 6  97591420.969 6  23832809.898                    23832824.301
 120369590.216 7  93794577.28644  22905575.445                    22905584.125
 124447791.141 7  96972402.00844  23681632.164                    23681645.500
 113038013.377 8  88081593.93145  21510422.531                    21510430.582
 114443216.751 8  89176559.38746  21777819.477                    21777826.289
 122474438.953 7  95434634.05044  23306122.586                    23306131.551
 11  8 26 17 13 30.0000000  0 10G03G08G11G07G01G28G24G13G19G23
 125473394.081 6  97771498.24342  23876801.531                    23876812.977
 114396257.107 8  89140058.23745  21768887.930                    21768897.016
 116987205.730 7  91158913.17745  22261915.789                    22261924.816
 108224479.950 8  84330787.043 7  20594429.531                    20594437.309
 125165525.748 7  97531503.453 6  23818177.703                    23818192.219
 120332509.350 7  93765683.13744  22898518.773                    22898528.145
 124375835.333 6  96916332.69443  23667939.539                    23667952.988
 113126042.746 7  88150188.18245  21527173.250                    21527182.543
 114513646.837 8  89231439.93346  21791221.648                    21791228.797
 122586477.243 7  95521936.42544  23327442.914                    23327451.922
 11  8 26 17 14  0.0000000  0 10G03G08G11G07G01G28G24G13G19G23
 125582179.999 6  97856266.36943  23897503.234                    23897514.188
 114326102.813 8  89085392.56045  21755538.500                    21755547.223
 116928165.952 7  91112908.19545  22250680.992                    22250689.762
 108192093.348 8  84305550.727 7  20588266.250                    20588274.035
 125088675.922 7  97471620.597 6  23803552.828                    23803567.984
 120295581.012 7  93736907.83944  22891491.313                    22891500.148
 124303946.598 6  96860315.61943  23654259.609                    23654272.387
 113214441.732 7  88219070.44045  21543995.781                    21544004.566
 114584517.253 8  89286663.59945  21804707.930                    21804714.863
 122698623.655 7  95609322.99444  23348783.672                    23348793.563
 11  8 26 17 14 30.0000000  0 10G03G08G11G07G01G28G24G13G19G23
 125691084.984 6  97941127.30743  23918226.836                    23918238.086
 114256039.870 8  89030798.07445  21742205.922                    21742214.602
 116869466.703 7  91067168.56545  22239510.336                    22239519.457
 108159991.979 8  84280536.673 7  20582157.664                    20582165.555
 125011873.304 6  97411774.490 6  23788937.500                    23788952.586
 120258804.397 7  93708250.76944  22884493.422                    22884502.063
 124232127.688 7  96804353.00043  23640592.594                    23640605.941
 113303207.355 8  88288238.38645  21560887.102                    21560895.828
 114655825.591 8  89342228.50145  21818277.867                    21818284.613
 122810875.415 7  95696791.66244  23370144.711                    23370154.746
 11  8 26 17 15  0.0000000  0 10G03G08G11G07G01G28G24G13G19G23
 125800106.559 6  98026079.05743  23938973.609                    23938984.691
 114186070.130 8  88976276.20645  21728891.141                    21728899.828
 116811110.606 7  91021696.29945  22228405.695                    22228414.230
 108128177.600 8  84255746.240 7  20576103.680                    20576111.332
 124935120.483 7  97351967.212 7  23774332.617                    23774347.840
 120222178.302 7  93679710.99244  22877523.273                    22877532.602
 124160381.570 6  96748447.06643  23626939.523                    23626952.566
 113392336.661 7  88357689.73645  21577847.867                    21577856.566
 114727568.955 8  89398132.38545  21831930.336                    21831937.180
 122923229.538 7  95784340.12943  23391525.320                    23391534.242
 11  8 26 17 15 30.0000000  0 10G03G08G11G07G01G28G24G13G19G23
 125909241.836 6  98111119.43543  23959740.898                    23959752.496
 114116195.149 8  88921828.17345  21715594.414                    21715603.277
 116753100.513 7  90976493.66245  22217366.406                    22217375.637
 108096651.930 8  84231180.767 7  20570104.570                    20570112.074
 124858421.070 6  97292201.557 7  23759736.133                    23759751.508
 120185702.061 7  93651287.97344  22870582.211                    22870591.203
 124088711.216 7  96692600.16343  23613301.203                    23613314.250
 113481826.756 7  88427422.20445  21594877.125                    21594886.145
 114799744.658 8  89454373.15545  21845664.734                    21845671.688
 123035683.055 7  95871966.04843  23412924.961                    23412933.238
 11  8 26 17 16  0.0000000  0 10G03G08G11G07G01G28G24G13G19G23
 126018488.887 7  98196246.90243  23980530.195                    23980541.598
 114046417.377 8  88867455.88645  21702315.820                    21702325.043
 116695439.986 7  90931563.40145  22206394.039                    22206402.938
 108065417.579 8  84206842.299 7  20564161.070                    20564168.602
 124781778.092 7  97232479.891 6  23745152.180                    23745166.824
 120149374.606 7  93622980.88744  22863669.039                    22863678.145
 124017120.238 7  96636815.14143  23599677.953                    23599690.199
 113571675.384 8  88497434.04345  21611974.617                    21611983.773
 114872350.598 8  89510949.17345  21859481.000                    21859487.723
 123148233.483 7  95959667.47144  23434342.836                    23434351.535
 11  8 26 17 16 30.0000000  0 10G03G08G11G07G01G28G24G13G19G23
 126127844.593 7  98281459.03643  24001340.625                    24001351.609
 113976738.683 8  88813160.81945  21689056.539                    21689065.516
 116638131.408 7  90886907.40045  22195489.078                    22195497.617
 108034476.177 8  84182732.101 8  20558272.906                    20558281.168
 124705194.708 7  97172804.648 6  23730578.563                    23730593.289
 120113195.103 7  93594789.09044  22856784.680                    22856793.285
 123945611.258 6  96581093.98843  23586070.617                    23586082.863
 113661879.362 7  88567722.78145  21629140.203                    21629149.074
 114945383.753 8  89567858.08945  21873378.695                    21873386.066
 123260877.672 7  96047441.94244  23455778.047                    23455787.484
 11  8 26 17 17  0.0000000  0 10G03G08G11G07G01G28G24G13G19G23
 126237306.336 6  98366753.78643  24022170.156                    24022181.398
 113907160.852 8  88758944.33545  21675816.633                    21675825.184
 116581177.135 7  90842527.47645  22184651.164                    22184659.508
 108003829.369 8  84158851.469 7  20552441.086                    20552448.805
 124628672.777 6  97113177.295 7  23716016.898                    23716030.953
 120077162.596 7  93566711.84444  22849927.883                    22849936.430
 123874187.282 7  96525439.06743  23572477.945                    23572490.895
 113752435.594 7  88638286.00745  21646372.641                    21646381.879
 115018841.468 8  89625097.82045  21887357.773                    21887364.250
 123373612.539 7  96135287.05544  23477230.813                    23477240.934
 11  8 26 17 17 30.0000000  0 10G03G08G11G07G01G28G24G13G19G23
 126346871.781 6  98452129.36143  24043018.586                    24043030.906
 113837685.981 8  88704808.07945  21662595.828                    21662604.566
 116524580.479 7  90798426.21845  22173880.867                    22173889.668
 107973479.360 8  84135202.105 8  20546665.852                    20546673.441
 124552216.187 6  97053600.850 7  23701467.617                    23701482.371
 120041276.165 7  93538748.42245  22843098.875                    22843107.145
 123802851.457 7  96469852.82343  23558903.703                    23558916.477
 113843341.311 7  88709121.56445  21663671.602                    21663680.035
 115092721.197 8  89682666.40945  21901416.336                    21901422.891
 123486435.246 7  96223200.62843  23498700.492                    23498709.719
 11  8 26 17 18  0.0000000  0 10G03G08G11G07G01G28G24G13G19G23
 126456538.563 6  98537583.89142  24063888.344                    24063899.875
 113768316.253 8  88650753.76645  21649394.758                    21649403.980
 116468344.322 7  90754605.86245  22163179.070                    22163187.832
 107943428.542 8  84111785.865 8  20540946.883                    20540955.059
 124475828.809 6  96994078.340 7  23686931.438                    23686946.277
 120005535.179 7  93510898.32645  22836297.547                    22836306.359
 123731607.003 7  96414337.77843  23545345.828                    23545358.629
 113934593.820 7  88780227.34045  21681036.234                    21681045.230
 115167020.499 8  89740561.92445  21915554.984                    21915561.582
 123599343.390 7  96311180.73444  23520186.688                    23520196.895
 11  8 26 17 18 30.0000000  0 10G03G08G11G07G01G28G24G13G19G23
 126566303.513 6  98623114.92042  24084776.078                    24084787.539
 113699053.111 8  88596782.49945  21636215.000                    21636223.816
 116412471.006 7  90711068.25145  22152546.852                    22152555.785
 107913678.179 8  84088603.766 7  20535285.656                    20535293.773
 124399512.238 6  96934610.990 7  23672408.781                    23672423.813
 119969938.178 7  93483160.41645  22829523.539                    22829532.477
 123660456.489 7  96358895.92843  23531806.789                    23531819.293
 114026189.563 7  88851600.56745  21698466.461                    21698475.004
 115241736.355 8  89798782.03245  21929773.398                    21929779.980
 123712333.411 6  96399224.62144  23541687.828                    23541698.195
 11  8 26 17 19  0.0000000  0 10G03G08G11G07G01G28G24G13G19G23
 126676164.239 6  98708720.59442  24105681.211                    24105693.156
 113629898.879 8  88542896.09045  21623055.383                    21623064.141
 116356963.584 7  90667815.73045  22141984.352                    22141992.852
 107884230.266 8  84065657.330 8  20529682.313                    20529689.988
 124323269.717 7  96875201.328 6  23657900.570                    23657914.504
 119934484.534 7  93455534.21444  22822777.211                    22822785.633
 123589403.091 7  96303529.72643  23518285.656                    23518297.691
 114118126.013 7  88923239.28745  21715961.563                    21715970.688
 115316866.078 8  89857324.63245  21944069.984                    21944076.242
 123825402.555 6  96487330.16443  23563204.227                    23563214.426
 11  8 26 17 19 30.0000000  0 10G03G08G11G07G01G28G24G13G19G23
 126786118.662 6  98794399.25742  24126605.375                    24126617.133
 113560855.875 8  88489096.35845  21609916.773                    21609925.520
 116301824.931 7  90624850.57945  22131491.789                    22131499.926
 107855087.300 8  84042948.523 8  20524136.445                    20524144.020
 124247104.197 7  96815851.665 6  23643406.336                    23643420.680
 119899173.230 7  93428018.93045  22816057.789                    22816066.660
 123518449.956 7  96248241.69843  23504783.500                    23504796.465
 114210400.235 7  88995141.20045  21733520.742                    21733529.965
 115392407.149 7  89916187.75845  21958444.414                    21958451.641
 123938548.097 6  96575495.26844  23584735.586                    23584745.480
 11  8 26 17 20  0.0000000  0 10G03G08G11G07G01G28G24G13G19G23
 126896163.956 6  98880148.81843  24147546.594                    24147558.242
 113491925.878 8  88435384.68645  21596799.461                    21596808.891
 116247057.447 7  90582174.63945  22121069.758                    22121078.398
 107826250.795 8  84020478.509 8  20518648.906                    20518656.754
 124171019.372 7  96756564.890 7  23628927.516                    23628942.551
 119864003.188 7  93400613.72445  22809364.625                    22809373.699
 123447600.103 7  96193034.11243  23491301.156                    23491313.066
 114303009.200 7  89067303.94845  21751143.859                    21751152.922
 115468356.833 8  89975369.29045  21972897.688                    21972904.344
 124051767.027 6  96663717.53744  23606281.297                    23606290.559
 11  8 26 17 20 30.0000000  0 10G03G08G11G07G01G28G24G13G19G23
 127006296.488 6  98965966.34542  24168504.250                    24168515.281
 113423109.825 8  88381761.80145  21583704.406                    21583713.539
 116192663.317 7  90539789.63145  22110719.141                    22110727.473
 107797721.896 8  83998248.193 7  20513220.406                    20513227.750
 124095016.586 7  96697342.032 6  23614464.914                    23614479.219
 119828972.877 7  93373317.38945  22802698.961                    22802708.004
 123376855.822 7  96137908.78643  23477838.656                    23477851.133
 114395949.233 7  89139724.67245  21768829.906                    21768839.074
 115544711.502 7  90034866.39645  21987427.789                    21987434.609
 124165055.462 7  96751993.96043  23627838.641                    23627849.254
 11  8 26 17 21  0.0000000  0  9G08G11G07G01G28G24G13G19G23
 113354410.370 8  88328229.77345  21570631.055                    21570640.383
 116138645.754 7  90497698.04945  22100439.930                    22100448.410
 107769502.976 8  83976259.416 7  20507850.422                    20507858.172
 124019099.674 7  96638186.078 6  23600018.266                    23600032.074
 119794081.742 7  93346129.52745  22796059.453                    22796068.301
 123306220.660 6  96082868.52643  23464396.984                    23464410.000
 114489217.685 7  89212401.29945  21786577.891                    21786587.008
 115621469.017 8  90094677.39745  22002033.914                    22002040.824
 124278411.146 7  96840322.83144  23649410.234                    23649419.324
 11  8 26 17 21 30.0000000  0  9G08G11G07G01G28G24G13G19G23
 113285830.226 8  88274790.70246  21557580.992                    21557589.945
 116085007.955 7  90455902.37545  22090232.523                    22090241.164
 107741596.741 8  83954514.284 8  20502540.023                    20502547.918
 123943272.600 7  96579100.138 6  23585588.875                    23585602.176
 119759329.593 7  93319049.94945  22789446.188                    22789454.820
 123235698.298 7  96027916.11543  23450977.234                    23450989.430
 114582812.596 7  89285332.32045  21804388.680                    21804397.684
 115698627.404 7  90154800.76345  22016717.414                    22016723.664
 124391831.858 7  96928702.36743  23670993.258                    23671002.875
 11  8 26 17 22  0.0000000  0  9G08G11G07G01G28G24G13G19G23
 113217371.338 8  88221446.12545  21544553.742                    21544562.891
 116031752.729 7  90414404.82645  22080098.852                    22080107.633
 107714004.751 8  83933014.030 8  20497289.180                    20497297.160
 123867538.078 7  96520086.323 7  23571176.961                    23571190.734
 119724715.310 7  93292077.79645  22782859.047                    22782868.047
 123165291.583 6  95973053.83543  23437579.438                    23437591.992
 114676730.524 7  89358515.02745  21822260.570                    21822269.527
 115776183.501 7  90215234.02545  22031475.461                    22031482.266
 124505314.627 7  97017130.23843  23692589.102                    23692598.895
 11  8 26 17 22 30.0000000  0  9G08G11G07G01G28G24G13G19G23
 113149035.895 8  88168197.73545  21531549.758                    21531558.715
 115978882.448 7  90373207.22845  22070037.719                    22070046.203
 107686729.086 7  83911760.252 7  20492099.070                    20492106.914
 123791899.080 7  96461146.919 6  23556783.148                    23556797.383
 119690237.952 7  93265212.34145  22776298.383                    22776307.410
 123095003.649 6  95918284.13443  23424203.828                    23424216.727
 114770968.740 7  89431947.32845  21840193.789                    21840203.211
 115854134.732 7  90275975.20545  22046308.820                    22046315.891
 124618856.448 6  97105604.13443  23714194.922                    23714204.930
 11  8 26 17 23  0.0000000  0  9G08G11G07G01G28G24G13G19G23
 113080826.218 8  88115047.34645  21518569.875                    21518579.039
 115926400.018 8  90332311.83645  22060050.539                    22060059.008
 107659771.831 8  83890754.595 8  20486969.250                    20486976.992
 123716359.209 7  96402284.765 6  23542408.625                    23542422.633
 119655896.521 7  93238452.80445  22769763.078                    22769772.395
 123024837.633 7  95863609.40644  23410851.172                    23410863.875
 114865524.177 7  89505626.79845  21858186.734                    21858196.273
 115932478.415 7  90337022.18145  22061217.563                    22061224.605
 124732454.444 6  97194121.77343  23735812.766                    23735822.309
 11  8 26 17 23 30.0000000  0  9G08G11G07G01G28G24G13G19G23
 113012744.348 7  88061996.54745  21505614.797                    21505623.148
 115874308.403 7  90291721.01245  22050137.898                    22050146.605
 107633135.215 8  83869998.784 7  20481900.141                    20481908.180
 123640921.062 7  96343501.895 6  23528052.406                    23528067.520
 119621690.196 7  93211798.55245  22763253.859                    22763262.785
 122954796.810 6  95809032.26543  23397523.117                    23397536.195
 114960394.262 7  89579551.45645  21876240.141                    21876249.438
 116011211.972 7  90398372.94745  22076199.813                    22076206.918
 124846106.230 6  97282681.33944  23757440.125                    23757450.430
 11  8 26 17 24  0.0000000  0  9G08G11G07G01G28G24G13G19G23
 112944791.603 8  88009046.35945  21492683.391                    21492692.023
 115822609.182 7  90251435.92745  22040299.820                    22040308.816
 107606819.752 8  83849493.214 8  20476892.695                    20476900.797
 123565587.013 6  96284800.127 7  23513716.711                    23513731.879
 119587617.383 7  93185248.32144  22756770.188                    22756778.813
 122884883.339 6  95754554.35543  23384219.141                    23384231.652
 115055574.672 7  89653717.90245  21894352.828                    21894361.734
 116090331.787 7  90460024.70045  22091255.469                    22091263.199
 124959807.893 6  97371279.72243  23779075.977                    23779087.117
 11  8 26 17 24 30.0000000  0 10G17G08G11G07G01G28G24G13G19G23
 129474146.50116 100888998.37815  24638119.781                    24638132.602
 112876971.189 8  87956199.29145  21479777.695                    21479786.285
 115771306.295 8  90211459.68045  22030537.117                    22030546.125
 107580828.678 8  83829240.422 7  20471946.719                    20471954.578
 123490360.475 6  96226182.149 7  23499401.703                    23499416.332
 119553677.758 7  93158801.88945  22750311.539                    22750320.191
 122815101.184 6  95700178.74244  23370939.398                    23370952.445
 115151063.699 7  89728124.84645  21912523.789                    21912533.563
 116169835.831 7  90521975.85045  22106384.906                    22106392.316
 125073557.360 6  97459915.38843  23800722.469                    23800733.027
 11  8 26 17 25  0.0000000  0 10G17G08G11G07G01G28G24G13G19G23
 129369810.447 6 100807697.785 6  24618264.891                    24618279.438
 112809283.991 8  87903456.02746  21466897.289                    21466906.109
 115720401.434 7  90171793.57145  22020850.328                    22020858.910
 107555163.017 8  83809241.195 8  20467062.602                    20467070.512
 123415244.397 7  96167650.241 7  23485108.055                    23485122.680
 119519869.638 7  93132457.92245  22743877.867                    22743886.844
 122745452.821 7  95645907.39644  23357686.367                    23357698.762
 115246857.469 7  89802769.25145  21930752.547                    21930761.891
 116249720.715 7  90584223.76245  22121586.375                    22121594.000
 125187351.150 6  97548585.54744  23822377.406                    23822388.316
 11  8 26 17 25 30.0000000  0 10G17G08G11G07G01G28G24G13G19G23
 129265577.216 6 100726477.291 5  24598430.008                    24598443.719
 112741732.443 8  87850818.46146  21454042.430                    21454051.645
 115669896.910 8  90132439.41545  22011239.648                    22011248.074
 107529824.512 8  83789496.888 8  20462240.922                    20462248.637
 123340241.994 7  96109206.904 7  23470835.398                    23470849.758
 119486192.282 7  93106215.82545  22737469.875                    22737478.539
 122675941.272 7  95591742.65644  23344457.867                    23344470.613
 115342952.912 7  89877648.72145  21949038.961                    21949048.434
 116329983.660 7  90646766.25845  22136860.281                    22136867.234
 125301186.280 6  97637287.95543  23844038.977                    23844049.867
 11  8 26 17 26  0.0000000  0 10G17G08G11G07G01G28G24G13G19G23
 129161449.681 6 100645339.155 6  24578614.313                    24578628.871
 112674319.432 8  87798288.84345  21441214.078                    21441222.898
 115619796.350 8  90093400.03945  22001705.922                    22001714.621
 107504816.120 8  83770009.824 8  20457482.063                    20457490.109
 123265356.743 7  96050854.863 7  23456585.398                    23456599.527
 119452645.351 7  93080075.37445  22731085.766                    22731094.629
 122606570.396 7  95537687.50843  23331257.523                    23331269.953
 115439347.844 7  89952761.55845  21967382.320                    21967391.598
 116410622.552 7  90709601.70545  22152205.430                    22152212.691
 125415060.627 6  97726020.92643  23865709.820                    23865720.441
 11  8 26 17 26 30.0000000  0 10G17G08G11G07G01G28G24G13G19G23
 129057429.595 6 100564284.732 6  24558820.063                    24558834.375
 112607047.048 8  87745868.81946  21428412.633                    21428421.867
 115570102.067 8  90054677.23945  21992249.609                    21992257.547
 107480139.614 8  83750781.368 8  20452786.164                    20452794.352
 123190590.731 7  95992595.751 7  23442357.461                    23442371.797
 119419227.839 7  93054035.77845  22724726.688                    22724735.574
 122537342.939 7  95483744.12744  23318083.852                    23318096.238
 115536039.105 7  90028105.30945  21985782.484                    21985791.195
 116491634.739 7  90772728.03445  22167621.734                    22167628.609
 125528971.367 7  97814782.24944  23887386.375                    23887397.238
 11  8 26 17 27  0.0000000  0 10G17G08G11G07G01G28G24G13G19G23
 128953519.069 6 100483315.693 6  24539046.469                    24539060.992
 112539916.970 8  87693559.67646  21415637.867                    21415646.922
 115520816.612 8  90016273.01545  21982870.633                    21982879.477
 107455796.406 8  83731812.627 8  20448154.094                    20448162.027
 123115948.143 7  95934432.781 7  23428153.281                    23428167.770
 119385938.508 7  93028096.05045  22718392.219                    22718400.863
 122468261.791 7  95429914.75043  23304938.039                    23304950.352
 115633023.359 7  90103677.35045  22004237.961                    22004247.121
 116573017.017 7  90836142.75245  22183107.891                    22183115.270
 125642915.413 6  97903569.50743  23909068.586                    23909079.641
 11  8 26 17 27 30.0000000  0 10G17G08G11G07G01G28G24G13G19G23
 128849720.164 7 100402433.614 6  24519294.180                    24519308.711
 112472931.505 8  87641363.22045  21402891.531                    21402900.336
 115471942.792 8  89978189.53945  21973569.906                    21973579.066
 107431788.225 8  83713104.937 8  20443585.344                    20443593.602
 123041431.003 7  95876367.608 7  23413973.273                    23413987.082
 119352776.409 7  93002255.47345  22712081.188                    22712090.008
 122399330.119 7  95376201.85043  23291821.023                    23291832.727
 115730297.716 7  90179475.45045  22022748.984                    22022758.434
 116654766.508 7  90899843.60845  22198664.313                    22198671.727
 125756889.804 6  97992380.43643  23930758.102                    23930768.262
 11  8 26 17 28  0.0000000  0 10G17G08G11G07G01G28G24G13G19G23
 128746034.837 7 100321640.051 6  24499562.852                    24499577.484
 112406092.678 8  87589281.02345  21390172.328                    21390181.324
 115423482.673 8  89940428.41845  21964348.586                    21964357.078
 107408117.435 8  83694660.165 8  20439081.023                    20439089.188
 122967043.236 7  95818403.196 6  23399817.266                    23399831.168
 119319740.683 7  92976513.36945  22705794.836                    22705803.957
 122330550.998 7  95322607.81944  23278732.766                    23278744.645
 115827859.022 7  90255497.14245  22041314.188                    22041323.609
 116736880.514 7  90963828.49245  22214290.484                    22214297.758
 125870892.056 6  98081213.07243  23952452.039                    23952462.824
 11  8 26 17 28 30.0000000  0 10G17G08G11G07G01G28G24G13G19G23
 128642465.163 7 100240936.650 6  24479854.016                    24479868.496
 112339403.267 8  87537315.26146  21377481.828                    21377490.773
 115375438.883 8  89902991.71645  21955205.727                    21955214.969
 107384785.862 8  83676479.703 8  20434641.289                    20434649.000
 122892787.294 7  95760541.523 7  23385687.172                    23385701.461
 119286830.335 7  92950868.94445  22699532.383                    22699540.926
 122261927.706 6  95269135.21043  23265673.453                    23265685.609
 115925704.127 7  90331739.97545  22059933.508                    22059942.895
 116819356.284 7  91028095.27745  22229985.133                    22229992.266
 125984919.112 6  98170065.03443  23974150.141                    23974162.039
 11  8 26 17 29  0.0000000  0 10G17G08G11G07G01G28G24G13G19G23
 128539013.382 7 100160325.070 6  24460168.297                    24460181.727
 112272864.639 8  87485466.97646  21364819.867                    21364829.020
 115327814.200 8  89865881.59845  21946143.563                    21946151.867
 107361795.164 8  83658564.871 8  20430265.938                    20430273.969
 122818666.305 7  95702784.988 7  23371581.984                    23371595.988
 119254044.233 7  92925321.35745  22693293.047                    22693302.023
 122193462.969 7  95215786.14943  23252645.273                    23252657.160
 116023830.058 7  90408201.62945  22078606.258                    22078615.934
 116902191.076 7  91092641.81745  22245748.164                    22245755.133
 126098967.943 6  98258933.98543  23995853.852                    23995864.316
 11  8 26 17 29 30.0000000  0 10G17G08G11G07G01G28G24G13G19G23
 128435681.443 6 100079806.896 6  24440504.969                    24440518.719
 112206479.178 8  87433738.06146  21352187.211                    21352195.895
 115280611.052 8  89829099.94345  21937161.117                    21937169.852
 107339147.137 8  83640917.049 8  20425956.477                    20425964.316
 122744683.718 6  95645136.338 6  23357503.750                    23357517.563
 119221381.511 7  92899869.92045  22687077.695                    22687086.668
 122125159.953 7  95162563.10644  23239647.500                    23239659.523
 116122233.905 7  90484879.84345  22097331.961                    22097341.379
 116985381.925 7  91157465.80345  22261578.523                    22261585.832
 126213035.979 6  98347817.84643  24017560.266                    24017571.852
 11  8 26 17 30  0.0000000  0 10G17G08G11G07G01G28G24G13G19G23
 128332471.460 7  99999383.775 6  24420864.430                    24420877.750
 112140249.315 8  87382130.37846  21339583.500                    21339592.977
 115233831.928 7  89792648.69645  21928259.125                    21928268.246
 107316843.752 8  83623537.770 8  20421712.313                    20421720.262
 122670842.041 6  95587597.440 6  23343452.398                    23343465.746
 119188841.404 7  92874514.00045  22680885.492                    22680894.031
 122057022.118 7  95109468.76943  23226681.805                    23226693.215
 116220912.704 7  90561772.30445  22116109.992                    22116119.383
 117068925.938 7  91222564.97545  22277476.648                    22277484.301
 126327120.426 6  98436714.53243  24039270.625                    24039281.250
 11  8 26 17 30 30.0000000  0 10G17G08G11G07G01G28G24G13G19G23
 128229385.739 6  99919057.482 6  24401247.102                    24401261.535
 112074177.527 8  87330645.87546  21327011.063                    21327020.152
 115187479.935 8  89756530.28245  21919438.656                    21919447.672
 107294887.516 8  83606429.009 8  20417534.258                    20417542.004
 122597145.554 7  95530171.686 7  23329427.648                    23329442.082
 119156423.118 7  92849253.02545  22674716.320                    22674725.605
 121989052.667 7  95056505.66443  23213746.547                    23213758.871
 116319863.459 7  90638876.69645  22134939.844                    22134949.031
 117152820.724 7  91287937.49345  22293441.586                    22293448.824
 126441218.831 6  98525622.08943  24060982.273                    24060994.035
 11  8 26 17 31  0.0000000  0 10G17G08G11G07G01G28G24G13G19G23
 128126426.189 6  99838829.485 6  24381655.008                    24381668.727
 112008265.655 8  87279285.98446  21314468.375                    21314477.293
 115141557.065 8  89720746.23445  21910699.789                    21910708.762
 107273279.709 8  83589591.733 8  20413422.352                    20413430.270
 122523596.480 6  95472860.815 6  23315432.117                    23315445.703
 119124125.420 7  92824086.01145  22668570.328                    22668579.078
 121921254.380 7  95003675.92043  23200845.922                    23200857.914
 116419082.976 7  90716190.48545  22153820.766                    22153830.105
 117237063.281 7  91353580.97745  22309472.289                    22309479.363
 126555327.920 6  98614537.90643  24082697.461                    24082708.895
 11  8 26 17 31 30.0000000  0 10G17G08G11G07G01G28G24G13G19G23
 128023594.602 6  99758701.232 6  24362085.711                    24362099.910
 111942515.785 8  87228052.32246  21301956.617                    21301965.570
 115096065.173 8  89685298.01545  21902043.008                    21902051.770
 107252021.949 8  83573027.237 8  20409377.117                    20409385.004
 122450197.341 7  95415666.759 6  23301464.586                    23301478.441
 119091947.155 7  92799012.05245  22662447.344                    22662455.883
 121853630.057 7  94950981.74343  23187977.063                    23187989.035
 116518567.626 7  90793710.89345  22172752.047                    22172761.828
 117321650.457 7  91419493.01645  22325568.797                    22325575.887
 126669444.822 7  98703459.88643  24104413.406                    24104424.488
 11  8 26 17 32  0.0000000  0 10G17G08G11G07G01G28G24G13G19G23
 127920893.285 6  99678674.448 6  24342542.195                    24342556.340
 111876930.708 8  87176947.07746  21289476.156                    21289485.332
 115051007.565 8  89650188.20445  21893468.492                    21893477.152
 107231116.479 8  83556737.257 8  20405398.617                    20405406.922
 122376952.126 7  95358592.650 6  23287526.414                    23287539.859
 119059887.989 7  92774030.91245  22656346.477                    22656354.941
 121786182.990 7  94898425.67843  23175142.234                    23175154.422
 116618315.151 7  90871436.13545  22191733.453                    22191743.281
 117406579.856 7  91485671.71845  22341730.383                    22341737.238
 126783566.997 6  98792385.94743  24126129.867                    24126141.977
 11  8 26 17 32 30.0000000  0 10G17G08G11G07G01G28G24G13G19G23
 127818324.349 6  99598750.807 5  24323024.539                    24323037.613
 111811512.270 8  87125971.67546  21277027.547                    21277036.227
 115006386.547 8  89615418.60745  21884977.563                    21884986.000
 107210564.921 8  83540723.040 8  20401487.914                    20401495.699
 122303863.306 7  95301640.401 6  23273617.891                    23273631.793
 119027946.398 7  92749141.39045  22650268.078                    22650276.531
 121718916.137 7  94846010.03044  23162342.086                    23162353.711
 116718322.233 7  90949363.62445  22210764.344                    22210773.695
 117491848.460 7  91552114.72845  22357956.398                    22357963.762
 126897691.538 6  98881313.82743  24147847.383                    24147859.715
 11  8 26 17 33  0.0000000  0 10G17G08G11G07G01G28G24G13G19G23
 127715889.986 6  99518932.006 5  24303531.484                    24303544.996
 111746263.301 8  87075128.33146  21264611.234                    21264620.098
 114962204.422 8  89580990.97245  21876570.289                    21876578.559
 107190369.685 8  83524986.483 7  20397645.172                    20397652.688
 122230934.308 7  95244812.686 6  23259739.711                    23259753.305
 118996121.817 7  92724343.03545  22644212.094                    22644220.559
 121651833.210 6  94793737.70944  23149575.820                    23149588.148
 116818586.195 7  91027491.26245  22229844.352                    22229854.344
 117577453.757 7  91618820.09245  22374246.477                    22374253.684
 127011816.047 6  98970241.71343  24169565.586                    24169576.910
 11  8 26 17 33 30.0000000  0 10G17G08G11G07G01G28G24G13G19G23
 127613592.219 7  99439219.655 6  24284064.969                    24284078.266
 111681185.716 8  87024418.52146  21252227.367                    21252236.156
 114918463.561 8  89546907.19545  21868246.375                    21868254.859
 107170532.376 8  83509528.824 8  20393870.211                    20393878.047
 122158168.262 7  95188111.965 7  23245893.266                    23245906.926
 118964413.123 7  92699634.99145  22638177.836                    22638186.797
 121584936.947 6  94741610.81244  23136846.125                    23136858.270
 116919103.699 7  91105816.47645  22248971.859                    22248981.883
 117663392.643 7  91685785.40445  22390600.117                    22390607.691
 127125937.688 6  99059167.34943  24191281.477                    24191293.461
 11  8 26 17 34  0.0000000  0 10G17G08G11G07G01G28G24G13G19G23
 127511432.646 7  99359614.958 6  24264624.297                    24264637.605
 111616281.300 8  86973843.65946  21239876.141                    21239885.156
 114875166.109 8  89513168.94045  21860007.453                    21860016.066
 107151054.150 8  83494350.975 8  20390163.586                    20390171.383
 122085567.813 7  95131540.251 7  23232078.242                    23232091.477
 118932819.188 7  92675016.35745  22632166.250                    22632174.934
 121518230.038 7  94689631.48844  23124151.750                    23124164.750
 117019871.110 7  91184336.43045  22268147.375                    22268157.734
 117749661.967 7  91753008.19145  22407016.641                    22407024.332
 127240053.158 6  99148088.18543  24212997.258                    24213009.531
 11  8 26 17 34 30.0000000  0 10G17G08G11G07G01G28G24G13G19G23
 127409413.493 7  99280119.683 6  24245210.180                    24245224.488
 111551552.788 8  86923405.87046  21227558.797                    21227567.871
 114832314.922 8  89479778.40545  21851853.133                    21851861.320
 107131937.191 8  83479454.632 8  20386525.547                    20386533.453
 122013136.599 7  95075100.407 7  23218294.773                    23218308.152
 118901339.312 7  92650486.59845  22626175.633                    22626184.145
 121451715.896 7  94637802.35844  23111494.945                    23111507.273
 117120885.696 7  91263048.96245  22287369.867                    22287379.742
 117836258.984 7  91820486.32845  22423495.508                    22423502.691
 127354159.986 6  99237002.25343  24234711.148                    24234723.613
 11  8 26 17 35  0.0000000  0 10G17G08G11G07G01G28G24G13G19G23
 127307536.742 7  99200735.404 6  24225823.984                    24225837.098
 111487002.243 8  86873106.74746  21215275.469                    21215283.789
 114789911.898 8  89446737.10145  21843783.938                    21843792.168
 107113183.226 8  83464841.142 8  20382957.031                    20382964.848
 121940876.909 7  95018794.243 7  23204543.359                    23204557.684
 118869972.270 7  92626044.77745  22620206.758                    22620215.316
 121385397.305 7  94586125.61244  23098874.766                    23098886.824
 117222144.374 7  91341951.71745  22306638.586                    22306648.426
 117923181.070 7  91888217.76945  22440036.609                    22440043.660
 127468255.429 6  99325907.48543  24256422.945                    24256434.820
 11  8 26 17 35 30.0000000  0 10G17G08G11G07G01G28G24G13G19G23
 127205805.000 7  99121464.108 6  24206465.031                    24206478.402
 111422632.306 8  86822948.35746  21203026.188                    21203034.953
 114747959.997 8  89414047.30845  21835800.664                    21835808.922
 107094794.414 8  83450512.190 7  20379457.836                    20379465.480
 121868792.637 7  94962624.744 7  23190826.336                    23190840.406
 118838717.371 7  92601690.32345  22614259.133                    22614267.770
 121319277.836 7  94534604.02044  23086292.289                    23086304.645
 117323644.634 7  91421042.70945  22325953.984                    22325963.629
 118010425.462 7  91956200.34945  22456638.742                    22456645.719
 127582337.054 6  99414801.94843  24278133.055                    24278144.633
 11  8 26 17 36  0.0000000  0 10G17G08G11G07G01G28G24G13G19G23
 127104219.669 7  99042306.896 6  24187133.586                    24187146.973
 111358445.230 8  86772932.44946  21190811.539                    21190820.770
 114706461.652 8  89381710.94745  21827903.906                    21827912.363
 107076772.341 8  83436469.003 8  20376028.508                    20376036.258
 121796886.725 7  94906594.212 7  23177143.344                    23177157.086
 118807573.500 7  92577422.39045  22608332.125                    22608341.070
 121253360.286 7  94483239.74744  23073749.367                    23073760.969
 117425382.908 7  91500319.16344  22345313.758                    22345323.902
 118097989.318 7  92024431.85745  22473300.984                    22473308.609
 127696401.636 6  99503683.18143  24299838.898                    24299850.754
 11  8 26 17 36 30.0000000  0 10G17G08G11G07G01G28G24G13G19G23
 127002782.897 7  98963265.425 6  24167830.641                    24167844.320
 111294443.124 8  86723060.69046  21178632.422                    21178641.082
 114665418.442 8  89349729.24045  21820093.570                    21820101.949
 107059118.666 8  83422712.874 8  20372668.930                    20372677.094
 121725161.406 7  94850704.434 7  23163494.508                    23163507.984
 118776539.755 7  92553240.27045  22602427.094                    22602435.090
 121187647.602 7  94432035.14644  23061244.266                    23061256.031
 117527355.959 7  91579778.58044  22364718.375                    22364728.863
 118185869.483 7  92092909.85245  22490024.484                    22490032.168
 127810446.590 6  99592549.09442  24321540.656                    24321553.281
 11  8 26 17 37  0.0000000  0 10G17G08G11G07G01G28G24G13G19G23
 126901496.684 7  98884341.293 6  24148556.367                    24148569.695
 111230628.582 8  86673335.08746  21166488.922                    21166497.883
 114624832.656 8  89318103.96945  21812370.445                    21812378.449
 107041835.553 8  83409245.496 8  20369379.633                    20369387.680
 121653620.648 7  94794958.473 7  23149880.336                    23149894.129
 118745615.350 7  92529143.35245  22596542.086                    22596550.520
 121122143.163 7  94380992.80044  23048778.797                    23048791.031
 117629560.780 7  91659418.57244  22384167.367                    22384177.469
 118274063.448 7  92161632.36045  22506807.047                    22506814.867
 127924469.214 6  99681397.57643  24343238.734                    24343250.941
 11  8 26 17 37 30.0000000  0 10G17G08G11G07G01G28G24G13G19G23
 126800363.415 6  98805536.360 6  24129311.273                    24129324.660
 111167003.890 8  86623757.39946  21154381.469                    21154390.039
 114584707.181 8  89286837.37545  21804734.992                    21804742.617
 107024924.818 8  83396068.289 8  20366162.086                    20366170.176
 121582267.547 7  94739358.706 7  23136302.328                    23136315.879
 118714799.382 7  92505130.92945  22590678.234                    22590686.625
 121056850.238 7  94330115.26344  23036354.141                    23036366.434
 117731994.233 7  91739236.69944  22403660.844                    22403670.559
 118362568.110 7  92230596.97245  22523649.156                    22523656.355
 128038467.141 6  99770226.84243  24364931.781                    24364944.590
 11  8 26 17 38  0.0000000  0 10G17G08G11G07G01G28G24G13G19G23
 126699384.763 6  98726851.922 6  24110095.688                    24110109.117
 111103570.666 7  86574328.92846  21142310.727                    21142319.355
 114545043.671 8  89255930.75345  21797186.547                    21797195.188
 107008387.529 8  83383182.068 8  20363015.156                    20363023.051
 121511105.081 7  94683907.506 7  23122760.656                    23122774.098
 118684090.433 7  92481201.89145  22584834.398                    22584843.246
 120991771.472 6  94279404.60044  23023970.102                    23023981.926
 117834653.080 7  91819230.48544  22423195.969                    22423205.414
 118451380.679 7  92299801.50045  22540549.406                    22540556.484
 128152436.962 6  99859034.20743  24386620.383                    24386632.375
 11  8 26 17 38 30.0000000  0 10G17G08G11G07G01G28G24G13G19G23
 126598563.129 6  98648289.823 6  24090909.703                    24090923.258
 111040332.518 8  86525052.45546  21130276.961                    21130285.508
 114505845.168 8  89225386.47945  21789727.609                    21789736.426
 106992226.709 8  83370589.204 8  20359939.836                    20359947.813
 121440135.807 7  94628606.835 7  23109254.867                    23109269.207
 118653488.259 7  92457356.06545  22579011.023                    22579019.520
 120926910.579 7  94228863.70444  23011627.328                    23011639.023
 117937535.184 7  91899398.22544  22442773.656                    22442784.141
 118540498.947 7  92369244.25345  22557508.266                    22557515.566
 128266376.677 6  99947818.08543  24408302.602                    24408315.336
 11  8 26 17 39  0.0000000  0 10G17G08G11G07G01G28G24G13G19G23
 126497899.922 6  98569851.188 6  24071753.227                    24071766.781
 110977291.014 8  86475929.20946  21118280.242                    21118289.184
 114467113.097 8  89195205.65245  21782357.039                    21782365.270
 106976442.487 8  83358289.788 8  20356935.875                    20356943.836
 121369362.695 7  94573459.023 7  23095787.547                    23095801.828
 118622991.227 7  92433592.15045  22573207.852                    22573216.457
 120862269.537 7  94178494.11944  22999326.508                    22999338.055
 118040636.101 7  91979736.47144  22462393.523                    22462403.285
 118629918.965 7  92438922.12945  22574524.742                    22574531.656
 128380282.901 6 100036575.86843  24429978.203                    24429991.125
 11  8 26 17 39 30.0000000  0 10G17G08G11G07G01G28G24G13G19G23
 126397397.287 6  98491537.654 6  24052628.641                    24052641.934
 110914448.890 8  86426961.33246  21106321.867                    21106330.586
 114428850.114 8  89165390.35245  21775076.031                    21775084.523
 106961037.658 8  83346286.014 8  20354004.930                    20354012.852
 121298789.498 7  94518466.987 7  23082358.039                    23082371.754
 118592598.792 7  92409909.75545  22567424.391                    22567432.242
 120797852.278 7  94128298.91844  22987068.391                    22987079.898
 118143953.541 7  92060243.44444  22482054.258                    22482064.254
 118719638.565 7  92508833.45445  22591597.891                    22591605.238
 128494153.460 6 100125305.84543  24451647.242                    24451660.035
 11  8 26 17 40  0.0000000  0  9G17G08G11G07G01G28G24G13G19
 126297057.860 6  98413351.313 6  24033534.547                    24033547.695
 110851808.930 7  86378150.97946  21094401.891                    21094410.617
 114391058.995 8  89135942.72645  21767884.531                    21767893.117
 106946014.517 8  83334579.655 8  20351145.617                    20351153.660
 121228419.901 7  94463633.575 7  23068967.242                    23068980.426
 118562310.665 7  92386308.62545  22561660.547                    22561668.742
 120733662.381 6  94078280.88744  22974853.391                    22974865.270
 118247484.848 7  92140917.04644  22501755.703                    22501765.895
 118809655.345 7  92578976.33845  22608727.469                    22608734.949
 11  8 26 17 40 30.0000000  0  9G17G08G11G07G01G28G24G13G19
 126196883.260 7  98335293.360 6  24014471.414                    24014483.961
 110789372.807 8  86329499.45846  21082521.023                    21082529.789
 114353741.128 8  89106863.88845  21760783.500                    21760791.637
 106931373.935 8  83323171.402 8  20348359.781                    20348368.168
 121158255.995 7  94408960.475 7  23055614.820                    23055628.969
 118532125.311 7  92362787.59045  22555916.211                    22555925.168
 120669702.011 6  94028441.69644  22962681.836                    22962693.938
 118351226.091 7  92221754.24144  22521497.391                    22521506.734
 118899965.762 7  92649348.02045  22625912.648                    22625920.469
 11  8 26 17 41  0.0000000  0  9G17G08G11G07G01G28G24G13G19
 126096875.238 7  98257365.248 6  23995441.047                    23995453.699
 110727143.024 8  86281008.72046  21070678.789                    21070687.637
 114316898.525 8  89078155.36845  21753772.375                    21753780.801
 106917117.599 8  83312062.551 8  20345646.836                    20345655.133
 121088301.108 7  94354450.211 7  23042303.406                    23042317.160
 118502041.502 7  92339345.68245  22550191.461                    22550200.445
 120605974.154 7  93978783.68544  22950554.508                    22950566.441
 118455174.281 7  92302752.67444  22541277.836                    22541287.949
 118990566.834 7  92719946.19545  22643154.109                    22643161.668
 11  8 26 17 41 30.0000000  0  9G17G08G11G07G01G28G24G13G19
 125997035.730 7  98179568.382 6  23976441.969                    23976454.238
 110665121.754 8  86232680.45846  21058876.617                    21058885.402
 114280533.500 7  89049819.00445  21746852.297                    21746860.789
 106903247.241 8  83301254.471 8  20343007.414                    20343015.586
 121018557.372 7  94300104.496 7  23029031.547                    23029045.207
 118472058.335 7  92315982.18345  22544485.648                    22544494.797
 120542481.906 7  93929309.24644  22938472.922                    22938484.711
 118559326.422 7  92383910.04945  22561097.461                    22561107.813
 119081455.917 7  92790768.78645  22660449.102                    22660456.559
 11  8 26 17 42  0.0000000  0  9G17G08G11G07G01G28G24G13G19
 125897366.745 7  98101904.406 6  23957475.234                    23957488.234
 110603311.435 8  86184516.57946  21047114.273                    21047122.961
 114244648.391 8  89021856.58145  21740023.586                    21740031.813
 106889764.784 8  83290748.640 8  20340441.633                    20340449.973
 120949029.090 7  94245926.672 7  23015801.313                    23015814.430
 118442174.976 7  92292696.47445  22538799.328                    22538807.680
 120479228.447 7  93880020.89744  22926435.672                    22926447.695
 118663679.468 7  92465223.95944  22580955.422                    22580965.438
 119172630.303 7  92861813.70845  22677799.547                    22677807.281
 11  8 26 17 42 30.0000000  0 10G17G26G08G11G07G01G28G24G13G19
 125797870.457 7  98024374.988 6  23938541.930                    23938555.258
 127462996.38516  99321884.99753  24255407.211                    24255419.234
 110541714.641 8  86136519.07846  21035392.773                    21035401.719
 114209245.301 7  88994269.76145  21733286.430                    21733294.949
 106876671.946 8  83280546.411 8  20337950.563                    20337958.492
 120879718.757 7  94191918.665 7  23002611.422                    23002624.852
 118412390.598 7  92269487.87345  22533131.305                    22533139.969
 120416216.831 7  93830920.99744  22914444.703                    22914456.863
 118768230.533 7  92546692.17144  22600850.898                    22600861.219
 119264087.061 7  92933078.64945  22695202.906                    22695210.676
 11  8 26 17 43  0.0000000  0 10G17G26G08G11G07G01G28G24G13G19
 125698548.571 7  97946981.487 6  23919641.961                    23919653.836
 127376588.047 6  99254553.92243  24238964.633                    24238976.121
 110480333.619 7  86088689.70846  21023712.664                    21023721.316
 114174326.044 7  88967059.95845  21726641.742                    21726650.129
 106863969.974 8  83270648.756 8  20335533.445                    20335541.383
 120810629.635 7  94138083.020 7  22989464.039                    22989477.613
 118382704.010 7  92246355.48245  22527482.695                    22527491.152
 120353449.965 6  93782011.78144  22902501.336                    22902512.344
 118872975.802 7  92628311.71644  22620783.547                    22620793.176
 119355823.094 7  93004561.20945  22712659.883                    22712667.398
 11  8 26 17 43 30.0000000  0 10G17G26G08G11G07G01G28G24G13G19
 125599403.543 7  97869725.771 6  23900774.648                    23900787.184
 127290568.057 6  99187525.41843  24222595.867                    24222607.230
 110419171.235 8  86041030.71546  21012073.773                    21012082.168
 114139893.569 7  88940229.46745  21720089.453                    21720097.660
 106851661.196 8  83261057.481 8  20333191.414                    20333199.363
 120741764.930 7  94084422.242 7  22976359.500                    22976373.563
 118353114.777 7  92223298.94645  22521851.438                    22521860.773
 120290931.380 7  93733296.08044  22890603.992                    22890615.789
 118977912.937 7  92710080.77044  22640752.406                    22640763.012
 119447835.762 7  93076259.32845  22730169.359                    22730176.648
 11  8 26 17 44  0.0000000  0 10G17G26G08G11G07G01G28G24G13G19
 125500437.074 7  97792609.197 6  23881941.531                    23881954.387
 127204938.943 6  99120801.51743  24206301.094                    24206312.551
 110358229.519 8  85993543.66846  21000477.180                    21000485.566
 114105949.037 7  88913779.19045  21713629.781                    21713639.117
 106839747.644 8  83251774.177 8  20330924.195                    20330932.027
 120673126.981 7  94030938.165 7  22963298.180                    22963311.605
 118323621.785 7  92200317.41645  22516238.992                    22516247.918
 120228664.037 7  93684776.11944  22878755.125                    22878766.645
 119083038.750 7  92791996.79944  22660756.898                    22660768.039
 119540122.728 7  93148171.17645  22747730.695                    22747738.340
 11  8 26 17 44 30.0000000  0 10G17G26G08G11G07G01G28G24G13G19
 125401650.961 6  97715633.176 6  23863142.703                    23863155.695
 127119702.871 6  99054383.86243  24190080.828                    24190092.977
 110297510.385 8  85946230.05846  20988922.383                    20988931.359
 114072494.442 7  88887710.67245  21707263.188                    21707272.148
 106828229.677 8  83242799.114 8  20328732.336                    20328740.266
 120604719.834 7  93977633.928 7  22950281.000                    22950294.516
 118294223.964 7  92177410.02945  22510645.180                    22510654.063
 120166650.518 7  93636453.95544  22866954.188                    22866966.203
 119188349.774 7  92874057.18844  22680797.375                    22680807.785
 119632680.323 7  93220293.91545  22765344.172                    22765351.863
 11  8 26 17 45  0.0000000  0 10G17G26G08G11G07G01G28G24G13G19
 125303046.961 6  97638799.046 6  23844379.234                    23844391.777
 127034863.172 6  98988275.08643  24173936.750                    24173948.402
 110237016.921 8  85899092.29146  20977411.117                    20977419.906
 114039531.899 7  88862025.56645  21700990.867                    21700999.461
 106817109.390 8  83234133.944 8  20326616.453                    20326624.328
 120536545.581 7  93924511.182 7  22937307.414                    22937320.957
 118264920.401 7  92154576.08945  22505068.414                    22505077.172
 120104893.837 7  93588331.91044  22855202.617                    22855214.094
 119293842.649 7  92956259.26144  22700872.078                    22700882.254
 119725505.874 7  93292625.44445  22783008.570                    22783015.691
 11  8 26 17 45 30.0000000  0 10G17G26G08G11G07G01G28G24G13G19
 125204627.281 6  97562108.566 6  23825650.680                    23825663.059
 126950422.304 6  98922477.08943  24157868.422                    24157879.738
 110176751.461 8  85852132.19746  20965942.648                    20965951.301
 114007063.504 7  88836725.51945  21694812.516                    21694821.070
 106806388.619 8  83225780.079 8  20324576.453                    20324584.324
 120468607.119 7  93871572.167 7  22924379.336                    22924393.043
 118235710.131 7  92131814.85045  22499510.234                    22499518.941
 120043397.145 7  93540412.46444  22843500.000                    22843512.180
 119399514.633 7  93038600.91644  22720980.656                    22720990.902
 119818596.646 7  93365163.66245  22800723.211                    22800730.504
 11  8 26 17 46  0.0000000  0 10G17G26G08G11G07G01G28G24G13G19
 125106394.030 6  97485563.334 6  23806957.422                    23806970.117
 126866383.058 7  98856992.04143  24141875.492                    24141887.406
 110116716.497 8  85805351.71346  20954518.383                    20954527.223
 113975091.490 7  88811812.27445  21688728.688                    21688737.133
 106796069.262 8  83217738.998 8  20322612.516                    20322620.191
 120400908.305 7  93818819.880 7  22911496.531                    22911510.082
 118206592.417 7  92109125.72045  22493969.086                    22493978.184
 119982163.574 7  93492698.02344  22831847.297                    22831858.898
 119505362.949 7  93121079.93444  22741123.461                    22741133.930
 119911949.960 7  93437906.44945  22818487.492                    22818494.875
 11  8 26 17 46 30.0000000  0 10G17G26G08G11G07G01G28G24G13G19
 125008349.011 6  97409164.784 6  23788299.688                    23788311.875
 126782748.418 6  98791822.21543  24125960.133                    24125971.824
 110056914.640 8  85758752.85746  20943138.594                    20943147.852
 113943617.647 7  88787287.19745  21682739.516                    21682747.613
 106786153.062 8  83210012.068 8  20320725.539                    20320733.535
 120333452.394 7  93766256.879 7  22898659.852                    22898673.418
 118177566.658 7  92086508.26545  22488446.172                    22488454.715
 119921196.285 7  93445191.08744  22820245.461                    22820257.426
 119611384.178 7  93203693.74844  22761298.789                    22761308.445
 120005562.998 7  93510851.61344  22836301.453                    22836308.734
 11  8 26 17 47  0.0000000  0 10G17G26G08G11G07G01G28G24G13G19
 124910494.178 6  97332914.410 6  23769678.625                    23769691.305
 126699520.520 6  98726969.37543  24110122.813                    24110134.305
 109997348.089 8  85712337.35946  20931803.219                    20931812.059
 113912643.866 8  88763151.78945  21676844.922                    21676853.234
 106776641.261 8  83202600.259 8  20318915.547                    20318923.566
 120266241.701 7  93713884.934 7  22885870.383                    22885883.832
 118148631.717 7  92063961.54945  22482940.000                    22482948.648
 119860498.414 7  93397894.07844  22808695.492                    22808707.059
 119717575.750 7  93286440.24344  22781506.328                    22781516.805
 120099432.705 7  93583996.78245  22854164.328                    22854172.184
 11  8 26 17 47 30.0000000  0 10G17G26G08G11G07G01G28G24G13G19
 124812831.205 6  97256813.530 6  23751093.570                    23751105.957
 126616702.159 6  98662435.63843  24094362.531                    24094374.398
 109938019.446 8  85666107.25546  20920513.438                    20920522.281
 113882172.248 7  88739407.67845  21671046.758                    21671055.375
 106767535.356 8  83195504.729 8  20317182.945                    20317190.832
 120199279.584 7  93661706.719 7  22873127.461                    22873141.082
 118119786.514 7  92041484.77245  22477451.008                    22477459.156
 119800072.914 6  93350809.32344  22797196.203                    22797208.457
 119823933.805 7  93369316.50044  22801745.867                    22801756.406
 120193556.457 7  93657339.91745  22872075.656                    22872083.043
 11  8 26 17 48  0.0000000  0 10G17G26G08G11G07G01G28G24G13G19
 124715362.013 7  97180863.642 6  23732545.789                    23732558.129
 126534296.253 6  98598223.27043  24078681.531                    24078693.082
 109878930.957 8  85620064.27246  20909269.375                    20909278.137
 113852204.585 8  88716056.25745  21665344.164                    21665352.688
 106758837.096 8  83188726.840 8  20315527.406                    20315535.414
 120132568.897 7  93609724.412 7  22860432.930                    22860446.844
 118091030.157 7  92019077.23045  22471978.883                    22471987.199
 119739922.574 7  93303938.97744  22785750.148                    22785762.105
 119930455.423 7  93452320.20944  22822016.531                    22822026.906
 120287931.363 7  93730878.73945  22890034.813                    22890042.031
 11  8 26 17 48 30.0000000  0 10G17G26G08G11G07G01G28G24G13G19
 124618088.936 7  97105066.578 6  23714035.125                    23714047.805
 126452305.478 6  98534334.42643  24063078.898                    24063090.855
 109820085.335 8  85574210.54046  20898071.727                    20898080.242
 113822742.932 7  88693099.11845  21659737.297                    21659746.230
 106750548.200 8  83182267.948 8  20313949.898                    20313957.910
 120066113.674 7  93557941.141 7  22847787.109                    22847800.145
 118062361.674 7  91996738.15745  22466523.266                    22466531.422
 119680050.689 7  93257285.59644  22774357.297                    22774368.461
 120037137.856 7  93535449.19644  22842317.875                    22842327.820
 120382554.532 7  93804611.02045  22908041.234                    22908048.645
 11  8 26 17 49  0.0000000  0 10G17G26G08G11G07G01G28G24G13G19
 124521013.565 7  97029423.562 6  23695562.758                    23695574.398
 126370732.146 6  98470770.80143  24047555.727                    24047567.461
 109761484.755 8  85528547.74546  20886920.266                    20886928.785
 113793788.791 7  88670537.45545  21654227.977                    21654236.715
 106742670.228 8  83176129.245 8  20312450.852                    20312459.016
 119999915.647 7  93506358.310 7  22835190.469                    22835203.211
 118033780.692 7  91974467.28545  22461084.508                    22461093.168
 119620459.671 7  93210851.07944  22763017.031                    22763028.918
 120143977.803 7  93618700.94644  22862648.664                    22862658.785
 120477423.381 7  93878534.72545  22926093.930                    22926101.406
 11  8 26 17 49 30.0000000  0 10G17G26G08G11G07G01G28G24G13G19
 124424137.994 7  96953936.214 6  23677127.875                    23677139.813
 126289579.169 6  98407534.79043  24032113.250                    24032125.617
 109703131.733 8  85483077.86646  20875815.570                    20875824.695
 113765344.002 7  88648372.67845  21648814.805                    21648823.410
 106735204.693 8  83170311.921 8  20311030.359                    20311038.348
 119933978.311 7  93454978.597 7  22822642.469                    22822655.918
 118005286.021 7  91952263.64145  22455661.539                    22455670.043
 119561152.794 7  93164637.96644  22751731.273                    22751743.449
 120250972.132 7  93702072.95544  22883008.445                    22883019.895
 120572534.782 7  93952647.43545  22944193.000                    22944200.840
